<?xml version="1.0" encoding="UTF-8" standalone="no" ?>
<gpx xmlns="http://www.topografix.com/GPX/1/1" xmlns:xsi="http://www.w3.org/2001/XMLSchema-instance" xsi:schemaLocation="http://www.topografix.com/GPX/1/1 http://www.topografix.com/GPX/1/1/gpx.xsd" version="1.1" creator="VisuGPX - https://www.visugpx.com">
  <metadata>
    <name>Marche nordique à Marsannay la Cote</name>
    <desc><![CDATA[Bois des Francs, Combes Pévenelle et Grand Vaux, Roche qui Pleure]]></desc>
  </metadata>
  <trk>
    <name><![CDATA[Marsannay la Côte]]></name>
    <desc><![CDATA[Josiane, Patrick2, Odile, Michel, Jean-Pierre]]></desc>
    <trkseg>
      <trkpt lat="47.28216" lon="4.97299">
        <ele>328.60000610352</ele>
        <time>2014-08-02T06:31:52.000Z</time>
      </trkpt>
      <trkpt lat="47.28212" lon="4.973">
        <ele>328.60000610352</ele>
        <time>2014-08-02T06:31:56.000Z</time>
      </trkpt>
      <trkpt lat="47.28211" lon="4.97304">
        <ele>328.60000610352</ele>
        <time>2014-08-02T06:32:01.000Z</time>
      </trkpt>
      <trkpt lat="47.28211" lon="4.97309">
        <ele>328.79998779297</ele>
        <time>2014-08-02T06:32:06.000Z</time>
      </trkpt>
      <trkpt lat="47.28212" lon="4.97311">
        <ele>329</ele>
        <time>2014-08-02T06:32:07.000Z</time>
      </trkpt>
      <trkpt lat="47.28211" lon="4.97319">
        <ele>329.20001220703</ele>
        <time>2014-08-02T06:32:13.000Z</time>
      </trkpt>
      <trkpt lat="47.28206" lon="4.97318">
        <ele>329</ele>
        <time>2014-08-02T06:32:18.000Z</time>
      </trkpt>
      <trkpt lat="47.282" lon="4.97316">
        <ele>328.79998779297</ele>
        <time>2014-08-02T06:32:23.000Z</time>
      </trkpt>
      <trkpt lat="47.28197" lon="4.97315">
        <ele>328.60000610352</ele>
        <time>2014-08-02T06:32:25.000Z</time>
      </trkpt>
      <trkpt lat="47.2819" lon="4.97312">
        <ele>328.39999389648</ele>
        <time>2014-08-02T06:32:32.000Z</time>
      </trkpt>
      <trkpt lat="47.28183" lon="4.97309">
        <ele>328.20001220703</ele>
        <time>2014-08-02T06:32:39.000Z</time>
      </trkpt>
      <trkpt lat="47.28171" lon="4.97306">
        <ele>327.20001220703</ele>
        <time>2014-08-02T06:32:51.000Z</time>
      </trkpt>
      <trkpt lat="47.28166" lon="4.97303">
        <ele>326.79998779297</ele>
        <time>2014-08-02T06:32:55.000Z</time>
      </trkpt>
      <trkpt lat="47.2816" lon="4.97302">
        <ele>327</ele>
        <time>2014-08-02T06:33:00.000Z</time>
      </trkpt>
      <trkpt lat="47.28153" lon="4.973">
        <ele>328.60000610352</ele>
        <time>2014-08-02T06:33:07.000Z</time>
      </trkpt>
      <trkpt lat="47.2815" lon="4.97299">
        <ele>329.39999389648</ele>
        <time>2014-08-02T06:33:10.000Z</time>
      </trkpt>
      <trkpt lat="47.28149" lon="4.97298">
        <ele>329.60000610352</ele>
        <time>2014-08-02T06:33:12.000Z</time>
      </trkpt>
      <trkpt lat="47.28145" lon="4.97298">
        <ele>330.39999389648</ele>
        <time>2014-08-02T06:33:16.000Z</time>
      </trkpt>
      <trkpt lat="47.28141" lon="4.97296">
        <ele>331.20001220703</ele>
        <time>2014-08-02T06:33:20.000Z</time>
      </trkpt>
      <trkpt lat="47.28138" lon="4.97294">
        <ele>332</ele>
        <time>2014-08-02T06:33:23.000Z</time>
      </trkpt>
      <trkpt lat="47.28132" lon="4.97292">
        <ele>333.39999389648</ele>
        <time>2014-08-02T06:33:29.000Z</time>
      </trkpt>
      <trkpt lat="47.28127" lon="4.97289">
        <ele>334.60000610352</ele>
        <time>2014-08-02T06:33:34.000Z</time>
      </trkpt>
      <trkpt lat="47.28125" lon="4.97289">
        <ele>335</ele>
        <time>2014-08-02T06:33:35.000Z</time>
      </trkpt>
      <trkpt lat="47.28121" lon="4.97287">
        <ele>335.79998779297</ele>
        <time>2014-08-02T06:33:39.000Z</time>
      </trkpt>
      <trkpt lat="47.28118" lon="4.97285">
        <ele>336.79998779297</ele>
        <time>2014-08-02T06:33:43.000Z</time>
      </trkpt>
      <trkpt lat="47.28112" lon="4.97281">
        <ele>338.20001220703</ele>
        <time>2014-08-02T06:33:49.000Z</time>
      </trkpt>
      <trkpt lat="47.28111" lon="4.97281">
        <ele>338.60000610352</ele>
        <time>2014-08-02T06:33:50.000Z</time>
      </trkpt>
      <trkpt lat="47.28105" lon="4.97279">
        <ele>339.79998779297</ele>
        <time>2014-08-02T06:33:55.000Z</time>
      </trkpt>
      <trkpt lat="47.28101" lon="4.97278">
        <ele>340.79998779297</ele>
        <time>2014-08-02T06:33:59.000Z</time>
      </trkpt>
      <trkpt lat="47.28098" lon="4.97277">
        <ele>341.60000610352</ele>
        <time>2014-08-02T06:34:02.000Z</time>
      </trkpt>
      <trkpt lat="47.28092" lon="4.97273">
        <ele>343</ele>
        <time>2014-08-02T06:34:08.000Z</time>
      </trkpt>
      <trkpt lat="47.28088" lon="4.97267">
        <ele>344.39999389648</ele>
        <time>2014-08-02T06:34:14.000Z</time>
      </trkpt>
      <trkpt lat="47.28088" lon="4.9726">
        <ele>345</ele>
        <time>2014-08-02T06:34:18.000Z</time>
      </trkpt>
      <trkpt lat="47.28088" lon="4.97256">
        <ele>345.20001220703</ele>
        <time>2014-08-02T06:34:20.000Z</time>
      </trkpt>
      <trkpt lat="47.28087" lon="4.9725">
        <ele>346</ele>
        <time>2014-08-02T06:34:23.000Z</time>
      </trkpt>
      <trkpt lat="47.28089" lon="4.97239">
        <ele>346.39999389648</ele>
        <time>2014-08-02T06:34:29.000Z</time>
      </trkpt>
      <trkpt lat="47.2809" lon="4.97228">
        <ele>347.20001220703</ele>
        <time>2014-08-02T06:34:35.000Z</time>
      </trkpt>
      <trkpt lat="47.28091" lon="4.97222">
        <ele>347.60000610352</ele>
        <time>2014-08-02T06:34:39.000Z</time>
      </trkpt>
      <trkpt lat="47.28092" lon="4.97214">
        <ele>348</ele>
        <time>2014-08-02T06:34:43.000Z</time>
      </trkpt>
      <trkpt lat="47.28091" lon="4.9721">
        <ele>348.39999389648</ele>
        <time>2014-08-02T06:34:45.000Z</time>
      </trkpt>
      <trkpt lat="47.28091" lon="4.97196">
        <ele>350</ele>
        <time>2014-08-02T06:34:52.000Z</time>
      </trkpt>
      <trkpt lat="47.2809" lon="4.97181">
        <ele>351.79998779297</ele>
        <time>2014-08-02T06:35:00.000Z</time>
      </trkpt>
      <trkpt lat="47.28091" lon="4.9718">
        <ele>352</ele>
        <time>2014-08-02T06:35:01.000Z</time>
      </trkpt>
      <trkpt lat="47.2809" lon="4.97178">
        <ele>352.39999389648</ele>
        <time>2014-08-02T06:35:02.000Z</time>
      </trkpt>
      <trkpt lat="47.2809" lon="4.97166">
        <ele>353.79998779297</ele>
        <time>2014-08-02T06:35:08.000Z</time>
      </trkpt>
      <trkpt lat="47.2809" lon="4.97162">
        <ele>354.20001220703</ele>
        <time>2014-08-02T06:35:10.000Z</time>
      </trkpt>
      <trkpt lat="47.28092" lon="4.97147">
        <ele>355.79998779297</ele>
        <time>2014-08-02T06:35:18.000Z</time>
      </trkpt>
      <trkpt lat="47.28094" lon="4.9714">
        <ele>356.20001220703</ele>
        <time>2014-08-02T06:35:23.000Z</time>
      </trkpt>
      <trkpt lat="47.28095" lon="4.9713">
        <ele>356.60000610352</ele>
        <time>2014-08-02T06:35:29.000Z</time>
      </trkpt>
      <trkpt lat="47.28096" lon="4.97123">
        <ele>356.60000610352</ele>
        <time>2014-08-02T06:35:34.000Z</time>
      </trkpt>
      <trkpt lat="47.28098" lon="4.97114">
        <ele>356.79998779297</ele>
        <time>2014-08-02T06:35:39.000Z</time>
      </trkpt>
      <trkpt lat="47.28099" lon="4.97108">
        <ele>357</ele>
        <time>2014-08-02T06:35:44.000Z</time>
      </trkpt>
      <trkpt lat="47.28099" lon="4.97107">
        <ele>356.79998779297</ele>
        <time>2014-08-02T06:35:45.000Z</time>
      </trkpt>
      <trkpt lat="47.28099" lon="4.97105">
        <ele>357</ele>
        <time>2014-08-02T06:35:46.000Z</time>
      </trkpt>
      <trkpt lat="47.281" lon="4.971">
        <ele>357.20001220703</ele>
        <time>2014-08-02T06:35:49.000Z</time>
      </trkpt>
      <trkpt lat="47.281" lon="4.97094">
        <ele>357.60000610352</ele>
        <time>2014-08-02T06:35:52.000Z</time>
      </trkpt>
      <trkpt lat="47.28101" lon="4.97084">
        <ele>358</ele>
        <time>2014-08-02T06:35:58.000Z</time>
      </trkpt>
      <trkpt lat="47.28102" lon="4.97079">
        <ele>358.20001220703</ele>
        <time>2014-08-02T06:36:01.000Z</time>
      </trkpt>
      <trkpt lat="47.28103" lon="4.97072">
        <ele>358.39999389648</ele>
        <time>2014-08-02T06:36:05.000Z</time>
      </trkpt>
      <trkpt lat="47.28103" lon="4.97064">
        <ele>359</ele>
        <time>2014-08-02T06:36:10.000Z</time>
      </trkpt>
      <trkpt lat="47.28103" lon="4.97058">
        <ele>359.39999389648</ele>
        <time>2014-08-02T06:36:13.000Z</time>
      </trkpt>
      <trkpt lat="47.28101" lon="4.97047">
        <ele>360.79998779297</ele>
        <time>2014-08-02T06:36:20.000Z</time>
      </trkpt>
      <trkpt lat="47.28101" lon="4.9704">
        <ele>361.39999389648</ele>
        <time>2014-08-02T06:36:24.000Z</time>
      </trkpt>
      <trkpt lat="47.28101" lon="4.97036">
        <ele>361.60000610352</ele>
        <time>2014-08-02T06:36:26.000Z</time>
      </trkpt>
      <trkpt lat="47.28103" lon="4.97025">
        <ele>362.60000610352</ele>
        <time>2014-08-02T06:36:33.000Z</time>
      </trkpt>
      <trkpt lat="47.28107" lon="4.97013">
        <ele>362.79998779297</ele>
        <time>2014-08-02T06:36:41.000Z</time>
      </trkpt>
      <trkpt lat="47.28108" lon="4.97012">
        <ele>362.79998779297</ele>
        <time>2014-08-02T06:36:42.000Z</time>
      </trkpt>
      <trkpt lat="47.28108" lon="4.97011">
        <ele>362.79998779297</ele>
        <time>2014-08-02T06:36:43.000Z</time>
      </trkpt>
      <trkpt lat="47.28111" lon="4.97005">
        <ele>362.60000610352</ele>
        <time>2014-08-02T06:36:48.000Z</time>
      </trkpt>
      <trkpt lat="47.28112" lon="4.97003">
        <ele>362.60000610352</ele>
        <time>2014-08-02T06:36:50.000Z</time>
      </trkpt>
      <trkpt lat="47.28116" lon="4.96994">
        <ele>362.79998779297</ele>
        <time>2014-08-02T06:36:54.000Z</time>
      </trkpt>
      <trkpt lat="47.2812" lon="4.96982">
        <ele>362.20001220703</ele>
        <time>2014-08-02T06:37:01.000Z</time>
      </trkpt>
      <trkpt lat="47.28121" lon="4.9698">
        <ele>362.20001220703</ele>
        <time>2014-08-02T06:37:02.000Z</time>
      </trkpt>
      <trkpt lat="47.28123" lon="4.96971">
        <ele>362</ele>
        <time>2014-08-02T06:37:07.000Z</time>
      </trkpt>
      <trkpt lat="47.28124" lon="4.96967">
        <ele>362</ele>
        <time>2014-08-02T06:37:09.000Z</time>
      </trkpt>
      <trkpt lat="47.28125" lon="4.96957">
        <ele>362.39999389648</ele>
        <time>2014-08-02T06:37:15.000Z</time>
      </trkpt>
      <trkpt lat="47.28127" lon="4.9695">
        <ele>362.79998779297</ele>
        <time>2014-08-02T06:37:19.000Z</time>
      </trkpt>
      <trkpt lat="47.28129" lon="4.96945">
        <ele>363</ele>
        <time>2014-08-02T06:37:22.000Z</time>
      </trkpt>
      <trkpt lat="47.2813" lon="4.96931">
        <ele>364.79998779297</ele>
        <time>2014-08-02T06:37:29.000Z</time>
      </trkpt>
      <trkpt lat="47.28133" lon="4.9692">
        <ele>365.39999389648</ele>
        <time>2014-08-02T06:37:35.000Z</time>
      </trkpt>
      <trkpt lat="47.28135" lon="4.9691">
        <ele>365.60000610352</ele>
        <time>2014-08-02T06:37:41.000Z</time>
      </trkpt>
      <trkpt lat="47.28136" lon="4.96908">
        <ele>365.79998779297</ele>
        <time>2014-08-02T06:37:42.000Z</time>
      </trkpt>
      <trkpt lat="47.28137" lon="4.96905">
        <ele>365.79998779297</ele>
        <time>2014-08-02T06:37:44.000Z</time>
      </trkpt>
      <trkpt lat="47.28138" lon="4.96897">
        <ele>366.20001220703</ele>
        <time>2014-08-02T06:37:48.000Z</time>
      </trkpt>
      <trkpt lat="47.28138" lon="4.96896">
        <ele>366.39999389648</ele>
        <time>2014-08-02T06:37:49.000Z</time>
      </trkpt>
      <trkpt lat="47.2814" lon="4.9689">
        <ele>366.60000610352</ele>
        <time>2014-08-02T06:37:52.000Z</time>
      </trkpt>
      <trkpt lat="47.2814" lon="4.96882">
        <ele>367.20001220703</ele>
        <time>2014-08-02T06:37:56.000Z</time>
      </trkpt>
      <trkpt lat="47.28141" lon="4.9687">
        <ele>368.20001220703</ele>
        <time>2014-08-02T06:38:01.000Z</time>
      </trkpt>
      <trkpt lat="47.28143" lon="4.96865">
        <ele>368.39999389648</ele>
        <time>2014-08-02T06:38:04.000Z</time>
      </trkpt>
      <trkpt lat="47.28145" lon="4.96855">
        <ele>368.39999389648</ele>
        <time>2014-08-02T06:38:09.000Z</time>
      </trkpt>
      <trkpt lat="47.28146" lon="4.96843">
        <ele>369.20001220703</ele>
        <time>2014-08-02T06:38:16.000Z</time>
      </trkpt>
      <trkpt lat="47.28145" lon="4.96839">
        <ele>370.20001220703</ele>
        <time>2014-08-02T06:38:25.000Z</time>
      </trkpt>
      <trkpt lat="47.28146" lon="4.96827">
        <ele>371</ele>
        <time>2014-08-02T06:38:56.000Z</time>
      </trkpt>
      <trkpt lat="47.28146" lon="4.96824">
        <ele>371</ele>
        <time>2014-08-02T06:38:57.000Z</time>
      </trkpt>
      <trkpt lat="47.28149" lon="4.96812">
        <ele>371.20001220703</ele>
        <time>2014-08-02T06:39:05.000Z</time>
      </trkpt>
      <trkpt lat="47.28153" lon="4.96803">
        <ele>370.60000610352</ele>
        <time>2014-08-02T06:39:10.000Z</time>
      </trkpt>
      <trkpt lat="47.28155" lon="4.968">
        <ele>370.20001220703</ele>
        <time>2014-08-02T06:39:12.000Z</time>
      </trkpt>
      <trkpt lat="47.28156" lon="4.96794">
        <ele>370.60000610352</ele>
        <time>2014-08-02T06:39:16.000Z</time>
      </trkpt>
      <trkpt lat="47.28157" lon="4.96784">
        <ele>370.79998779297</ele>
        <time>2014-08-02T06:39:22.000Z</time>
      </trkpt>
      <trkpt lat="47.28158" lon="4.96783">
        <ele>370.60000610352</ele>
        <time>2014-08-02T06:39:23.000Z</time>
      </trkpt>
      <trkpt lat="47.28159" lon="4.9678">
        <ele>370.39999389648</ele>
        <time>2014-08-02T06:39:25.000Z</time>
      </trkpt>
      <trkpt lat="47.2816" lon="4.96774">
        <ele>370.39999389648</ele>
        <time>2014-08-02T06:39:28.000Z</time>
      </trkpt>
      <trkpt lat="47.28164" lon="4.96764">
        <ele>369.79998779297</ele>
        <time>2014-08-02T06:39:35.000Z</time>
      </trkpt>
      <trkpt lat="47.28165" lon="4.96757">
        <ele>369.79998779297</ele>
        <time>2014-08-02T06:39:40.000Z</time>
      </trkpt>
      <trkpt lat="47.28166" lon="4.96755">
        <ele>369.79998779297</ele>
        <time>2014-08-02T06:39:41.000Z</time>
      </trkpt>
      <trkpt lat="47.28167" lon="4.96752">
        <ele>369.60000610352</ele>
        <time>2014-08-02T06:39:43.000Z</time>
      </trkpt>
      <trkpt lat="47.28169" lon="4.96738">
        <ele>369.79998779297</ele>
        <time>2014-08-02T06:39:51.000Z</time>
      </trkpt>
      <trkpt lat="47.28169" lon="4.96734">
        <ele>370.20001220703</ele>
        <time>2014-08-02T06:39:53.000Z</time>
      </trkpt>
      <trkpt lat="47.28171" lon="4.96724">
        <ele>370.39999389648</ele>
        <time>2014-08-02T06:39:58.000Z</time>
      </trkpt>
      <trkpt lat="47.28173" lon="4.96712">
        <ele>370.60000610352</ele>
        <time>2014-08-02T06:40:05.000Z</time>
      </trkpt>
      <trkpt lat="47.28172" lon="4.96701">
        <ele>371.60000610352</ele>
        <time>2014-08-02T06:40:09.000Z</time>
      </trkpt>
      <trkpt lat="47.2817" lon="4.96696">
        <ele>372.79998779297</ele>
        <time>2014-08-02T06:40:13.000Z</time>
      </trkpt>
      <trkpt lat="47.28165" lon="4.96692">
        <ele>374.39999389648</ele>
        <time>2014-08-02T06:40:18.000Z</time>
      </trkpt>
      <trkpt lat="47.28164" lon="4.96692">
        <ele>374.60000610352</ele>
        <time>2014-08-02T06:40:25.000Z</time>
      </trkpt>
      <trkpt lat="47.28161" lon="4.96695">
        <ele>375.60000610352</ele>
        <time>2014-08-02T06:40:30.000Z</time>
      </trkpt>
      <trkpt lat="47.28159" lon="4.96699">
        <ele>376</ele>
        <time>2014-08-02T06:40:35.000Z</time>
      </trkpt>
      <trkpt lat="47.28159" lon="4.967">
        <ele>376.20001220703</ele>
        <time>2014-08-02T06:40:36.000Z</time>
      </trkpt>
      <trkpt lat="47.28158" lon="4.96706">
        <ele>375.79998779297</ele>
        <time>2014-08-02T06:40:39.000Z</time>
      </trkpt>
      <trkpt lat="47.28158" lon="4.9671">
        <ele>375.79998779297</ele>
        <time>2014-08-02T06:40:43.000Z</time>
      </trkpt>
      <trkpt lat="47.28155" lon="4.96716">
        <ele>376.60000610352</ele>
        <time>2014-08-02T06:40:48.000Z</time>
      </trkpt>
      <trkpt lat="47.28154" lon="4.96725">
        <ele>376.20001220703</ele>
        <time>2014-08-02T06:40:55.000Z</time>
      </trkpt>
      <trkpt lat="47.28152" lon="4.96732">
        <ele>376.60000610352</ele>
        <time>2014-08-02T06:40:59.000Z</time>
      </trkpt>
      <trkpt lat="47.2815" lon="4.96737">
        <ele>376.79998779297</ele>
        <time>2014-08-02T06:41:02.000Z</time>
      </trkpt>
      <trkpt lat="47.28147" lon="4.96745">
        <ele>377.20001220703</ele>
        <time>2014-08-02T06:41:08.000Z</time>
      </trkpt>
      <trkpt lat="47.28147" lon="4.96747">
        <ele>377.20001220703</ele>
        <time>2014-08-02T06:41:09.000Z</time>
      </trkpt>
      <trkpt lat="47.28145" lon="4.96757">
        <ele>377.20001220703</ele>
        <time>2014-08-02T06:41:15.000Z</time>
      </trkpt>
      <trkpt lat="47.28143" lon="4.96762">
        <ele>377.79998779297</ele>
        <time>2014-08-02T06:41:18.000Z</time>
      </trkpt>
      <trkpt lat="47.28139" lon="4.96768">
        <ele>378.39999389648</ele>
        <time>2014-08-02T06:41:22.000Z</time>
      </trkpt>
      <trkpt lat="47.28137" lon="4.96779">
        <ele>378.39999389648</ele>
        <time>2014-08-02T06:41:29.000Z</time>
      </trkpt>
      <trkpt lat="47.28137" lon="4.9678">
        <ele>378.39999389648</ele>
        <time>2014-08-02T06:41:30.000Z</time>
      </trkpt>
      <trkpt lat="47.28136" lon="4.96784">
        <ele>378.60000610352</ele>
        <time>2014-08-02T06:41:32.000Z</time>
      </trkpt>
      <trkpt lat="47.28134" lon="4.9679">
        <ele>379</ele>
        <time>2014-08-02T06:41:35.000Z</time>
      </trkpt>
      <trkpt lat="47.28123" lon="4.96816">
        <ele>380.39999389648</ele>
        <time>2014-08-02T06:41:51.000Z</time>
      </trkpt>
      <trkpt lat="47.28117" lon="4.96828">
        <ele>381.79998779297</ele>
        <time>2014-08-02T06:41:58.000Z</time>
      </trkpt>
      <trkpt lat="47.2811" lon="4.9684">
        <ele>382.79998779297</ele>
        <time>2014-08-02T06:42:06.000Z</time>
      </trkpt>
      <trkpt lat="47.28104" lon="4.96853">
        <ele>383.39999389648</ele>
        <time>2014-08-02T06:42:14.000Z</time>
      </trkpt>
      <trkpt lat="47.28098" lon="4.96864">
        <ele>384.60000610352</ele>
        <time>2014-08-02T06:42:21.000Z</time>
      </trkpt>
      <trkpt lat="47.28095" lon="4.96872">
        <ele>384.79998779297</ele>
        <time>2014-08-02T06:42:26.000Z</time>
      </trkpt>
      <trkpt lat="47.28092" lon="4.96878">
        <ele>385.20001220703</ele>
        <time>2014-08-02T06:42:30.000Z</time>
      </trkpt>
      <trkpt lat="47.28088" lon="4.96887">
        <ele>385.20001220703</ele>
        <time>2014-08-02T06:42:35.000Z</time>
      </trkpt>
      <trkpt lat="47.28077" lon="4.96906">
        <ele>385.79998779297</ele>
        <time>2014-08-02T06:42:46.000Z</time>
      </trkpt>
      <trkpt lat="47.2807" lon="4.96915">
        <ele>386.60000610352</ele>
        <time>2014-08-02T06:42:54.000Z</time>
      </trkpt>
      <trkpt lat="47.28059" lon="4.96925">
        <ele>388</ele>
        <time>2014-08-02T06:43:03.000Z</time>
      </trkpt>
      <trkpt lat="47.2805" lon="4.96929">
        <ele>390</ele>
        <time>2014-08-02T06:43:09.000Z</time>
      </trkpt>
      <trkpt lat="47.28041" lon="4.96933">
        <ele>392.20001220703</ele>
        <time>2014-08-02T06:43:16.000Z</time>
      </trkpt>
      <trkpt lat="47.28034" lon="4.96937">
        <ele>393.79998779297</ele>
        <time>2014-08-02T06:43:23.000Z</time>
      </trkpt>
      <trkpt lat="47.28024" lon="4.9694">
        <ele>396.20001220703</ele>
        <time>2014-08-02T06:43:31.000Z</time>
      </trkpt>
      <trkpt lat="47.28023" lon="4.96941">
        <ele>396.39999389648</ele>
        <time>2014-08-02T06:43:33.000Z</time>
      </trkpt>
      <trkpt lat="47.28015" lon="4.96948">
        <ele>397.79998779297</ele>
        <time>2014-08-02T06:43:39.000Z</time>
      </trkpt>
      <trkpt lat="47.28013" lon="4.96952">
        <ele>397.79998779297</ele>
        <time>2014-08-02T06:43:42.000Z</time>
      </trkpt>
      <trkpt lat="47.2801" lon="4.96958">
        <ele>398</ele>
        <time>2014-08-02T06:43:48.000Z</time>
      </trkpt>
      <trkpt lat="47.28004" lon="4.96967">
        <ele>398.79998779297</ele>
        <time>2014-08-02T06:43:54.000Z</time>
      </trkpt>
      <trkpt lat="47.28003" lon="4.96968">
        <ele>398.79998779297</ele>
        <time>2014-08-02T06:43:55.000Z</time>
      </trkpt>
      <trkpt lat="47.28001" lon="4.96984">
        <ele>398.20001220703</ele>
        <time>2014-08-02T06:44:04.000Z</time>
      </trkpt>
      <trkpt lat="47.28001" lon="4.96985">
        <ele>398</ele>
        <time>2014-08-02T06:44:05.000Z</time>
      </trkpt>
      <trkpt lat="47.28" lon="4.96991">
        <ele>397.60000610352</ele>
        <time>2014-08-02T06:44:09.000Z</time>
      </trkpt>
      <trkpt lat="47.28" lon="4.96995">
        <ele>397.39999389648</ele>
        <time>2014-08-02T06:44:11.000Z</time>
      </trkpt>
      <trkpt lat="47.27999" lon="4.97002">
        <ele>397</ele>
        <time>2014-08-02T06:44:16.000Z</time>
      </trkpt>
      <trkpt lat="47.27998" lon="4.97015">
        <ele>396</ele>
        <time>2014-08-02T06:44:23.000Z</time>
      </trkpt>
      <trkpt lat="47.27996" lon="4.97029">
        <ele>395.39999389648</ele>
        <time>2014-08-02T06:44:30.000Z</time>
      </trkpt>
      <trkpt lat="47.27993" lon="4.97039">
        <ele>395</ele>
        <time>2014-08-02T06:44:36.000Z</time>
      </trkpt>
      <trkpt lat="47.27993" lon="4.97041">
        <ele>394.79998779297</ele>
        <time>2014-08-02T06:44:37.000Z</time>
      </trkpt>
      <trkpt lat="47.27989" lon="4.97053">
        <ele>394.79998779297</ele>
        <time>2014-08-02T06:44:44.000Z</time>
      </trkpt>
      <trkpt lat="47.27987" lon="4.97059">
        <ele>394.79998779297</ele>
        <time>2014-08-02T06:44:48.000Z</time>
      </trkpt>
      <trkpt lat="47.27983" lon="4.9707">
        <ele>394.79998779297</ele>
        <time>2014-08-02T06:44:54.000Z</time>
      </trkpt>
      <trkpt lat="47.27982" lon="4.97073">
        <ele>394.79998779297</ele>
        <time>2014-08-02T06:44:56.000Z</time>
      </trkpt>
      <trkpt lat="47.27979" lon="4.9708">
        <ele>395</ele>
        <time>2014-08-02T06:45:01.000Z</time>
      </trkpt>
      <trkpt lat="47.27978" lon="4.97082">
        <ele>395</ele>
        <time>2014-08-02T06:45:02.000Z</time>
      </trkpt>
      <trkpt lat="47.27977" lon="4.97083">
        <ele>395</ele>
        <time>2014-08-02T06:45:03.000Z</time>
      </trkpt>
      <trkpt lat="47.27975" lon="4.9709">
        <ele>395</ele>
        <time>2014-08-02T06:45:07.000Z</time>
      </trkpt>
      <trkpt lat="47.27974" lon="4.97092">
        <ele>395</ele>
        <time>2014-08-02T06:45:08.000Z</time>
      </trkpt>
      <trkpt lat="47.27974" lon="4.97094">
        <ele>395</ele>
        <time>2014-08-02T06:45:09.000Z</time>
      </trkpt>
      <trkpt lat="47.2797" lon="4.97105">
        <ele>395.20001220703</ele>
        <time>2014-08-02T06:45:16.000Z</time>
      </trkpt>
      <trkpt lat="47.27967" lon="4.97117">
        <ele>395.60000610352</ele>
        <time>2014-08-02T06:45:23.000Z</time>
      </trkpt>
      <trkpt lat="47.27962" lon="4.97128">
        <ele>396.20001220703</ele>
        <time>2014-08-02T06:45:30.000Z</time>
      </trkpt>
      <trkpt lat="47.27959" lon="4.97138">
        <ele>396.60000610352</ele>
        <time>2014-08-02T06:45:36.000Z</time>
      </trkpt>
      <trkpt lat="47.27957" lon="4.97141">
        <ele>396.79998779297</ele>
        <time>2014-08-02T06:45:38.000Z</time>
      </trkpt>
      <trkpt lat="47.2795" lon="4.97155">
        <ele>397.79998779297</ele>
        <time>2014-08-02T06:45:47.000Z</time>
      </trkpt>
      <trkpt lat="47.27946" lon="4.97164">
        <ele>398.39999389648</ele>
        <time>2014-08-02T06:45:53.000Z</time>
      </trkpt>
      <trkpt lat="47.2794" lon="4.97176">
        <ele>399.20001220703</ele>
        <time>2014-08-02T06:46:01.000Z</time>
      </trkpt>
      <trkpt lat="47.27935" lon="4.97187">
        <ele>399.79998779297</ele>
        <time>2014-08-02T06:46:08.000Z</time>
      </trkpt>
      <trkpt lat="47.2793" lon="4.97196">
        <ele>400.79998779297</ele>
        <time>2014-08-02T06:46:15.000Z</time>
      </trkpt>
      <trkpt lat="47.27923" lon="4.97206">
        <ele>402</ele>
        <time>2014-08-02T06:46:21.000Z</time>
      </trkpt>
      <trkpt lat="47.27913" lon="4.97216">
        <ele>404.20001220703</ele>
        <time>2014-08-02T06:46:30.000Z</time>
      </trkpt>
      <trkpt lat="47.27908" lon="4.97221">
        <ele>404.20001220703</ele>
        <time>2014-08-02T06:46:35.000Z</time>
      </trkpt>
      <trkpt lat="47.27899" lon="4.97228">
        <ele>404.39999389648</ele>
        <time>2014-08-02T06:46:43.000Z</time>
      </trkpt>
      <trkpt lat="47.27892" lon="4.97232">
        <ele>404.60000610352</ele>
        <time>2014-08-02T06:46:49.000Z</time>
      </trkpt>
      <trkpt lat="47.27883" lon="4.97239">
        <ele>405</ele>
        <time>2014-08-02T06:46:57.000Z</time>
      </trkpt>
      <trkpt lat="47.27875" lon="4.97246">
        <ele>405</ele>
        <time>2014-08-02T06:47:05.000Z</time>
      </trkpt>
      <trkpt lat="47.27868" lon="4.97253">
        <ele>405.20001220703</ele>
        <time>2014-08-02T06:47:11.000Z</time>
      </trkpt>
      <trkpt lat="47.27859" lon="4.97259">
        <ele>405.79998779297</ele>
        <time>2014-08-02T06:47:19.000Z</time>
      </trkpt>
      <trkpt lat="47.2785" lon="4.97266">
        <ele>406.39999389648</ele>
        <time>2014-08-02T06:47:26.000Z</time>
      </trkpt>
      <trkpt lat="47.27843" lon="4.9727">
        <ele>407</ele>
        <time>2014-08-02T06:47:33.000Z</time>
      </trkpt>
      <trkpt lat="47.27836" lon="4.97274">
        <ele>407.60000610352</ele>
        <time>2014-08-02T06:47:39.000Z</time>
      </trkpt>
      <trkpt lat="47.27825" lon="4.97276">
        <ele>408.20001220703</ele>
        <time>2014-08-02T06:47:46.000Z</time>
      </trkpt>
      <trkpt lat="47.27815" lon="4.97278">
        <ele>408.60000610352</ele>
        <time>2014-08-02T06:47:55.000Z</time>
      </trkpt>
      <trkpt lat="47.27811" lon="4.97279">
        <ele>408.60000610352</ele>
        <time>2014-08-02T06:47:59.000Z</time>
      </trkpt>
      <trkpt lat="47.27805" lon="4.97278">
        <ele>409</ele>
        <time>2014-08-02T06:48:05.000Z</time>
      </trkpt>
      <trkpt lat="47.27798" lon="4.97278">
        <ele>409.20001220703</ele>
        <time>2014-08-02T06:48:11.000Z</time>
      </trkpt>
      <trkpt lat="47.27795" lon="4.97279">
        <ele>409.20001220703</ele>
        <time>2014-08-02T06:48:26.000Z</time>
      </trkpt>
      <trkpt lat="47.27792" lon="4.97276">
        <ele>409.60000610352</ele>
        <time>2014-08-02T06:49:27.000Z</time>
      </trkpt>
      <trkpt lat="47.27797" lon="4.97278">
        <ele>409.39999389648</ele>
        <time>2014-08-02T06:49:32.000Z</time>
      </trkpt>
      <trkpt lat="47.27798" lon="4.97277">
        <ele>409.39999389648</ele>
        <time>2014-08-02T06:49:33.000Z</time>
      </trkpt>
      <trkpt lat="47.27804" lon="4.97277">
        <ele>409.20001220703</ele>
        <time>2014-08-02T06:49:39.000Z</time>
      </trkpt>
      <trkpt lat="47.27809" lon="4.97276">
        <ele>409</ele>
        <time>2014-08-02T06:49:43.000Z</time>
      </trkpt>
      <trkpt lat="47.27812" lon="4.97276">
        <ele>409</ele>
        <time>2014-08-02T06:49:49.000Z</time>
      </trkpt>
      <trkpt lat="47.2781" lon="4.97276">
        <ele>409</ele>
        <time>2014-08-02T06:49:57.000Z</time>
      </trkpt>
      <trkpt lat="47.27806" lon="4.97277">
        <ele>409</ele>
        <time>2014-08-02T06:50:04.000Z</time>
      </trkpt>
      <trkpt lat="47.27802" lon="4.97277">
        <ele>409.20001220703</ele>
        <time>2014-08-02T06:50:08.000Z</time>
      </trkpt>
      <trkpt lat="47.27792" lon="4.97274">
        <ele>409.79998779297</ele>
        <time>2014-08-02T06:50:18.000Z</time>
      </trkpt>
      <trkpt lat="47.27784" lon="4.97271">
        <ele>410.39999389648</ele>
        <time>2014-08-02T06:50:25.000Z</time>
      </trkpt>
      <trkpt lat="47.27775" lon="4.97267">
        <ele>411</ele>
        <time>2014-08-02T06:50:32.000Z</time>
      </trkpt>
      <trkpt lat="47.27766" lon="4.9726">
        <ele>412</ele>
        <time>2014-08-02T06:50:40.000Z</time>
      </trkpt>
      <trkpt lat="47.27755" lon="4.97247">
        <ele>413.39999389648</ele>
        <time>2014-08-02T06:50:50.000Z</time>
      </trkpt>
      <trkpt lat="47.27752" lon="4.97244">
        <ele>413.79998779297</ele>
        <time>2014-08-02T06:50:53.000Z</time>
      </trkpt>
      <trkpt lat="47.27746" lon="4.97236">
        <ele>414.60000610352</ele>
        <time>2014-08-02T06:51:00.000Z</time>
      </trkpt>
      <trkpt lat="47.27737" lon="4.97225">
        <ele>415.39999389648</ele>
        <time>2014-08-02T06:51:09.000Z</time>
      </trkpt>
      <trkpt lat="47.27731" lon="4.97218">
        <ele>416</ele>
        <time>2014-08-02T06:51:15.000Z</time>
      </trkpt>
      <trkpt lat="47.27727" lon="4.97205">
        <ele>417</ele>
        <time>2014-08-02T06:51:24.000Z</time>
      </trkpt>
      <trkpt lat="47.27725" lon="4.97189">
        <ele>418.39999389648</ele>
        <time>2014-08-02T06:51:33.000Z</time>
      </trkpt>
      <trkpt lat="47.27725" lon="4.9719">
        <ele>418.20001220703</ele>
        <time>2014-08-02T06:51:39.000Z</time>
      </trkpt>
      <trkpt lat="47.27726" lon="4.97202">
        <ele>417.20001220703</ele>
        <time>2014-08-02T06:51:45.000Z</time>
      </trkpt>
      <trkpt lat="47.27726" lon="4.97212">
        <ele>416.39999389648</ele>
        <time>2014-08-02T06:51:51.000Z</time>
      </trkpt>
      <trkpt lat="47.27721" lon="4.97212">
        <ele>416.39999389648</ele>
        <time>2014-08-02T06:51:56.000Z</time>
      </trkpt>
      <trkpt lat="47.27719" lon="4.9721">
        <ele>416.60000610352</ele>
        <time>2014-08-02T06:51:57.000Z</time>
      </trkpt>
      <trkpt lat="47.2771" lon="4.972">
        <ele>417.20001220703</ele>
        <time>2014-08-02T06:52:08.000Z</time>
      </trkpt>
      <trkpt lat="47.27702" lon="4.97194">
        <ele>417.60000610352</ele>
        <time>2014-08-02T06:52:15.000Z</time>
      </trkpt>
      <trkpt lat="47.27693" lon="4.97186">
        <ele>418.20001220703</ele>
        <time>2014-08-02T06:52:24.000Z</time>
      </trkpt>
      <trkpt lat="47.27682" lon="4.97178">
        <ele>418.79998779297</ele>
        <time>2014-08-02T06:52:33.000Z</time>
      </trkpt>
      <trkpt lat="47.2768" lon="4.97177">
        <ele>418.79998779297</ele>
        <time>2014-08-02T06:52:35.000Z</time>
      </trkpt>
      <trkpt lat="47.27681" lon="4.97175">
        <ele>419</ele>
        <time>2014-08-02T06:52:39.000Z</time>
      </trkpt>
      <trkpt lat="47.27679" lon="4.97176">
        <ele>418.79998779297</ele>
        <time>2014-08-02T06:52:44.000Z</time>
      </trkpt>
      <trkpt lat="47.2767" lon="4.9717">
        <ele>419.20001220703</ele>
        <time>2014-08-02T06:52:50.000Z</time>
      </trkpt>
      <trkpt lat="47.27656" lon="4.97158">
        <ele>420</ele>
        <time>2014-08-02T06:53:01.000Z</time>
      </trkpt>
      <trkpt lat="47.27648" lon="4.97147">
        <ele>420.79998779297</ele>
        <time>2014-08-02T06:53:10.000Z</time>
      </trkpt>
      <trkpt lat="47.27641" lon="4.97134">
        <ele>421.79998779297</ele>
        <time>2014-08-02T06:53:19.000Z</time>
      </trkpt>
      <trkpt lat="47.27641" lon="4.97132">
        <ele>421.79998779297</ele>
        <time>2014-08-02T06:53:20.000Z</time>
      </trkpt>
      <trkpt lat="47.2764" lon="4.97128">
        <ele>422.20001220703</ele>
        <time>2014-08-02T06:53:23.000Z</time>
      </trkpt>
      <trkpt lat="47.27638" lon="4.9712">
        <ele>422.79998779297</ele>
        <time>2014-08-02T06:53:28.000Z</time>
      </trkpt>
      <trkpt lat="47.27634" lon="4.97112">
        <ele>423.39999389648</ele>
        <time>2014-08-02T06:53:35.000Z</time>
      </trkpt>
      <trkpt lat="47.27634" lon="4.97111">
        <ele>423.39999389648</ele>
        <time>2014-08-02T06:53:36.000Z</time>
      </trkpt>
      <trkpt lat="47.27632" lon="4.97107">
        <ele>423.79998779297</ele>
        <time>2014-08-02T06:53:39.000Z</time>
      </trkpt>
      <trkpt lat="47.27629" lon="4.97102">
        <ele>424</ele>
        <time>2014-08-02T06:53:43.000Z</time>
      </trkpt>
      <trkpt lat="47.27624" lon="4.97091">
        <ele>424.79998779297</ele>
        <time>2014-08-02T06:53:51.000Z</time>
      </trkpt>
      <trkpt lat="47.27624" lon="4.97091">
        <ele>424.79998779297</ele>
        <time>2014-08-02T06:53:52.000Z</time>
      </trkpt>
      <trkpt lat="47.27619" lon="4.97083">
        <ele>425.39999389648</ele>
        <time>2014-08-02T06:53:59.000Z</time>
      </trkpt>
      <trkpt lat="47.27612" lon="4.97075">
        <ele>426</ele>
        <time>2014-08-02T06:54:06.000Z</time>
      </trkpt>
      <trkpt lat="47.27603" lon="4.97064">
        <ele>426.60000610352</ele>
        <time>2014-08-02T06:54:14.000Z</time>
      </trkpt>
      <trkpt lat="47.27598" lon="4.97056">
        <ele>427</ele>
        <time>2014-08-02T06:54:20.000Z</time>
      </trkpt>
      <trkpt lat="47.27598" lon="4.97055">
        <ele>427</ele>
        <time>2014-08-02T06:54:21.000Z</time>
      </trkpt>
      <trkpt lat="47.27594" lon="4.97049">
        <ele>427.39999389648</ele>
        <time>2014-08-02T06:54:25.000Z</time>
      </trkpt>
      <trkpt lat="47.27594" lon="4.97042">
        <ele>427.60000610352</ele>
        <time>2014-08-02T06:54:29.000Z</time>
      </trkpt>
      <trkpt lat="47.27595" lon="4.97038">
        <ele>427.79998779297</ele>
        <time>2014-08-02T06:54:32.000Z</time>
      </trkpt>
      <trkpt lat="47.27594" lon="4.97035">
        <ele>428</ele>
        <time>2014-08-02T06:54:33.000Z</time>
      </trkpt>
      <trkpt lat="47.27591" lon="4.97023">
        <ele>428.60000610352</ele>
        <time>2014-08-02T06:54:40.000Z</time>
      </trkpt>
      <trkpt lat="47.27584" lon="4.96999">
        <ele>430</ele>
        <time>2014-08-02T06:54:54.000Z</time>
      </trkpt>
      <trkpt lat="47.27583" lon="4.96997">
        <ele>430</ele>
        <time>2014-08-02T06:54:55.000Z</time>
      </trkpt>
      <trkpt lat="47.27578" lon="4.96984">
        <ele>430.79998779297</ele>
        <time>2014-08-02T06:55:02.000Z</time>
      </trkpt>
      <trkpt lat="47.2757" lon="4.96977">
        <ele>431.39999389648</ele>
        <time>2014-08-02T06:55:09.000Z</time>
      </trkpt>
      <trkpt lat="47.27564" lon="4.96974">
        <ele>431.60000610352</ele>
        <time>2014-08-02T06:55:14.000Z</time>
      </trkpt>
      <trkpt lat="47.27556" lon="4.96963">
        <ele>432.20001220703</ele>
        <time>2014-08-02T06:55:23.000Z</time>
      </trkpt>
      <trkpt lat="47.27552" lon="4.96955">
        <ele>432.60000610352</ele>
        <time>2014-08-02T06:55:28.000Z</time>
      </trkpt>
      <trkpt lat="47.27546" lon="4.96943">
        <ele>433</ele>
        <time>2014-08-02T06:55:35.000Z</time>
      </trkpt>
      <trkpt lat="47.27542" lon="4.96933">
        <ele>433.20001220703</ele>
        <time>2014-08-02T06:55:40.000Z</time>
      </trkpt>
      <trkpt lat="47.27541" lon="4.96932">
        <ele>433.20001220703</ele>
        <time>2014-08-02T06:55:41.000Z</time>
      </trkpt>
      <trkpt lat="47.27535" lon="4.96925">
        <ele>433.39999389648</ele>
        <time>2014-08-02T06:55:47.000Z</time>
      </trkpt>
      <trkpt lat="47.27534" lon="4.96924">
        <ele>433.60000610352</ele>
        <time>2014-08-02T06:55:48.000Z</time>
      </trkpt>
      <trkpt lat="47.27531" lon="4.96922">
        <ele>433.60000610352</ele>
        <time>2014-08-02T06:55:50.000Z</time>
      </trkpt>
      <trkpt lat="47.27526" lon="4.96919">
        <ele>433.79998779297</ele>
        <time>2014-08-02T06:55:55.000Z</time>
      </trkpt>
      <trkpt lat="47.27515" lon="4.96912">
        <ele>434.20001220703</ele>
        <time>2014-08-02T06:56:03.000Z</time>
      </trkpt>
      <trkpt lat="47.27513" lon="4.9691">
        <ele>434.20001220703</ele>
        <time>2014-08-02T06:56:05.000Z</time>
      </trkpt>
      <trkpt lat="47.27506" lon="4.96903">
        <ele>434.39999389648</ele>
        <time>2014-08-02T06:56:11.000Z</time>
      </trkpt>
      <trkpt lat="47.27499" lon="4.969">
        <ele>434.60000610352</ele>
        <time>2014-08-02T06:56:16.000Z</time>
      </trkpt>
      <trkpt lat="47.27498" lon="4.96899">
        <ele>434.60000610352</ele>
        <time>2014-08-02T06:56:18.000Z</time>
      </trkpt>
      <trkpt lat="47.27487" lon="4.96893">
        <ele>435.20001220703</ele>
        <time>2014-08-02T06:56:26.000Z</time>
      </trkpt>
      <trkpt lat="47.27481" lon="4.96888">
        <ele>435.60000610352</ele>
        <time>2014-08-02T06:56:31.000Z</time>
      </trkpt>
      <trkpt lat="47.27473" lon="4.96883">
        <ele>436</ele>
        <time>2014-08-02T06:56:37.000Z</time>
      </trkpt>
      <trkpt lat="47.2747" lon="4.96882">
        <ele>436.20001220703</ele>
        <time>2014-08-02T06:56:39.000Z</time>
      </trkpt>
      <trkpt lat="47.27463" lon="4.96877">
        <ele>436.60000610352</ele>
        <time>2014-08-02T06:56:45.000Z</time>
      </trkpt>
      <trkpt lat="47.27458" lon="4.96873">
        <ele>437</ele>
        <time>2014-08-02T06:56:51.000Z</time>
      </trkpt>
      <trkpt lat="47.2745" lon="4.96871">
        <ele>437.39999389648</ele>
        <time>2014-08-02T06:57:24.000Z</time>
      </trkpt>
      <trkpt lat="47.2745" lon="4.9687">
        <ele>437.39999389648</ele>
        <time>2014-08-02T06:57:36.000Z</time>
      </trkpt>
      <trkpt lat="47.27448" lon="4.96871">
        <ele>437.39999389648</ele>
        <time>2014-08-02T06:57:43.000Z</time>
      </trkpt>
      <trkpt lat="47.27447" lon="4.96857">
        <ele>437.79998779297</ele>
        <time>2014-08-02T06:58:09.000Z</time>
      </trkpt>
      <trkpt lat="47.27445" lon="4.96858">
        <ele>437.79998779297</ele>
        <time>2014-08-02T06:58:50.000Z</time>
      </trkpt>
      <trkpt lat="47.27446" lon="4.96857">
        <ele>437.79998779297</ele>
        <time>2014-08-02T06:58:51.000Z</time>
      </trkpt>
      <trkpt lat="47.27449" lon="4.96849">
        <ele>437.79998779297</ele>
        <time>2014-08-02T06:58:57.000Z</time>
      </trkpt>
      <trkpt lat="47.27451" lon="4.96843">
        <ele>438</ele>
        <time>2014-08-02T06:59:01.000Z</time>
      </trkpt>
      <trkpt lat="47.27453" lon="4.96837">
        <ele>438</ele>
        <time>2014-08-02T06:59:16.000Z</time>
      </trkpt>
      <trkpt lat="47.27456" lon="4.96833">
        <ele>438</ele>
        <time>2014-08-02T06:59:24.000Z</time>
      </trkpt>
      <trkpt lat="47.27457" lon="4.96827">
        <ele>438.39999389648</ele>
        <time>2014-08-02T06:59:28.000Z</time>
      </trkpt>
      <trkpt lat="47.27459" lon="4.96822">
        <ele>438.60000610352</ele>
        <time>2014-08-02T06:59:32.000Z</time>
      </trkpt>
      <trkpt lat="47.27459" lon="4.96815">
        <ele>439</ele>
        <time>2014-08-02T06:59:41.000Z</time>
      </trkpt>
      <trkpt lat="47.27458" lon="4.96817">
        <ele>439</ele>
        <time>2014-08-02T06:59:46.000Z</time>
      </trkpt>
      <trkpt lat="47.27458" lon="4.96824">
        <ele>438.60000610352</ele>
        <time>2014-08-02T06:59:50.000Z</time>
      </trkpt>
      <trkpt lat="47.27458" lon="4.96828">
        <ele>438.20001220703</ele>
        <time>2014-08-02T06:59:57.000Z</time>
      </trkpt>
      <trkpt lat="47.27455" lon="4.96837">
        <ele>437.79998779297</ele>
        <time>2014-08-02T07:00:03.000Z</time>
      </trkpt>
      <trkpt lat="47.27452" lon="4.96848">
        <ele>437.79998779297</ele>
        <time>2014-08-02T07:00:10.000Z</time>
      </trkpt>
      <trkpt lat="47.27449" lon="4.96852">
        <ele>437.79998779297</ele>
        <time>2014-08-02T07:00:14.000Z</time>
      </trkpt>
      <trkpt lat="47.27448" lon="4.9686">
        <ele>437.60000610352</ele>
        <time>2014-08-02T07:00:19.000Z</time>
      </trkpt>
      <trkpt lat="47.27446" lon="4.96871">
        <ele>437.39999389648</ele>
        <time>2014-08-02T07:00:25.000Z</time>
      </trkpt>
      <trkpt lat="47.27445" lon="4.9688">
        <ele>437.39999389648</ele>
        <time>2014-08-02T07:00:32.000Z</time>
      </trkpt>
      <trkpt lat="47.27445" lon="4.96881">
        <ele>437.39999389648</ele>
        <time>2014-08-02T07:00:33.000Z</time>
      </trkpt>
      <trkpt lat="47.27442" lon="4.96886">
        <ele>437.39999389648</ele>
        <time>2014-08-02T07:00:37.000Z</time>
      </trkpt>
      <trkpt lat="47.27441" lon="4.96889">
        <ele>437.39999389648</ele>
        <time>2014-08-02T07:00:40.000Z</time>
      </trkpt>
      <trkpt lat="47.27439" lon="4.96896">
        <ele>437.39999389648</ele>
        <time>2014-08-02T07:00:44.000Z</time>
      </trkpt>
      <trkpt lat="47.27437" lon="4.96915">
        <ele>437</ele>
        <time>2014-08-02T07:00:54.000Z</time>
      </trkpt>
      <trkpt lat="47.27436" lon="4.9692">
        <ele>436.79998779297</ele>
        <time>2014-08-02T07:00:57.000Z</time>
      </trkpt>
      <trkpt lat="47.27434" lon="4.96929">
        <ele>436.60000610352</ele>
        <time>2014-08-02T07:01:03.000Z</time>
      </trkpt>
      <trkpt lat="47.27432" lon="4.96941">
        <ele>436.20001220703</ele>
        <time>2014-08-02T07:01:09.000Z</time>
      </trkpt>
      <trkpt lat="47.27431" lon="4.96943">
        <ele>436.20001220703</ele>
        <time>2014-08-02T07:01:10.000Z</time>
      </trkpt>
      <trkpt lat="47.27429" lon="4.96949">
        <ele>436</ele>
        <time>2014-08-02T07:01:13.000Z</time>
      </trkpt>
      <trkpt lat="47.27426" lon="4.96958">
        <ele>435.60000610352</ele>
        <time>2014-08-02T07:01:20.000Z</time>
      </trkpt>
      <trkpt lat="47.27426" lon="4.9696">
        <ele>435.60000610352</ele>
        <time>2014-08-02T07:01:21.000Z</time>
      </trkpt>
      <trkpt lat="47.27426" lon="4.96963">
        <ele>435.60000610352</ele>
        <time>2014-08-02T07:01:23.000Z</time>
      </trkpt>
      <trkpt lat="47.27423" lon="4.96972">
        <ele>435.39999389648</ele>
        <time>2014-08-02T07:01:31.000Z</time>
      </trkpt>
      <trkpt lat="47.27421" lon="4.9698">
        <ele>435.20001220703</ele>
        <time>2014-08-02T07:01:37.000Z</time>
      </trkpt>
      <trkpt lat="47.27419" lon="4.96994">
        <ele>434.79998779297</ele>
        <time>2014-08-02T07:01:45.000Z</time>
      </trkpt>
      <trkpt lat="47.27418" lon="4.96996">
        <ele>434.60000610352</ele>
        <time>2014-08-02T07:01:47.000Z</time>
      </trkpt>
      <trkpt lat="47.27415" lon="4.97007">
        <ele>434.20001220703</ele>
        <time>2014-08-02T07:01:51.000Z</time>
      </trkpt>
      <trkpt lat="47.27413" lon="4.97011">
        <ele>434</ele>
        <time>2014-08-02T07:01:54.000Z</time>
      </trkpt>
      <trkpt lat="47.2741" lon="4.97022">
        <ele>433.60000610352</ele>
        <time>2014-08-02T07:01:59.000Z</time>
      </trkpt>
      <trkpt lat="47.27407" lon="4.97031">
        <ele>433</ele>
        <time>2014-08-02T07:02:04.000Z</time>
      </trkpt>
      <trkpt lat="47.27406" lon="4.97033">
        <ele>433</ele>
        <time>2014-08-02T07:02:05.000Z</time>
      </trkpt>
      <trkpt lat="47.27404" lon="4.97038">
        <ele>432.79998779297</ele>
        <time>2014-08-02T07:02:14.000Z</time>
      </trkpt>
      <trkpt lat="47.27403" lon="4.97043">
        <ele>432.39999389648</ele>
        <time>2014-08-02T07:02:20.000Z</time>
      </trkpt>
      <trkpt lat="47.274" lon="4.97053">
        <ele>431.39999389648</ele>
        <time>2014-08-02T07:02:26.000Z</time>
      </trkpt>
      <trkpt lat="47.27398" lon="4.9706">
        <ele>431</ele>
        <time>2014-08-02T07:02:30.000Z</time>
      </trkpt>
      <trkpt lat="47.27395" lon="4.97074">
        <ele>429.79998779297</ele>
        <time>2014-08-02T07:02:38.000Z</time>
      </trkpt>
      <trkpt lat="47.27394" lon="4.97081">
        <ele>429.20001220703</ele>
        <time>2014-08-02T07:02:44.000Z</time>
      </trkpt>
      <trkpt lat="47.27394" lon="4.97084">
        <ele>429</ele>
        <time>2014-08-02T07:02:45.000Z</time>
      </trkpt>
      <trkpt lat="47.2739" lon="4.97102">
        <ele>427.60000610352</ele>
        <time>2014-08-02T07:02:55.000Z</time>
      </trkpt>
      <trkpt lat="47.27388" lon="4.97112">
        <ele>427</ele>
        <time>2014-08-02T07:03:01.000Z</time>
      </trkpt>
      <trkpt lat="47.27384" lon="4.97122">
        <ele>426.39999389648</ele>
        <time>2014-08-02T07:03:07.000Z</time>
      </trkpt>
      <trkpt lat="47.27381" lon="4.97133">
        <ele>425.79998779297</ele>
        <time>2014-08-02T07:03:13.000Z</time>
      </trkpt>
      <trkpt lat="47.27377" lon="4.97145">
        <ele>425.20001220703</ele>
        <time>2014-08-02T07:03:20.000Z</time>
      </trkpt>
      <trkpt lat="47.27375" lon="4.97148">
        <ele>425</ele>
        <time>2014-08-02T07:03:21.000Z</time>
      </trkpt>
      <trkpt lat="47.27374" lon="4.97156">
        <ele>424.60000610352</ele>
        <time>2014-08-02T07:03:26.000Z</time>
      </trkpt>
      <trkpt lat="47.27372" lon="4.9716">
        <ele>424.39999389648</ele>
        <time>2014-08-02T07:03:28.000Z</time>
      </trkpt>
      <trkpt lat="47.27372" lon="4.97161">
        <ele>424.20001220703</ele>
        <time>2014-08-02T07:03:34.000Z</time>
      </trkpt>
      <trkpt lat="47.27372" lon="4.97164">
        <ele>424.20001220703</ele>
        <time>2014-08-02T07:03:51.000Z</time>
      </trkpt>
      <trkpt lat="47.27368" lon="4.97176">
        <ele>423</ele>
        <time>2014-08-02T07:04:00.000Z</time>
      </trkpt>
      <trkpt lat="47.27367" lon="4.9718">
        <ele>422.60000610352</ele>
        <time>2014-08-02T07:04:02.000Z</time>
      </trkpt>
      <trkpt lat="47.27365" lon="4.97188">
        <ele>421.79998779297</ele>
        <time>2014-08-02T07:04:07.000Z</time>
      </trkpt>
      <trkpt lat="47.27364" lon="4.97196">
        <ele>421</ele>
        <time>2014-08-02T07:04:11.000Z</time>
      </trkpt>
      <trkpt lat="47.27363" lon="4.972">
        <ele>420.60000610352</ele>
        <time>2014-08-02T07:04:16.000Z</time>
      </trkpt>
      <trkpt lat="47.27359" lon="4.97207">
        <ele>419.79998779297</ele>
        <time>2014-08-02T07:04:33.000Z</time>
      </trkpt>
      <trkpt lat="47.27354" lon="4.97219">
        <ele>418.79998779297</ele>
        <time>2014-08-02T07:04:40.000Z</time>
      </trkpt>
      <trkpt lat="47.27353" lon="4.97228">
        <ele>418</ele>
        <time>2014-08-02T07:04:47.000Z</time>
      </trkpt>
      <trkpt lat="47.27353" lon="4.97234">
        <ele>417.39999389648</ele>
        <time>2014-08-02T07:04:51.000Z</time>
      </trkpt>
      <trkpt lat="47.2735" lon="4.97243">
        <ele>416.60000610352</ele>
        <time>2014-08-02T07:04:57.000Z</time>
      </trkpt>
      <trkpt lat="47.2735" lon="4.97246">
        <ele>416.39999389648</ele>
        <time>2014-08-02T07:04:59.000Z</time>
      </trkpt>
      <trkpt lat="47.27347" lon="4.97253">
        <ele>415.79998779297</ele>
        <time>2014-08-02T07:05:04.000Z</time>
      </trkpt>
      <trkpt lat="47.27344" lon="4.97266">
        <ele>414.60000610352</ele>
        <time>2014-08-02T07:05:13.000Z</time>
      </trkpt>
      <trkpt lat="47.2734" lon="4.97279">
        <ele>413.39999389648</ele>
        <time>2014-08-02T07:05:23.000Z</time>
      </trkpt>
      <trkpt lat="47.27339" lon="4.9728">
        <ele>413.39999389648</ele>
        <time>2014-08-02T07:05:24.000Z</time>
      </trkpt>
      <trkpt lat="47.27337" lon="4.97283">
        <ele>413</ele>
        <time>2014-08-02T07:05:29.000Z</time>
      </trkpt>
      <trkpt lat="47.27337" lon="4.97286">
        <ele>412.79998779297</ele>
        <time>2014-08-02T07:05:35.000Z</time>
      </trkpt>
      <trkpt lat="47.27338" lon="4.97288">
        <ele>412.79998779297</ele>
        <time>2014-08-02T07:06:00.000Z</time>
      </trkpt>
      <trkpt lat="47.27338" lon="4.9729">
        <ele>412.60000610352</ele>
        <time>2014-08-02T07:06:13.000Z</time>
      </trkpt>
      <trkpt lat="47.27336" lon="4.97294">
        <ele>412</ele>
        <time>2014-08-02T07:06:18.000Z</time>
      </trkpt>
      <trkpt lat="47.27334" lon="4.97299">
        <ele>411.39999389648</ele>
        <time>2014-08-02T07:06:23.000Z</time>
      </trkpt>
      <trkpt lat="47.27333" lon="4.97306">
        <ele>410.79998779297</ele>
        <time>2014-08-02T07:06:30.000Z</time>
      </trkpt>
      <trkpt lat="47.27333" lon="4.97307">
        <ele>410.60000610352</ele>
        <time>2014-08-02T07:06:31.000Z</time>
      </trkpt>
      <trkpt lat="47.27332" lon="4.9731">
        <ele>410.39999389648</ele>
        <time>2014-08-02T07:06:33.000Z</time>
      </trkpt>
      <trkpt lat="47.27331" lon="4.97323">
        <ele>409</ele>
        <time>2014-08-02T07:06:39.000Z</time>
      </trkpt>
      <trkpt lat="47.27328" lon="4.97332">
        <ele>407.79998779297</ele>
        <time>2014-08-02T07:06:44.000Z</time>
      </trkpt>
      <trkpt lat="47.27327" lon="4.97338">
        <ele>407.20001220703</ele>
        <time>2014-08-02T07:06:48.000Z</time>
      </trkpt>
      <trkpt lat="47.27324" lon="4.97344">
        <ele>406.39999389648</ele>
        <time>2014-08-02T07:06:51.000Z</time>
      </trkpt>
      <trkpt lat="47.27324" lon="4.97345">
        <ele>406.39999389648</ele>
        <time>2014-08-02T07:06:53.000Z</time>
      </trkpt>
      <trkpt lat="47.27324" lon="4.97346">
        <ele>406.20001220703</ele>
        <time>2014-08-02T07:06:54.000Z</time>
      </trkpt>
      <trkpt lat="47.27323" lon="4.97355">
        <ele>405.39999389648</ele>
        <time>2014-08-02T07:06:58.000Z</time>
      </trkpt>
      <trkpt lat="47.2732" lon="4.97365">
        <ele>404.20001220703</ele>
        <time>2014-08-02T07:07:03.000Z</time>
      </trkpt>
      <trkpt lat="47.27319" lon="4.9737">
        <ele>403.39999389648</ele>
        <time>2014-08-02T07:07:06.000Z</time>
      </trkpt>
      <trkpt lat="47.27315" lon="4.97385">
        <ele>401</ele>
        <time>2014-08-02T07:07:14.000Z</time>
      </trkpt>
      <trkpt lat="47.27313" lon="4.97394">
        <ele>399.39999389648</ele>
        <time>2014-08-02T07:07:19.000Z</time>
      </trkpt>
      <trkpt lat="47.27311" lon="4.97398">
        <ele>398.60000610352</ele>
        <time>2014-08-02T07:07:23.000Z</time>
      </trkpt>
      <trkpt lat="47.27307" lon="4.97408">
        <ele>396.79998779297</ele>
        <time>2014-08-02T07:07:30.000Z</time>
      </trkpt>
      <trkpt lat="47.27307" lon="4.9741">
        <ele>396.39999389648</ele>
        <time>2014-08-02T07:07:31.000Z</time>
      </trkpt>
      <trkpt lat="47.27305" lon="4.97424">
        <ele>394.20001220703</ele>
        <time>2014-08-02T07:07:39.000Z</time>
      </trkpt>
      <trkpt lat="47.27303" lon="4.97428">
        <ele>393.39999389648</ele>
        <time>2014-08-02T07:07:41.000Z</time>
      </trkpt>
      <trkpt lat="47.27301" lon="4.9743">
        <ele>393</ele>
        <time>2014-08-02T07:07:51.000Z</time>
      </trkpt>
      <trkpt lat="47.273" lon="4.97435">
        <ele>392.20001220703</ele>
        <time>2014-08-02T07:08:01.000Z</time>
      </trkpt>
      <trkpt lat="47.273" lon="4.97439">
        <ele>391.60000610352</ele>
        <time>2014-08-02T07:08:08.000Z</time>
      </trkpt>
      <trkpt lat="47.27298" lon="4.97445">
        <ele>390.39999389648</ele>
        <time>2014-08-02T07:08:14.000Z</time>
      </trkpt>
      <trkpt lat="47.27296" lon="4.97453">
        <ele>389</ele>
        <time>2014-08-02T07:08:21.000Z</time>
      </trkpt>
      <trkpt lat="47.27293" lon="4.97464">
        <ele>387</ele>
        <time>2014-08-02T07:08:29.000Z</time>
      </trkpt>
      <trkpt lat="47.2729" lon="4.97473">
        <ele>385.20001220703</ele>
        <time>2014-08-02T07:08:35.000Z</time>
      </trkpt>
      <trkpt lat="47.27288" lon="4.97484">
        <ele>383.20001220703</ele>
        <time>2014-08-02T07:08:41.000Z</time>
      </trkpt>
      <trkpt lat="47.27286" lon="4.97493">
        <ele>381.39999389648</ele>
        <time>2014-08-02T07:08:47.000Z</time>
      </trkpt>
      <trkpt lat="47.27284" lon="4.97504">
        <ele>379.39999389648</ele>
        <time>2014-08-02T07:08:54.000Z</time>
      </trkpt>
      <trkpt lat="47.27284" lon="4.97505">
        <ele>379.20001220703</ele>
        <time>2014-08-02T07:08:57.000Z</time>
      </trkpt>
      <trkpt lat="47.27283" lon="4.97508">
        <ele>378.60000610352</ele>
        <time>2014-08-02T07:08:59.000Z</time>
      </trkpt>
      <trkpt lat="47.27277" lon="4.9752">
        <ele>376.39999389648</ele>
        <time>2014-08-02T07:09:08.000Z</time>
      </trkpt>
      <trkpt lat="47.27274" lon="4.97527">
        <ele>374.79998779297</ele>
        <time>2014-08-02T07:09:14.000Z</time>
      </trkpt>
      <trkpt lat="47.27272" lon="4.97531">
        <ele>374.20001220703</ele>
        <time>2014-08-02T07:09:21.000Z</time>
      </trkpt>
      <trkpt lat="47.2727" lon="4.97539">
        <ele>372.60000610352</ele>
        <time>2014-08-02T07:09:26.000Z</time>
      </trkpt>
      <trkpt lat="47.27268" lon="4.97544">
        <ele>371.79998779297</ele>
        <time>2014-08-02T07:09:32.000Z</time>
      </trkpt>
      <trkpt lat="47.27271" lon="4.97537">
        <ele>373</ele>
        <time>2014-08-02T07:09:36.000Z</time>
      </trkpt>
      <trkpt lat="47.27271" lon="4.97535">
        <ele>373.39999389648</ele>
        <time>2014-08-02T07:09:38.000Z</time>
      </trkpt>
      <trkpt lat="47.27266" lon="4.97533">
        <ele>373.20001220703</ele>
        <time>2014-08-02T07:09:44.000Z</time>
      </trkpt>
      <trkpt lat="47.2726" lon="4.97536">
        <ele>372.20001220703</ele>
        <time>2014-08-02T07:09:49.000Z</time>
      </trkpt>
      <trkpt lat="47.27252" lon="4.97539">
        <ele>371</ele>
        <time>2014-08-02T07:09:55.000Z</time>
      </trkpt>
      <trkpt lat="47.27246" lon="4.97542">
        <ele>370</ele>
        <time>2014-08-02T07:10:01.000Z</time>
      </trkpt>
      <trkpt lat="47.27245" lon="4.97542">
        <ele>369.79998779297</ele>
        <time>2014-08-02T07:10:02.000Z</time>
      </trkpt>
      <trkpt lat="47.27239" lon="4.97545">
        <ele>368.79998779297</ele>
        <time>2014-08-02T07:10:07.000Z</time>
      </trkpt>
      <trkpt lat="47.27231" lon="4.97552">
        <ele>367</ele>
        <time>2014-08-02T07:10:14.000Z</time>
      </trkpt>
      <trkpt lat="47.27223" lon="4.97559">
        <ele>365.39999389648</ele>
        <time>2014-08-02T07:10:20.000Z</time>
      </trkpt>
      <trkpt lat="47.27217" lon="4.97567">
        <ele>363.60000610352</ele>
        <time>2014-08-02T07:10:27.000Z</time>
      </trkpt>
      <trkpt lat="47.27213" lon="4.97573">
        <ele>362.60000610352</ele>
        <time>2014-08-02T07:10:32.000Z</time>
      </trkpt>
      <trkpt lat="47.27212" lon="4.97574">
        <ele>362.20001220703</ele>
        <time>2014-08-02T07:10:33.000Z</time>
      </trkpt>
      <trkpt lat="47.27205" lon="4.97581">
        <ele>360.79998779297</ele>
        <time>2014-08-02T07:10:39.000Z</time>
      </trkpt>
      <trkpt lat="47.27199" lon="4.97587">
        <ele>359.20001220703</ele>
        <time>2014-08-02T07:10:45.000Z</time>
      </trkpt>
      <trkpt lat="47.27193" lon="4.97591">
        <ele>358</ele>
        <time>2014-08-02T07:10:50.000Z</time>
      </trkpt>
      <trkpt lat="47.27184" lon="4.97597">
        <ele>356.20001220703</ele>
        <time>2014-08-02T07:10:57.000Z</time>
      </trkpt>
      <trkpt lat="47.27175" lon="4.97601">
        <ele>354.39999389648</ele>
        <time>2014-08-02T07:11:04.000Z</time>
      </trkpt>
      <trkpt lat="47.27166" lon="4.97606">
        <ele>352.60000610352</ele>
        <time>2014-08-02T07:11:10.000Z</time>
      </trkpt>
      <trkpt lat="47.27159" lon="4.97609">
        <ele>351.60000610352</ele>
        <time>2014-08-02T07:11:16.000Z</time>
      </trkpt>
      <trkpt lat="47.2715" lon="4.97611">
        <ele>350.60000610352</ele>
        <time>2014-08-02T07:11:21.000Z</time>
      </trkpt>
      <trkpt lat="47.27148" lon="4.97612">
        <ele>350.39999389648</ele>
        <time>2014-08-02T07:11:22.000Z</time>
      </trkpt>
      <trkpt lat="47.27136" lon="4.97616">
        <ele>349.39999389648</ele>
        <time>2014-08-02T07:11:31.000Z</time>
      </trkpt>
      <trkpt lat="47.27128" lon="4.97619">
        <ele>348.79998779297</ele>
        <time>2014-08-02T07:11:37.000Z</time>
      </trkpt>
      <trkpt lat="47.27118" lon="4.97623">
        <ele>348</ele>
        <time>2014-08-02T07:11:44.000Z</time>
      </trkpt>
      <trkpt lat="47.27111" lon="4.97629">
        <ele>347.20001220703</ele>
        <time>2014-08-02T07:11:50.000Z</time>
      </trkpt>
      <trkpt lat="47.27103" lon="4.97636">
        <ele>346.39999389648</ele>
        <time>2014-08-02T07:11:57.000Z</time>
      </trkpt>
      <trkpt lat="47.27096" lon="4.97639">
        <ele>345.79998779297</ele>
        <time>2014-08-02T07:12:02.000Z</time>
      </trkpt>
      <trkpt lat="47.2709" lon="4.97641">
        <ele>345.20001220703</ele>
        <time>2014-08-02T07:12:06.000Z</time>
      </trkpt>
      <trkpt lat="47.2708" lon="4.97644">
        <ele>344.20001220703</ele>
        <time>2014-08-02T07:12:14.000Z</time>
      </trkpt>
      <trkpt lat="47.27079" lon="4.97644">
        <ele>344</ele>
        <time>2014-08-02T07:12:15.000Z</time>
      </trkpt>
      <trkpt lat="47.27074" lon="4.97647">
        <ele>343.20001220703</ele>
        <time>2014-08-02T07:12:20.000Z</time>
      </trkpt>
      <trkpt lat="47.27072" lon="4.97649">
        <ele>342.79998779297</ele>
        <time>2014-08-02T07:12:22.000Z</time>
      </trkpt>
      <trkpt lat="47.2707" lon="4.97651">
        <ele>342.39999389648</ele>
        <time>2014-08-02T07:12:30.000Z</time>
      </trkpt>
      <trkpt lat="47.27068" lon="4.97663">
        <ele>341</ele>
        <time>2014-08-02T07:12:37.000Z</time>
      </trkpt>
      <trkpt lat="47.27066" lon="4.97673">
        <ele>339.79998779297</ele>
        <time>2014-08-02T07:12:41.000Z</time>
      </trkpt>
      <trkpt lat="47.27068" lon="4.97666">
        <ele>340.79998779297</ele>
        <time>2014-08-02T07:12:47.000Z</time>
      </trkpt>
      <trkpt lat="47.27068" lon="4.9765">
        <ele>342.39999389648</ele>
        <time>2014-08-02T07:12:54.000Z</time>
      </trkpt>
      <trkpt lat="47.27068" lon="4.97645">
        <ele>342.79998779297</ele>
        <time>2014-08-02T07:12:59.000Z</time>
      </trkpt>
      <trkpt lat="47.27068" lon="4.97638">
        <ele>343.39999389648</ele>
        <time>2014-08-02T07:13:14.000Z</time>
      </trkpt>
      <trkpt lat="47.27069" lon="4.97627">
        <ele>344.60000610352</ele>
        <time>2014-08-02T07:13:21.000Z</time>
      </trkpt>
      <trkpt lat="47.27071" lon="4.97623">
        <ele>345.20001220703</ele>
        <time>2014-08-02T07:13:27.000Z</time>
      </trkpt>
      <trkpt lat="47.27074" lon="4.97616">
        <ele>346</ele>
        <time>2014-08-02T07:13:33.000Z</time>
      </trkpt>
      <trkpt lat="47.27077" lon="4.9761">
        <ele>346.79998779297</ele>
        <time>2014-08-02T07:13:40.000Z</time>
      </trkpt>
      <trkpt lat="47.2708" lon="4.976">
        <ele>348</ele>
        <time>2014-08-02T07:14:05.000Z</time>
      </trkpt>
      <trkpt lat="47.27084" lon="4.97588">
        <ele>349.20001220703</ele>
        <time>2014-08-02T07:14:13.000Z</time>
      </trkpt>
      <trkpt lat="47.27089" lon="4.97581">
        <ele>350.20001220703</ele>
        <time>2014-08-02T07:14:20.000Z</time>
      </trkpt>
      <trkpt lat="47.27085" lon="4.97589">
        <ele>349.39999389648</ele>
        <time>2014-08-02T07:14:25.000Z</time>
      </trkpt>
      <trkpt lat="47.2708" lon="4.976">
        <ele>348</ele>
        <time>2014-08-02T07:14:31.000Z</time>
      </trkpt>
      <trkpt lat="47.27075" lon="4.97607">
        <ele>347</ele>
        <time>2014-08-02T07:14:35.000Z</time>
      </trkpt>
      <trkpt lat="47.2707" lon="4.97617">
        <ele>345.60000610352</ele>
        <time>2014-08-02T07:14:41.000Z</time>
      </trkpt>
      <trkpt lat="47.27067" lon="4.9763">
        <ele>344.20001220703</ele>
        <time>2014-08-02T07:14:47.000Z</time>
      </trkpt>
      <trkpt lat="47.27064" lon="4.9764">
        <ele>342.79998779297</ele>
        <time>2014-08-02T07:14:52.000Z</time>
      </trkpt>
      <trkpt lat="47.27061" lon="4.97652">
        <ele>341.39999389648</ele>
        <time>2014-08-02T07:14:59.000Z</time>
      </trkpt>
      <trkpt lat="47.27061" lon="4.97653">
        <ele>341.39999389648</ele>
        <time>2014-08-02T07:15:00.000Z</time>
      </trkpt>
      <trkpt lat="47.2706" lon="4.97662">
        <ele>340.20001220703</ele>
        <time>2014-08-02T07:15:07.000Z</time>
      </trkpt>
      <trkpt lat="47.2706" lon="4.97664">
        <ele>340</ele>
        <time>2014-08-02T07:15:08.000Z</time>
      </trkpt>
      <trkpt lat="47.27057" lon="4.97669">
        <ele>339.39999389648</ele>
        <time>2014-08-02T07:15:13.000Z</time>
      </trkpt>
      <trkpt lat="47.27054" lon="4.97682">
        <ele>337.60000610352</ele>
        <time>2014-08-02T07:15:21.000Z</time>
      </trkpt>
      <trkpt lat="47.27048" lon="4.97689">
        <ele>336.20001220703</ele>
        <time>2014-08-02T07:15:26.000Z</time>
      </trkpt>
      <trkpt lat="47.27042" lon="4.97694">
        <ele>335</ele>
        <time>2014-08-02T07:15:34.000Z</time>
      </trkpt>
      <trkpt lat="47.27038" lon="4.97699">
        <ele>334</ele>
        <time>2014-08-02T07:15:39.000Z</time>
      </trkpt>
      <trkpt lat="47.2703" lon="4.97704">
        <ele>332.39999389648</ele>
        <time>2014-08-02T07:15:46.000Z</time>
      </trkpt>
      <trkpt lat="47.27018" lon="4.97708">
        <ele>330.60000610352</ele>
        <time>2014-08-02T07:15:55.000Z</time>
      </trkpt>
      <trkpt lat="47.27007" lon="4.97712">
        <ele>328.79998779297</ele>
        <time>2014-08-02T07:16:03.000Z</time>
      </trkpt>
      <trkpt lat="47.26994" lon="4.97712">
        <ele>327.20001220703</ele>
        <time>2014-08-02T07:16:12.000Z</time>
      </trkpt>
      <trkpt lat="47.26981" lon="4.97713">
        <ele>325.79998779297</ele>
        <time>2014-08-02T07:16:21.000Z</time>
      </trkpt>
      <trkpt lat="47.26966" lon="4.97719">
        <ele>323.39999389648</ele>
        <time>2014-08-02T07:16:32.000Z</time>
      </trkpt>
      <trkpt lat="47.26954" lon="4.97728">
        <ele>321</ele>
        <time>2014-08-02T07:16:41.000Z</time>
      </trkpt>
      <trkpt lat="47.26929" lon="4.97746">
        <ele>317.20001220703</ele>
        <time>2014-08-02T07:17:01.000Z</time>
      </trkpt>
      <trkpt lat="47.26921" lon="4.97748">
        <ele>316.60000610352</ele>
        <time>2014-08-02T07:17:07.000Z</time>
      </trkpt>
      <trkpt lat="47.2691" lon="4.97752">
        <ele>315.60000610352</ele>
        <time>2014-08-02T07:17:15.000Z</time>
      </trkpt>
      <trkpt lat="47.26903" lon="4.97761">
        <ele>314.39999389648</ele>
        <time>2014-08-02T07:17:22.000Z</time>
      </trkpt>
      <trkpt lat="47.26897" lon="4.97777">
        <ele>312.79998779297</ele>
        <time>2014-08-02T07:17:31.000Z</time>
      </trkpt>
      <trkpt lat="47.26891" lon="4.97783">
        <ele>312.20001220703</ele>
        <time>2014-08-02T07:17:37.000Z</time>
      </trkpt>
      <trkpt lat="47.26885" lon="4.97776">
        <ele>312.20001220703</ele>
        <time>2014-08-02T07:17:43.000Z</time>
      </trkpt>
      <trkpt lat="47.26878" lon="4.97764">
        <ele>312.39999389648</ele>
        <time>2014-08-02T07:17:51.000Z</time>
      </trkpt>
      <trkpt lat="47.26872" lon="4.97755">
        <ele>312.39999389648</ele>
        <time>2014-08-02T07:17:58.000Z</time>
      </trkpt>
      <trkpt lat="47.26872" lon="4.97753">
        <ele>312.39999389648</ele>
        <time>2014-08-02T07:17:59.000Z</time>
      </trkpt>
      <trkpt lat="47.2687" lon="4.97744">
        <ele>312.79998779297</ele>
        <time>2014-08-02T07:18:04.000Z</time>
      </trkpt>
      <trkpt lat="47.26865" lon="4.97732">
        <ele>313.20001220703</ele>
        <time>2014-08-02T07:18:12.000Z</time>
      </trkpt>
      <trkpt lat="47.26865" lon="4.9773">
        <ele>313.39999389648</ele>
        <time>2014-08-02T07:18:13.000Z</time>
      </trkpt>
      <trkpt lat="47.26865" lon="4.97728">
        <ele>313.60000610352</ele>
        <time>2014-08-02T07:18:19.000Z</time>
      </trkpt>
      <trkpt lat="47.26855" lon="4.97711">
        <ele>314</ele>
        <time>2014-08-02T07:18:28.000Z</time>
      </trkpt>
      <trkpt lat="47.26849" lon="4.97694">
        <ele>314.79998779297</ele>
        <time>2014-08-02T07:18:38.000Z</time>
      </trkpt>
      <trkpt lat="47.26849" lon="4.97693">
        <ele>315</ele>
        <time>2014-08-02T07:18:39.000Z</time>
      </trkpt>
      <trkpt lat="47.26848" lon="4.97687">
        <ele>315.39999389648</ele>
        <time>2014-08-02T07:18:45.000Z</time>
      </trkpt>
      <trkpt lat="47.26849" lon="4.97685">
        <ele>315.60000610352</ele>
        <time>2014-08-02T07:18:46.000Z</time>
      </trkpt>
      <trkpt lat="47.2685" lon="4.97669">
        <ele>317</ele>
        <time>2014-08-02T07:18:55.000Z</time>
      </trkpt>
      <trkpt lat="47.26847" lon="4.97654">
        <ele>318</ele>
        <time>2014-08-02T07:19:03.000Z</time>
      </trkpt>
      <trkpt lat="47.26839" lon="4.97638">
        <ele>318.60000610352</ele>
        <time>2014-08-02T07:19:13.000Z</time>
      </trkpt>
      <trkpt lat="47.2683" lon="4.97625">
        <ele>319</ele>
        <time>2014-08-02T07:19:22.000Z</time>
      </trkpt>
      <trkpt lat="47.2682" lon="4.97611">
        <ele>319.60000610352</ele>
        <time>2014-08-02T07:19:32.000Z</time>
      </trkpt>
      <trkpt lat="47.26814" lon="4.97603">
        <ele>320</ele>
        <time>2014-08-02T07:19:38.000Z</time>
      </trkpt>
      <trkpt lat="47.26807" lon="4.97594">
        <ele>320.39999389648</ele>
        <time>2014-08-02T07:19:45.000Z</time>
      </trkpt>
      <trkpt lat="47.26799" lon="4.97585">
        <ele>320.60000610352</ele>
        <time>2014-08-02T07:19:53.000Z</time>
      </trkpt>
      <trkpt lat="47.26795" lon="4.97573">
        <ele>321.39999389648</ele>
        <time>2014-08-02T07:19:59.000Z</time>
      </trkpt>
      <trkpt lat="47.2679" lon="4.97555">
        <ele>322.79998779297</ele>
        <time>2014-08-02T07:20:08.000Z</time>
      </trkpt>
      <trkpt lat="47.26787" lon="4.97544">
        <ele>323.79998779297</ele>
        <time>2014-08-02T07:20:16.000Z</time>
      </trkpt>
      <trkpt lat="47.26784" lon="4.97532">
        <ele>324.20001220703</ele>
        <time>2014-08-02T07:20:23.000Z</time>
      </trkpt>
      <trkpt lat="47.26781" lon="4.97513">
        <ele>324.79998779297</ele>
        <time>2014-08-02T07:20:33.000Z</time>
      </trkpt>
      <trkpt lat="47.26781" lon="4.97512">
        <ele>325</ele>
        <time>2014-08-02T07:20:34.000Z</time>
      </trkpt>
      <trkpt lat="47.26777" lon="4.97502">
        <ele>325.20001220703</ele>
        <time>2014-08-02T07:20:41.000Z</time>
      </trkpt>
      <trkpt lat="47.26777" lon="4.97501">
        <ele>325.20001220703</ele>
        <time>2014-08-02T07:20:42.000Z</time>
      </trkpt>
      <trkpt lat="47.26774" lon="4.97491">
        <ele>325.39999389648</ele>
        <time>2014-08-02T07:20:49.000Z</time>
      </trkpt>
      <trkpt lat="47.26774" lon="4.9749">
        <ele>325.39999389648</ele>
        <time>2014-08-02T07:20:50.000Z</time>
      </trkpt>
      <trkpt lat="47.26771" lon="4.97484">
        <ele>325.60000610352</ele>
        <time>2014-08-02T07:20:54.000Z</time>
      </trkpt>
      <trkpt lat="47.2677" lon="4.97482">
        <ele>325.60000610352</ele>
        <time>2014-08-02T07:20:56.000Z</time>
      </trkpt>
      <trkpt lat="47.26769" lon="4.97475">
        <ele>326</ele>
        <time>2014-08-02T07:21:01.000Z</time>
      </trkpt>
      <trkpt lat="47.26769" lon="4.97473">
        <ele>326.20001220703</ele>
        <time>2014-08-02T07:21:03.000Z</time>
      </trkpt>
      <trkpt lat="47.26768" lon="4.97468">
        <ele>326.39999389648</ele>
        <time>2014-08-02T07:21:09.000Z</time>
      </trkpt>
      <trkpt lat="47.26769" lon="4.97464">
        <ele>326.79998779297</ele>
        <time>2014-08-02T07:21:15.000Z</time>
      </trkpt>
      <trkpt lat="47.26768" lon="4.97461">
        <ele>326.79998779297</ele>
        <time>2014-08-02T07:21:23.000Z</time>
      </trkpt>
      <trkpt lat="47.26766" lon="4.97455">
        <ele>327.20001220703</ele>
        <time>2014-08-02T07:21:28.000Z</time>
      </trkpt>
      <trkpt lat="47.26766" lon="4.97448">
        <ele>327.79998779297</ele>
        <time>2014-08-02T07:21:36.000Z</time>
      </trkpt>
      <trkpt lat="47.26764" lon="4.97445">
        <ele>328</ele>
        <time>2014-08-02T07:21:47.000Z</time>
      </trkpt>
      <trkpt lat="47.26761" lon="4.97435">
        <ele>328.60000610352</ele>
        <time>2014-08-02T07:21:53.000Z</time>
      </trkpt>
      <trkpt lat="47.26757" lon="4.97425">
        <ele>329.20001220703</ele>
        <time>2014-08-02T07:21:59.000Z</time>
      </trkpt>
      <trkpt lat="47.26757" lon="4.97421">
        <ele>329.60000610352</ele>
        <time>2014-08-02T07:22:00.000Z</time>
      </trkpt>
      <trkpt lat="47.26756" lon="4.97414">
        <ele>330.20001220703</ele>
        <time>2014-08-02T07:22:04.000Z</time>
      </trkpt>
      <trkpt lat="47.26756" lon="4.97411">
        <ele>330.39999389648</ele>
        <time>2014-08-02T07:22:05.000Z</time>
      </trkpt>
      <trkpt lat="47.26756" lon="4.97407">
        <ele>330.79998779297</ele>
        <time>2014-08-02T07:22:07.000Z</time>
      </trkpt>
      <trkpt lat="47.26756" lon="4.97396">
        <ele>332</ele>
        <time>2014-08-02T07:22:11.000Z</time>
      </trkpt>
      <trkpt lat="47.26757" lon="4.97394">
        <ele>332.20001220703</ele>
        <time>2014-08-02T07:22:12.000Z</time>
      </trkpt>
      <trkpt lat="47.26757" lon="4.9739">
        <ele>332.39999389648</ele>
        <time>2014-08-02T07:22:14.000Z</time>
      </trkpt>
      <trkpt lat="47.26756" lon="4.97376">
        <ele>333.79998779297</ele>
        <time>2014-08-02T07:22:22.000Z</time>
      </trkpt>
      <trkpt lat="47.26755" lon="4.97374">
        <ele>333.79998779297</ele>
        <time>2014-08-02T07:22:23.000Z</time>
      </trkpt>
      <trkpt lat="47.26755" lon="4.97373">
        <ele>334</ele>
        <time>2014-08-02T07:22:24.000Z</time>
      </trkpt>
      <trkpt lat="47.26754" lon="4.9737">
        <ele>334</ele>
        <time>2014-08-02T07:22:26.000Z</time>
      </trkpt>
      <trkpt lat="47.26757" lon="4.97356">
        <ele>335.39999389648</ele>
        <time>2014-08-02T07:22:33.000Z</time>
      </trkpt>
      <trkpt lat="47.26757" lon="4.97349">
        <ele>335.79998779297</ele>
        <time>2014-08-02T07:22:38.000Z</time>
      </trkpt>
      <trkpt lat="47.26758" lon="4.97339">
        <ele>336.60000610352</ele>
        <time>2014-08-02T07:22:43.000Z</time>
      </trkpt>
      <trkpt lat="47.26758" lon="4.97336">
        <ele>337</ele>
        <time>2014-08-02T07:22:44.000Z</time>
      </trkpt>
      <trkpt lat="47.26759" lon="4.97332">
        <ele>337.20001220703</ele>
        <time>2014-08-02T07:22:46.000Z</time>
      </trkpt>
      <trkpt lat="47.2676" lon="4.97318">
        <ele>338.39999389648</ele>
        <time>2014-08-02T07:22:52.000Z</time>
      </trkpt>
      <trkpt lat="47.2676" lon="4.97315">
        <ele>338.60000610352</ele>
        <time>2014-08-02T07:22:53.000Z</time>
      </trkpt>
      <trkpt lat="47.2676" lon="4.97307">
        <ele>339.20001220703</ele>
        <time>2014-08-02T07:22:57.000Z</time>
      </trkpt>
      <trkpt lat="47.26759" lon="4.97296">
        <ele>339.79998779297</ele>
        <time>2014-08-02T07:23:03.000Z</time>
      </trkpt>
      <trkpt lat="47.26759" lon="4.97291">
        <ele>340.20001220703</ele>
        <time>2014-08-02T07:23:05.000Z</time>
      </trkpt>
      <trkpt lat="47.26759" lon="4.97285">
        <ele>340.79998779297</ele>
        <time>2014-08-02T07:23:10.000Z</time>
      </trkpt>
      <trkpt lat="47.26759" lon="4.97281">
        <ele>341.20001220703</ele>
        <time>2014-08-02T07:23:14.000Z</time>
      </trkpt>
      <trkpt lat="47.26759" lon="4.97274">
        <ele>341.79998779297</ele>
        <time>2014-08-02T07:23:22.000Z</time>
      </trkpt>
      <trkpt lat="47.26759" lon="4.97266">
        <ele>342.60000610352</ele>
        <time>2014-08-02T07:23:27.000Z</time>
      </trkpt>
      <trkpt lat="47.26761" lon="4.97251">
        <ele>344.20001220703</ele>
        <time>2014-08-02T07:23:33.000Z</time>
      </trkpt>
      <trkpt lat="47.26761" lon="4.97249">
        <ele>344.39999389648</ele>
        <time>2014-08-02T07:23:34.000Z</time>
      </trkpt>
      <trkpt lat="47.26761" lon="4.97245">
        <ele>344.79998779297</ele>
        <time>2014-08-02T07:23:37.000Z</time>
      </trkpt>
      <trkpt lat="47.26762" lon="4.97241">
        <ele>345.39999389648</ele>
        <time>2014-08-02T07:23:41.000Z</time>
      </trkpt>
      <trkpt lat="47.26763" lon="4.97239">
        <ele>345.60000610352</ele>
        <time>2014-08-02T07:23:43.000Z</time>
      </trkpt>
      <trkpt lat="47.26764" lon="4.97235">
        <ele>346.20001220703</ele>
        <time>2014-08-02T07:23:46.000Z</time>
      </trkpt>
      <trkpt lat="47.26765" lon="4.97225">
        <ele>347.20001220703</ele>
        <time>2014-08-02T07:23:52.000Z</time>
      </trkpt>
      <trkpt lat="47.26765" lon="4.97218">
        <ele>347.60000610352</ele>
        <time>2014-08-02T07:23:56.000Z</time>
      </trkpt>
      <trkpt lat="47.26764" lon="4.97212">
        <ele>347.79998779297</ele>
        <time>2014-08-02T07:23:58.000Z</time>
      </trkpt>
      <trkpt lat="47.26764" lon="4.97203">
        <ele>348.60000610352</ele>
        <time>2014-08-02T07:24:02.000Z</time>
      </trkpt>
      <trkpt lat="47.26765" lon="4.97198">
        <ele>349.20001220703</ele>
        <time>2014-08-02T07:24:04.000Z</time>
      </trkpt>
      <trkpt lat="47.26766" lon="4.97194">
        <ele>349.79998779297</ele>
        <time>2014-08-02T07:24:07.000Z</time>
      </trkpt>
      <trkpt lat="47.26767" lon="4.9719">
        <ele>350.20001220703</ele>
        <time>2014-08-02T07:24:10.000Z</time>
      </trkpt>
      <trkpt lat="47.26768" lon="4.97185">
        <ele>350.79998779297</ele>
        <time>2014-08-02T07:24:14.000Z</time>
      </trkpt>
      <trkpt lat="47.26769" lon="4.97179">
        <ele>351.60000610352</ele>
        <time>2014-08-02T07:24:18.000Z</time>
      </trkpt>
      <trkpt lat="47.2677" lon="4.97171">
        <ele>352.39999389648</ele>
        <time>2014-08-02T07:24:21.000Z</time>
      </trkpt>
      <trkpt lat="47.26772" lon="4.97158">
        <ele>354</ele>
        <time>2014-08-02T07:24:25.000Z</time>
      </trkpt>
      <trkpt lat="47.26772" lon="4.97151">
        <ele>354.79998779297</ele>
        <time>2014-08-02T07:24:29.000Z</time>
      </trkpt>
      <trkpt lat="47.26773" lon="4.97141">
        <ele>355</ele>
        <time>2014-08-02T07:24:34.000Z</time>
      </trkpt>
      <trkpt lat="47.26774" lon="4.97136">
        <ele>355.20001220703</ele>
        <time>2014-08-02T07:24:37.000Z</time>
      </trkpt>
      <trkpt lat="47.26773" lon="4.97132">
        <ele>355.39999389648</ele>
        <time>2014-08-02T07:24:40.000Z</time>
      </trkpt>
      <trkpt lat="47.26774" lon="4.97125">
        <ele>355.60000610352</ele>
        <time>2014-08-02T07:24:44.000Z</time>
      </trkpt>
      <trkpt lat="47.26776" lon="4.97122">
        <ele>356.20001220703</ele>
        <time>2014-08-02T07:24:46.000Z</time>
      </trkpt>
      <trkpt lat="47.26778" lon="4.97115">
        <ele>357.60000610352</ele>
        <time>2014-08-02T07:24:49.000Z</time>
      </trkpt>
      <trkpt lat="47.2678" lon="4.97105">
        <ele>359.39999389648</ele>
        <time>2014-08-02T07:24:54.000Z</time>
      </trkpt>
      <trkpt lat="47.26786" lon="4.97085">
        <ele>363</ele>
        <time>2014-08-02T07:25:06.000Z</time>
      </trkpt>
      <trkpt lat="47.26787" lon="4.97083">
        <ele>363.60000610352</ele>
        <time>2014-08-02T07:25:07.000Z</time>
      </trkpt>
      <trkpt lat="47.2679" lon="4.97071">
        <ele>363.20001220703</ele>
        <time>2014-08-02T07:25:13.000Z</time>
      </trkpt>
      <trkpt lat="47.26793" lon="4.97063">
        <ele>362.79998779297</ele>
        <time>2014-08-02T07:25:17.000Z</time>
      </trkpt>
      <trkpt lat="47.26793" lon="4.9706">
        <ele>362.79998779297</ele>
        <time>2014-08-02T07:25:19.000Z</time>
      </trkpt>
      <trkpt lat="47.26794" lon="4.97053">
        <ele>362.60000610352</ele>
        <time>2014-08-02T07:25:22.000Z</time>
      </trkpt>
      <trkpt lat="47.26795" lon="4.9705">
        <ele>362.39999389648</ele>
        <time>2014-08-02T07:25:24.000Z</time>
      </trkpt>
      <trkpt lat="47.26797" lon="4.97046">
        <ele>362.20001220703</ele>
        <time>2014-08-02T07:25:27.000Z</time>
      </trkpt>
      <trkpt lat="47.26799" lon="4.97036">
        <ele>363</ele>
        <time>2014-08-02T07:25:32.000Z</time>
      </trkpt>
      <trkpt lat="47.268" lon="4.97033">
        <ele>363.39999389648</ele>
        <time>2014-08-02T07:25:34.000Z</time>
      </trkpt>
      <trkpt lat="47.268" lon="4.97026">
        <ele>365</ele>
        <time>2014-08-02T07:25:38.000Z</time>
      </trkpt>
      <trkpt lat="47.26802" lon="4.97014">
        <ele>367.20001220703</ele>
        <time>2014-08-02T07:25:44.000Z</time>
      </trkpt>
      <trkpt lat="47.26804" lon="4.9701">
        <ele>367</ele>
        <time>2014-08-02T07:25:46.000Z</time>
      </trkpt>
      <trkpt lat="47.26804" lon="4.97005">
        <ele>367</ele>
        <time>2014-08-02T07:25:48.000Z</time>
      </trkpt>
      <trkpt lat="47.26808" lon="4.96993">
        <ele>366.60000610352</ele>
        <time>2014-08-02T07:25:54.000Z</time>
      </trkpt>
      <trkpt lat="47.2681" lon="4.96989">
        <ele>366.20001220703</ele>
        <time>2014-08-02T07:25:57.000Z</time>
      </trkpt>
      <trkpt lat="47.26814" lon="4.96981">
        <ele>365.60000610352</ele>
        <time>2014-08-02T07:26:02.000Z</time>
      </trkpt>
      <trkpt lat="47.26815" lon="4.9698">
        <ele>365.20001220703</ele>
        <time>2014-08-02T07:26:03.000Z</time>
      </trkpt>
      <trkpt lat="47.26816" lon="4.96978">
        <ele>365.20001220703</ele>
        <time>2014-08-02T07:26:04.000Z</time>
      </trkpt>
      <trkpt lat="47.26817" lon="4.96976">
        <ele>364.79998779297</ele>
        <time>2014-08-02T07:26:06.000Z</time>
      </trkpt>
      <trkpt lat="47.26821" lon="4.96971">
        <ele>363.79998779297</ele>
        <time>2014-08-02T07:26:10.000Z</time>
      </trkpt>
      <trkpt lat="47.26822" lon="4.96969">
        <ele>363.60000610352</ele>
        <time>2014-08-02T07:26:12.000Z</time>
      </trkpt>
      <trkpt lat="47.26827" lon="4.96961">
        <ele>362.60000610352</ele>
        <time>2014-08-02T07:26:17.000Z</time>
      </trkpt>
      <trkpt lat="47.26827" lon="4.9696">
        <ele>362.60000610352</ele>
        <time>2014-08-02T07:26:18.000Z</time>
      </trkpt>
      <trkpt lat="47.26828" lon="4.96958">
        <ele>362.39999389648</ele>
        <time>2014-08-02T07:26:19.000Z</time>
      </trkpt>
      <trkpt lat="47.26831" lon="4.96949">
        <ele>363.60000610352</ele>
        <time>2014-08-02T07:26:23.000Z</time>
      </trkpt>
      <trkpt lat="47.26832" lon="4.96945">
        <ele>364.39999389648</ele>
        <time>2014-08-02T07:26:25.000Z</time>
      </trkpt>
      <trkpt lat="47.26834" lon="4.96942">
        <ele>365</ele>
        <time>2014-08-02T07:26:27.000Z</time>
      </trkpt>
      <trkpt lat="47.26837" lon="4.96935">
        <ele>366.79998779297</ele>
        <time>2014-08-02T07:26:32.000Z</time>
      </trkpt>
      <trkpt lat="47.26841" lon="4.96931">
        <ele>368</ele>
        <time>2014-08-02T07:26:36.000Z</time>
      </trkpt>
      <trkpt lat="47.26843" lon="4.96928">
        <ele>368.60000610352</ele>
        <time>2014-08-02T07:26:38.000Z</time>
      </trkpt>
      <trkpt lat="47.26847" lon="4.96921">
        <ele>370.20001220703</ele>
        <time>2014-08-02T07:26:43.000Z</time>
      </trkpt>
      <trkpt lat="47.26848" lon="4.96917">
        <ele>371</ele>
        <time>2014-08-02T07:26:44.000Z</time>
      </trkpt>
      <trkpt lat="47.2685" lon="4.96906">
        <ele>373.20001220703</ele>
        <time>2014-08-02T07:26:49.000Z</time>
      </trkpt>
      <trkpt lat="47.26851" lon="4.96904">
        <ele>373.60000610352</ele>
        <time>2014-08-02T07:26:50.000Z</time>
      </trkpt>
      <trkpt lat="47.26855" lon="4.96898">
        <ele>374.60000610352</ele>
        <time>2014-08-02T07:26:54.000Z</time>
      </trkpt>
      <trkpt lat="47.2686" lon="4.96891">
        <ele>373.39999389648</ele>
        <time>2014-08-02T07:26:59.000Z</time>
      </trkpt>
      <trkpt lat="47.2686" lon="4.9689">
        <ele>373.20001220703</ele>
        <time>2014-08-02T07:27:00.000Z</time>
      </trkpt>
      <trkpt lat="47.26862" lon="4.96887">
        <ele>372.79998779297</ele>
        <time>2014-08-02T07:27:02.000Z</time>
      </trkpt>
      <trkpt lat="47.26864" lon="4.96883">
        <ele>372.20001220703</ele>
        <time>2014-08-02T07:27:06.000Z</time>
      </trkpt>
      <trkpt lat="47.26866" lon="4.96879">
        <ele>371.60000610352</ele>
        <time>2014-08-02T07:27:09.000Z</time>
      </trkpt>
      <trkpt lat="47.2687" lon="4.9687">
        <ele>371.60000610352</ele>
        <time>2014-08-02T07:27:14.000Z</time>
      </trkpt>
      <trkpt lat="47.26874" lon="4.96864">
        <ele>372.60000610352</ele>
        <time>2014-08-02T07:27:18.000Z</time>
      </trkpt>
      <trkpt lat="47.26876" lon="4.96861">
        <ele>373</ele>
        <time>2014-08-02T07:27:22.000Z</time>
      </trkpt>
      <trkpt lat="47.26883" lon="4.96854">
        <ele>373.79998779297</ele>
        <time>2014-08-02T07:27:28.000Z</time>
      </trkpt>
      <trkpt lat="47.26888" lon="4.96848">
        <ele>374.60000610352</ele>
        <time>2014-08-02T07:27:36.000Z</time>
      </trkpt>
      <trkpt lat="47.26896" lon="4.96843">
        <ele>374.60000610352</ele>
        <time>2014-08-02T07:27:42.000Z</time>
      </trkpt>
      <trkpt lat="47.26897" lon="4.96842">
        <ele>374.79998779297</ele>
        <time>2014-08-02T07:27:43.000Z</time>
      </trkpt>
      <trkpt lat="47.26898" lon="4.96842">
        <ele>374.60000610352</ele>
        <time>2014-08-02T07:27:44.000Z</time>
      </trkpt>
      <trkpt lat="47.26907" lon="4.96835">
        <ele>375</ele>
        <time>2014-08-02T07:27:53.000Z</time>
      </trkpt>
      <trkpt lat="47.26912" lon="4.96828">
        <ele>375.79998779297</ele>
        <time>2014-08-02T07:27:57.000Z</time>
      </trkpt>
      <trkpt lat="47.26914" lon="4.96827">
        <ele>376</ele>
        <time>2014-08-02T07:27:59.000Z</time>
      </trkpt>
      <trkpt lat="47.26923" lon="4.9682">
        <ele>380.20001220703</ele>
        <time>2014-08-02T07:28:06.000Z</time>
      </trkpt>
      <trkpt lat="47.26927" lon="4.96814">
        <ele>382.79998779297</ele>
        <time>2014-08-02T07:28:10.000Z</time>
      </trkpt>
      <trkpt lat="47.26928" lon="4.96813">
        <ele>383.20001220703</ele>
        <time>2014-08-02T07:28:11.000Z</time>
      </trkpt>
      <trkpt lat="47.2693" lon="4.96811">
        <ele>384.39999389648</ele>
        <time>2014-08-02T07:28:13.000Z</time>
      </trkpt>
      <trkpt lat="47.26932" lon="4.9681">
        <ele>384.79998779297</ele>
        <time>2014-08-02T07:28:15.000Z</time>
      </trkpt>
      <trkpt lat="47.26938" lon="4.96805">
        <ele>383.79998779297</ele>
        <time>2014-08-02T07:28:21.000Z</time>
      </trkpt>
      <trkpt lat="47.26939" lon="4.96803">
        <ele>383.60000610352</ele>
        <time>2014-08-02T07:28:22.000Z</time>
      </trkpt>
      <trkpt lat="47.26943" lon="4.96798">
        <ele>382.60000610352</ele>
        <time>2014-08-02T07:28:25.000Z</time>
      </trkpt>
      <trkpt lat="47.26945" lon="4.96796">
        <ele>382.39999389648</ele>
        <time>2014-08-02T07:28:27.000Z</time>
      </trkpt>
      <trkpt lat="47.26949" lon="4.96789">
        <ele>382</ele>
        <time>2014-08-02T07:28:31.000Z</time>
      </trkpt>
      <trkpt lat="47.26953" lon="4.9678">
        <ele>384.20001220703</ele>
        <time>2014-08-02T07:28:34.000Z</time>
      </trkpt>
      <trkpt lat="47.26957" lon="4.96775">
        <ele>385.20001220703</ele>
        <time>2014-08-02T07:28:38.000Z</time>
      </trkpt>
      <trkpt lat="47.26961" lon="4.96764">
        <ele>388.20001220703</ele>
        <time>2014-08-02T07:28:45.000Z</time>
      </trkpt>
      <trkpt lat="47.26963" lon="4.96759">
        <ele>389.20001220703</ele>
        <time>2014-08-02T07:28:48.000Z</time>
      </trkpt>
      <trkpt lat="47.26967" lon="4.96751">
        <ele>389.20001220703</ele>
        <time>2014-08-02T07:28:54.000Z</time>
      </trkpt>
      <trkpt lat="47.2697" lon="4.96746">
        <ele>388.79998779297</ele>
        <time>2014-08-02T07:28:58.000Z</time>
      </trkpt>
      <trkpt lat="47.26973" lon="4.96739">
        <ele>388.60000610352</ele>
        <time>2014-08-02T07:29:03.000Z</time>
      </trkpt>
      <trkpt lat="47.26975" lon="4.96739">
        <ele>388</ele>
        <time>2014-08-02T07:29:05.000Z</time>
      </trkpt>
      <trkpt lat="47.26975" lon="4.96738">
        <ele>388</ele>
        <time>2014-08-02T07:29:07.000Z</time>
      </trkpt>
      <trkpt lat="47.26978" lon="4.96733">
        <ele>387.79998779297</ele>
        <time>2014-08-02T07:29:12.000Z</time>
      </trkpt>
      <trkpt lat="47.26981" lon="4.96724">
        <ele>387.60000610352</ele>
        <time>2014-08-02T07:29:19.000Z</time>
      </trkpt>
      <trkpt lat="47.26982" lon="4.96722">
        <ele>387.60000610352</ele>
        <time>2014-08-02T07:29:20.000Z</time>
      </trkpt>
      <trkpt lat="47.26986" lon="4.96718">
        <ele>387</ele>
        <time>2014-08-02T07:29:25.000Z</time>
      </trkpt>
      <trkpt lat="47.26991" lon="4.96708">
        <ele>386.39999389648</ele>
        <time>2014-08-02T07:29:32.000Z</time>
      </trkpt>
      <trkpt lat="47.26991" lon="4.96707">
        <ele>386.60000610352</ele>
        <time>2014-08-02T07:29:33.000Z</time>
      </trkpt>
      <trkpt lat="47.26994" lon="4.96705">
        <ele>386.39999389648</ele>
        <time>2014-08-02T07:29:36.000Z</time>
      </trkpt>
      <trkpt lat="47.26996" lon="4.96695">
        <ele>388.60000610352</ele>
        <time>2014-08-02T07:29:41.000Z</time>
      </trkpt>
      <trkpt lat="47.26999" lon="4.96687">
        <ele>391.20001220703</ele>
        <time>2014-08-02T07:29:46.000Z</time>
      </trkpt>
      <trkpt lat="47.27001" lon="4.96679">
        <ele>393.79998779297</ele>
        <time>2014-08-02T07:29:50.000Z</time>
      </trkpt>
      <trkpt lat="47.27004" lon="4.96672">
        <ele>396.20001220703</ele>
        <time>2014-08-02T07:29:55.000Z</time>
      </trkpt>
      <trkpt lat="47.27011" lon="4.96657">
        <ele>402</ele>
        <time>2014-08-02T07:30:05.000Z</time>
      </trkpt>
      <trkpt lat="47.27015" lon="4.96647">
        <ele>405.39999389648</ele>
        <time>2014-08-02T07:30:11.000Z</time>
      </trkpt>
      <trkpt lat="47.27021" lon="4.96639">
        <ele>405.39999389648</ele>
        <time>2014-08-02T07:30:17.000Z</time>
      </trkpt>
      <trkpt lat="47.27026" lon="4.9663">
        <ele>404.20001220703</ele>
        <time>2014-08-02T07:30:23.000Z</time>
      </trkpt>
      <trkpt lat="47.27027" lon="4.96628">
        <ele>404</ele>
        <time>2014-08-02T07:30:24.000Z</time>
      </trkpt>
      <trkpt lat="47.27033" lon="4.96617">
        <ele>405</ele>
        <time>2014-08-02T07:30:31.000Z</time>
      </trkpt>
      <trkpt lat="47.27036" lon="4.96612">
        <ele>405.60000610352</ele>
        <time>2014-08-02T07:30:36.000Z</time>
      </trkpt>
      <trkpt lat="47.27041" lon="4.96606">
        <ele>406.39999389648</ele>
        <time>2014-08-02T07:30:42.000Z</time>
      </trkpt>
      <trkpt lat="47.27044" lon="4.96602">
        <ele>406.79998779297</ele>
        <time>2014-08-02T07:30:46.000Z</time>
      </trkpt>
      <trkpt lat="47.27047" lon="4.96601">
        <ele>406.60000610352</ele>
        <time>2014-08-02T07:30:52.000Z</time>
      </trkpt>
      <trkpt lat="47.27051" lon="4.96596">
        <ele>407.39999389648</ele>
        <time>2014-08-02T07:30:57.000Z</time>
      </trkpt>
      <trkpt lat="47.27054" lon="4.96589">
        <ele>408.20001220703</ele>
        <time>2014-08-02T07:31:03.000Z</time>
      </trkpt>
      <trkpt lat="47.27057" lon="4.96588">
        <ele>408.20001220703</ele>
        <time>2014-08-02T07:31:07.000Z</time>
      </trkpt>
      <trkpt lat="47.27062" lon="4.96582">
        <ele>408.79998779297</ele>
        <time>2014-08-02T07:31:11.000Z</time>
      </trkpt>
      <trkpt lat="47.2707" lon="4.96577">
        <ele>408.60000610352</ele>
        <time>2014-08-02T07:31:18.000Z</time>
      </trkpt>
      <trkpt lat="47.27072" lon="4.96575">
        <ele>408.79998779297</ele>
        <time>2014-08-02T07:31:21.000Z</time>
      </trkpt>
      <trkpt lat="47.27078" lon="4.9657">
        <ele>409</ele>
        <time>2014-08-02T07:31:26.000Z</time>
      </trkpt>
      <trkpt lat="47.27079" lon="4.96569">
        <ele>409</ele>
        <time>2014-08-02T07:31:27.000Z</time>
      </trkpt>
      <trkpt lat="47.27085" lon="4.96566">
        <ele>410.79998779297</ele>
        <time>2014-08-02T07:31:32.000Z</time>
      </trkpt>
      <trkpt lat="47.27091" lon="4.96562">
        <ele>413.20001220703</ele>
        <time>2014-08-02T07:31:37.000Z</time>
      </trkpt>
      <trkpt lat="47.27097" lon="4.96559">
        <ele>415.20001220703</ele>
        <time>2014-08-02T07:31:43.000Z</time>
      </trkpt>
      <trkpt lat="47.27098" lon="4.96558">
        <ele>415.20001220703</ele>
        <time>2014-08-02T07:31:44.000Z</time>
      </trkpt>
      <trkpt lat="47.27102" lon="4.96554">
        <ele>414.79998779297</ele>
        <time>2014-08-02T07:31:49.000Z</time>
      </trkpt>
      <trkpt lat="47.27105" lon="4.96549">
        <ele>414.20001220703</ele>
        <time>2014-08-02T07:31:56.000Z</time>
      </trkpt>
      <trkpt lat="47.27106" lon="4.96548">
        <ele>414.20001220703</ele>
        <time>2014-08-02T07:31:57.000Z</time>
      </trkpt>
      <trkpt lat="47.27111" lon="4.96543">
        <ele>413.60000610352</ele>
        <time>2014-08-02T07:32:02.000Z</time>
      </trkpt>
      <trkpt lat="47.27115" lon="4.96538">
        <ele>414</ele>
        <time>2014-08-02T07:32:08.000Z</time>
      </trkpt>
      <trkpt lat="47.27116" lon="4.96538">
        <ele>414</ele>
        <time>2014-08-02T07:32:10.000Z</time>
      </trkpt>
      <trkpt lat="47.27118" lon="4.96535">
        <ele>414.60000610352</ele>
        <time>2014-08-02T07:32:12.000Z</time>
      </trkpt>
      <trkpt lat="47.2712" lon="4.96532">
        <ele>415.39999389648</ele>
        <time>2014-08-02T07:32:15.000Z</time>
      </trkpt>
      <trkpt lat="47.27125" lon="4.96526">
        <ele>416.60000610352</ele>
        <time>2014-08-02T07:32:21.000Z</time>
      </trkpt>
      <trkpt lat="47.27131" lon="4.96514">
        <ele>419</ele>
        <time>2014-08-02T07:32:28.000Z</time>
      </trkpt>
      <trkpt lat="47.27134" lon="4.9651">
        <ele>419.60000610352</ele>
        <time>2014-08-02T07:32:32.000Z</time>
      </trkpt>
      <trkpt lat="47.27138" lon="4.96502">
        <ele>419.79998779297</ele>
        <time>2014-08-02T07:32:39.000Z</time>
      </trkpt>
      <trkpt lat="47.2714" lon="4.96497">
        <ele>420</ele>
        <time>2014-08-02T07:32:44.000Z</time>
      </trkpt>
      <trkpt lat="47.2714" lon="4.96494">
        <ele>420</ele>
        <time>2014-08-02T07:32:46.000Z</time>
      </trkpt>
      <trkpt lat="47.27145" lon="4.96486">
        <ele>420.20001220703</ele>
        <time>2014-08-02T07:32:53.000Z</time>
      </trkpt>
      <trkpt lat="47.27146" lon="4.96482">
        <ele>420.39999389648</ele>
        <time>2014-08-02T07:32:56.000Z</time>
      </trkpt>
      <trkpt lat="47.27148" lon="4.96481">
        <ele>420.20001220703</ele>
        <time>2014-08-02T07:32:58.000Z</time>
      </trkpt>
      <trkpt lat="47.27149" lon="4.9648">
        <ele>420.20001220703</ele>
        <time>2014-08-02T07:33:00.000Z</time>
      </trkpt>
      <trkpt lat="47.2715" lon="4.96479">
        <ele>420</ele>
        <time>2014-08-02T07:33:02.000Z</time>
      </trkpt>
      <trkpt lat="47.27154" lon="4.96475">
        <ele>419.79998779297</ele>
        <time>2014-08-02T07:33:11.000Z</time>
      </trkpt>
      <trkpt lat="47.27157" lon="4.96468">
        <ele>420</ele>
        <time>2014-08-02T07:33:17.000Z</time>
      </trkpt>
      <trkpt lat="47.27159" lon="4.96463">
        <ele>420.20001220703</ele>
        <time>2014-08-02T07:33:21.000Z</time>
      </trkpt>
      <trkpt lat="47.27162" lon="4.96455">
        <ele>420.39999389648</ele>
        <time>2014-08-02T07:33:25.000Z</time>
      </trkpt>
      <trkpt lat="47.27163" lon="4.96449">
        <ele>421.20001220703</ele>
        <time>2014-08-02T07:33:30.000Z</time>
      </trkpt>
      <trkpt lat="47.27164" lon="4.96448">
        <ele>421.20001220703</ele>
        <time>2014-08-02T07:33:36.000Z</time>
      </trkpt>
      <trkpt lat="47.27167" lon="4.9644">
        <ele>422.79998779297</ele>
        <time>2014-08-02T07:33:44.000Z</time>
      </trkpt>
      <trkpt lat="47.27167" lon="4.96439">
        <ele>423</ele>
        <time>2014-08-02T07:33:45.000Z</time>
      </trkpt>
      <trkpt lat="47.27169" lon="4.96428">
        <ele>424.60000610352</ele>
        <time>2014-08-02T07:33:52.000Z</time>
      </trkpt>
      <trkpt lat="47.27171" lon="4.96423">
        <ele>425.39999389648</ele>
        <time>2014-08-02T07:33:55.000Z</time>
      </trkpt>
      <trkpt lat="47.27174" lon="4.96416">
        <ele>426.79998779297</ele>
        <time>2014-08-02T07:34:00.000Z</time>
      </trkpt>
      <trkpt lat="47.27175" lon="4.96414">
        <ele>427.20001220703</ele>
        <time>2014-08-02T07:34:02.000Z</time>
      </trkpt>
      <trkpt lat="47.27177" lon="4.96408">
        <ele>428.20001220703</ele>
        <time>2014-08-02T07:34:05.000Z</time>
      </trkpt>
      <trkpt lat="47.27178" lon="4.96406">
        <ele>428.60000610352</ele>
        <time>2014-08-02T07:34:07.000Z</time>
      </trkpt>
      <trkpt lat="47.27179" lon="4.96399">
        <ele>429.60000610352</ele>
        <time>2014-08-02T07:34:11.000Z</time>
      </trkpt>
      <trkpt lat="47.2718" lon="4.96397">
        <ele>430</ele>
        <time>2014-08-02T07:34:13.000Z</time>
      </trkpt>
      <trkpt lat="47.2718" lon="4.96396">
        <ele>430</ele>
        <time>2014-08-02T07:34:15.000Z</time>
      </trkpt>
      <trkpt lat="47.2718" lon="4.96394">
        <ele>430.39999389648</ele>
        <time>2014-08-02T07:34:17.000Z</time>
      </trkpt>
      <trkpt lat="47.27182" lon="4.96386">
        <ele>430.60000610352</ele>
        <time>2014-08-02T07:34:21.000Z</time>
      </trkpt>
      <trkpt lat="47.27182" lon="4.96385">
        <ele>430.60000610352</ele>
        <time>2014-08-02T07:34:22.000Z</time>
      </trkpt>
      <trkpt lat="47.27182" lon="4.96383">
        <ele>430.60000610352</ele>
        <time>2014-08-02T07:34:23.000Z</time>
      </trkpt>
      <trkpt lat="47.27182" lon="4.96371">
        <ele>431</ele>
        <time>2014-08-02T07:34:30.000Z</time>
      </trkpt>
      <trkpt lat="47.27182" lon="4.9637">
        <ele>431.20001220703</ele>
        <time>2014-08-02T07:34:31.000Z</time>
      </trkpt>
      <trkpt lat="47.27183" lon="4.96361">
        <ele>432.20001220703</ele>
        <time>2014-08-02T07:34:37.000Z</time>
      </trkpt>
      <trkpt lat="47.27182" lon="4.9636">
        <ele>432.39999389648</ele>
        <time>2014-08-02T07:34:38.000Z</time>
      </trkpt>
      <trkpt lat="47.2718" lon="4.96353">
        <ele>433.20001220703</ele>
        <time>2014-08-02T07:34:46.000Z</time>
      </trkpt>
      <trkpt lat="47.2718" lon="4.96347">
        <ele>433.79998779297</ele>
        <time>2014-08-02T07:34:50.000Z</time>
      </trkpt>
      <trkpt lat="47.2718" lon="4.96346">
        <ele>434</ele>
        <time>2014-08-02T07:34:51.000Z</time>
      </trkpt>
      <trkpt lat="47.27181" lon="4.96341">
        <ele>434.60000610352</ele>
        <time>2014-08-02T07:34:57.000Z</time>
      </trkpt>
      <trkpt lat="47.27181" lon="4.96338">
        <ele>435</ele>
        <time>2014-08-02T07:34:58.000Z</time>
      </trkpt>
      <trkpt lat="47.27183" lon="4.96331">
        <ele>435.79998779297</ele>
        <time>2014-08-02T07:35:02.000Z</time>
      </trkpt>
      <trkpt lat="47.27184" lon="4.96327">
        <ele>436.39999389648</ele>
        <time>2014-08-02T07:35:04.000Z</time>
      </trkpt>
      <trkpt lat="47.27186" lon="4.96315">
        <ele>438</ele>
        <time>2014-08-02T07:35:15.000Z</time>
      </trkpt>
      <trkpt lat="47.27189" lon="4.96307">
        <ele>437.79998779297</ele>
        <time>2014-08-02T07:35:21.000Z</time>
      </trkpt>
      <trkpt lat="47.2719" lon="4.96304">
        <ele>437.79998779297</ele>
        <time>2014-08-02T07:35:22.000Z</time>
      </trkpt>
      <trkpt lat="47.27193" lon="4.96298">
        <ele>437.39999389648</ele>
        <time>2014-08-02T07:35:26.000Z</time>
      </trkpt>
      <trkpt lat="47.27197" lon="4.96291">
        <ele>437.20001220703</ele>
        <time>2014-08-02T07:35:31.000Z</time>
      </trkpt>
      <trkpt lat="47.27199" lon="4.96284">
        <ele>437.39999389648</ele>
        <time>2014-08-02T07:35:35.000Z</time>
      </trkpt>
      <trkpt lat="47.27202" lon="4.96279">
        <ele>437.39999389648</ele>
        <time>2014-08-02T07:35:40.000Z</time>
      </trkpt>
      <trkpt lat="47.27206" lon="4.96273">
        <ele>437.39999389648</ele>
        <time>2014-08-02T07:35:44.000Z</time>
      </trkpt>
      <trkpt lat="47.27207" lon="4.96272">
        <ele>437.39999389648</ele>
        <time>2014-08-02T07:35:45.000Z</time>
      </trkpt>
      <trkpt lat="47.27212" lon="4.9626">
        <ele>437.79998779297</ele>
        <time>2014-08-02T07:35:51.000Z</time>
      </trkpt>
      <trkpt lat="47.27214" lon="4.96256">
        <ele>438</ele>
        <time>2014-08-02T07:35:54.000Z</time>
      </trkpt>
      <trkpt lat="47.27214" lon="4.96254">
        <ele>438</ele>
        <time>2014-08-02T07:35:55.000Z</time>
      </trkpt>
      <trkpt lat="47.27216" lon="4.96247">
        <ele>438.60000610352</ele>
        <time>2014-08-02T07:35:59.000Z</time>
      </trkpt>
      <trkpt lat="47.27218" lon="4.96237">
        <ele>439.20001220703</ele>
        <time>2014-08-02T07:36:05.000Z</time>
      </trkpt>
      <trkpt lat="47.27218" lon="4.96236">
        <ele>439.39999389648</ele>
        <time>2014-08-02T07:36:06.000Z</time>
      </trkpt>
      <trkpt lat="47.27219" lon="4.96227">
        <ele>440</ele>
        <time>2014-08-02T07:36:10.000Z</time>
      </trkpt>
      <trkpt lat="47.2722" lon="4.96219">
        <ele>440.60000610352</ele>
        <time>2014-08-02T07:36:16.000Z</time>
      </trkpt>
      <trkpt lat="47.27221" lon="4.96218">
        <ele>440.60000610352</ele>
        <time>2014-08-02T07:36:22.000Z</time>
      </trkpt>
      <trkpt lat="47.27222" lon="4.96214">
        <ele>441</ele>
        <time>2014-08-02T07:36:24.000Z</time>
      </trkpt>
      <trkpt lat="47.27223" lon="4.96212">
        <ele>441</ele>
        <time>2014-08-02T07:36:31.000Z</time>
      </trkpt>
      <trkpt lat="47.27225" lon="4.96215">
        <ele>440.60000610352</ele>
        <time>2014-08-02T07:36:42.000Z</time>
      </trkpt>
      <trkpt lat="47.27225" lon="4.96212">
        <ele>441</ele>
        <time>2014-08-02T07:36:50.000Z</time>
      </trkpt>
      <trkpt lat="47.27229" lon="4.96198">
        <ele>441.20001220703</ele>
        <time>2014-08-02T07:37:27.000Z</time>
      </trkpt>
      <trkpt lat="47.27234" lon="4.96197">
        <ele>441</ele>
        <time>2014-08-02T07:38:24.000Z</time>
      </trkpt>
      <trkpt lat="47.27227" lon="4.9622">
        <ele>440.20001220703</ele>
        <time>2014-08-02T07:39:02.000Z</time>
      </trkpt>
      <trkpt lat="47.27227" lon="4.96214">
        <ele>440.60000610352</ele>
        <time>2014-08-02T07:39:07.000Z</time>
      </trkpt>
      <trkpt lat="47.27227" lon="4.96214">
        <ele>440.60000610352</ele>
        <time>2014-08-02T07:39:08.000Z</time>
      </trkpt>
      <trkpt lat="47.27229" lon="4.96222">
        <ele>439.79998779297</ele>
        <time>2014-08-02T07:39:14.000Z</time>
      </trkpt>
      <trkpt lat="47.27231" lon="4.9622">
        <ele>439.79998779297</ele>
        <time>2014-08-02T07:39:15.000Z</time>
      </trkpt>
      <trkpt lat="47.27236" lon="4.9622">
        <ele>439.60000610352</ele>
        <time>2014-08-02T07:39:19.000Z</time>
      </trkpt>
      <trkpt lat="47.27244" lon="4.9622">
        <ele>439.20001220703</ele>
        <time>2014-08-02T07:39:28.000Z</time>
      </trkpt>
      <trkpt lat="47.27251" lon="4.96218">
        <ele>440</ele>
        <time>2014-08-02T07:39:36.000Z</time>
      </trkpt>
      <trkpt lat="47.27259" lon="4.9622">
        <ele>441</ele>
        <time>2014-08-02T07:39:50.000Z</time>
      </trkpt>
      <trkpt lat="47.27263" lon="4.96224">
        <ele>441.20001220703</ele>
        <time>2014-08-02T07:39:56.000Z</time>
      </trkpt>
      <trkpt lat="47.27264" lon="4.96227">
        <ele>441.20001220703</ele>
        <time>2014-08-02T07:40:03.000Z</time>
      </trkpt>
      <trkpt lat="47.27264" lon="4.96227">
        <ele>441.20001220703</ele>
        <time>2014-08-02T07:40:09.000Z</time>
      </trkpt>
      <trkpt lat="47.27263" lon="4.96224">
        <ele>441.20001220703</ele>
        <time>2014-08-02T07:40:13.000Z</time>
      </trkpt>
      <trkpt lat="47.27259" lon="4.9622">
        <ele>441</ele>
        <time>2014-08-02T07:40:22.000Z</time>
      </trkpt>
      <trkpt lat="47.27257" lon="4.9622">
        <ele>440.60000610352</ele>
        <time>2014-08-02T07:40:26.000Z</time>
      </trkpt>
      <trkpt lat="47.27251" lon="4.96221">
        <ele>439.60000610352</ele>
        <time>2014-08-02T07:40:32.000Z</time>
      </trkpt>
      <trkpt lat="47.27251" lon="4.96221">
        <ele>439.60000610352</ele>
        <time>2014-08-02T07:40:33.000Z</time>
      </trkpt>
      <trkpt lat="47.27246" lon="4.96217">
        <ele>439.20001220703</ele>
        <time>2014-08-02T07:40:38.000Z</time>
      </trkpt>
      <trkpt lat="47.27245" lon="4.96216">
        <ele>439.39999389648</ele>
        <time>2014-08-02T07:40:39.000Z</time>
      </trkpt>
      <trkpt lat="47.27243" lon="4.96214">
        <ele>439.60000610352</ele>
        <time>2014-08-02T07:40:42.000Z</time>
      </trkpt>
      <trkpt lat="47.27238" lon="4.96208">
        <ele>440.60000610352</ele>
        <time>2014-08-02T07:40:48.000Z</time>
      </trkpt>
      <trkpt lat="47.27236" lon="4.96204">
        <ele>440.79998779297</ele>
        <time>2014-08-02T07:40:51.000Z</time>
      </trkpt>
      <trkpt lat="47.27235" lon="4.96196">
        <ele>441</ele>
        <time>2014-08-02T07:40:55.000Z</time>
      </trkpt>
      <trkpt lat="47.27237" lon="4.96188">
        <ele>441.79998779297</ele>
        <time>2014-08-02T07:41:00.000Z</time>
      </trkpt>
      <trkpt lat="47.27236" lon="4.96184">
        <ele>442.20001220703</ele>
        <time>2014-08-02T07:41:03.000Z</time>
      </trkpt>
      <trkpt lat="47.27235" lon="4.96173">
        <ele>443.20001220703</ele>
        <time>2014-08-02T07:41:08.000Z</time>
      </trkpt>
      <trkpt lat="47.27235" lon="4.96173">
        <ele>443.20001220703</ele>
        <time>2014-08-02T07:41:09.000Z</time>
      </trkpt>
      <trkpt lat="47.27234" lon="4.96171">
        <ele>443.39999389648</ele>
        <time>2014-08-02T07:41:10.000Z</time>
      </trkpt>
      <trkpt lat="47.27233" lon="4.96165">
        <ele>444</ele>
        <time>2014-08-02T07:41:14.000Z</time>
      </trkpt>
      <trkpt lat="47.27232" lon="4.9616">
        <ele>444.39999389648</ele>
        <time>2014-08-02T07:41:16.000Z</time>
      </trkpt>
      <trkpt lat="47.27231" lon="4.96151">
        <ele>445.20001220703</ele>
        <time>2014-08-02T07:41:20.000Z</time>
      </trkpt>
      <trkpt lat="47.27231" lon="4.9615">
        <ele>445.39999389648</ele>
        <time>2014-08-02T07:41:21.000Z</time>
      </trkpt>
      <trkpt lat="47.27231" lon="4.96146">
        <ele>445.79998779297</ele>
        <time>2014-08-02T07:41:23.000Z</time>
      </trkpt>
      <trkpt lat="47.27229" lon="4.96141">
        <ele>446.20001220703</ele>
        <time>2014-08-02T07:41:27.000Z</time>
      </trkpt>
      <trkpt lat="47.27228" lon="4.9613">
        <ele>447.20001220703</ele>
        <time>2014-08-02T07:41:32.000Z</time>
      </trkpt>
      <trkpt lat="47.27228" lon="4.96127">
        <ele>447.39999389648</ele>
        <time>2014-08-02T07:41:34.000Z</time>
      </trkpt>
      <trkpt lat="47.27228" lon="4.96125">
        <ele>447.79998779297</ele>
        <time>2014-08-02T07:41:36.000Z</time>
      </trkpt>
      <trkpt lat="47.27228" lon="4.96122">
        <ele>448</ele>
        <time>2014-08-02T07:41:39.000Z</time>
      </trkpt>
      <trkpt lat="47.27228" lon="4.96119">
        <ele>448.20001220703</ele>
        <time>2014-08-02T07:41:41.000Z</time>
      </trkpt>
      <trkpt lat="47.27229" lon="4.96111">
        <ele>448.60000610352</ele>
        <time>2014-08-02T07:41:46.000Z</time>
      </trkpt>
      <trkpt lat="47.27229" lon="4.96109">
        <ele>448.79998779297</ele>
        <time>2014-08-02T07:41:47.000Z</time>
      </trkpt>
      <trkpt lat="47.2723" lon="4.96104">
        <ele>449</ele>
        <time>2014-08-02T07:41:52.000Z</time>
      </trkpt>
      <trkpt lat="47.2723" lon="4.96093">
        <ele>449.79998779297</ele>
        <time>2014-08-02T07:42:04.000Z</time>
      </trkpt>
      <trkpt lat="47.27228" lon="4.9609">
        <ele>450</ele>
        <time>2014-08-02T07:42:07.000Z</time>
      </trkpt>
      <trkpt lat="47.27228" lon="4.96088">
        <ele>450.20001220703</ele>
        <time>2014-08-02T07:42:09.000Z</time>
      </trkpt>
      <trkpt lat="47.27227" lon="4.96081">
        <ele>450.60000610352</ele>
        <time>2014-08-02T07:42:14.000Z</time>
      </trkpt>
      <trkpt lat="47.27227" lon="4.96081">
        <ele>450.60000610352</ele>
        <time>2014-08-02T07:42:15.000Z</time>
      </trkpt>
      <trkpt lat="47.27229" lon="4.96077">
        <ele>451</ele>
        <time>2014-08-02T07:42:18.000Z</time>
      </trkpt>
      <trkpt lat="47.2723" lon="4.96071">
        <ele>451.39999389648</ele>
        <time>2014-08-02T07:42:23.000Z</time>
      </trkpt>
      <trkpt lat="47.27232" lon="4.96064">
        <ele>452</ele>
        <time>2014-08-02T07:42:28.000Z</time>
      </trkpt>
      <trkpt lat="47.27232" lon="4.96062">
        <ele>452.20001220703</ele>
        <time>2014-08-02T07:42:30.000Z</time>
      </trkpt>
      <trkpt lat="47.27233" lon="4.9606">
        <ele>452.39999389648</ele>
        <time>2014-08-02T07:42:33.000Z</time>
      </trkpt>
      <trkpt lat="47.27234" lon="4.96053">
        <ele>452.79998779297</ele>
        <time>2014-08-02T07:42:37.000Z</time>
      </trkpt>
      <trkpt lat="47.27236" lon="4.96043">
        <ele>453.60000610352</ele>
        <time>2014-08-02T07:42:43.000Z</time>
      </trkpt>
      <trkpt lat="47.27237" lon="4.96038">
        <ele>453.79998779297</ele>
        <time>2014-08-02T07:42:46.000Z</time>
      </trkpt>
      <trkpt lat="47.27238" lon="4.96036">
        <ele>454</ele>
        <time>2014-08-02T07:42:48.000Z</time>
      </trkpt>
      <trkpt lat="47.27239" lon="4.96031">
        <ele>454.20001220703</ele>
        <time>2014-08-02T07:42:52.000Z</time>
      </trkpt>
      <trkpt lat="47.27242" lon="4.96021">
        <ele>454.60000610352</ele>
        <time>2014-08-02T07:42:59.000Z</time>
      </trkpt>
      <trkpt lat="47.27243" lon="4.96015">
        <ele>454.79998779297</ele>
        <time>2014-08-02T07:43:03.000Z</time>
      </trkpt>
      <trkpt lat="47.27244" lon="4.96003">
        <ele>455.39999389648</ele>
        <time>2014-08-02T07:43:08.000Z</time>
      </trkpt>
      <trkpt lat="47.27244" lon="4.96001">
        <ele>455.39999389648</ele>
        <time>2014-08-02T07:43:10.000Z</time>
      </trkpt>
      <trkpt lat="47.27246" lon="4.95995">
        <ele>455.60000610352</ele>
        <time>2014-08-02T07:43:14.000Z</time>
      </trkpt>
      <trkpt lat="47.27247" lon="4.95991">
        <ele>455.79998779297</ele>
        <time>2014-08-02T07:43:18.000Z</time>
      </trkpt>
      <trkpt lat="47.27251" lon="4.95976">
        <ele>456.60000610352</ele>
        <time>2014-08-02T07:43:26.000Z</time>
      </trkpt>
      <trkpt lat="47.27251" lon="4.95975">
        <ele>456.60000610352</ele>
        <time>2014-08-02T07:43:27.000Z</time>
      </trkpt>
      <trkpt lat="47.27253" lon="4.95965">
        <ele>457.20001220703</ele>
        <time>2014-08-02T07:43:32.000Z</time>
      </trkpt>
      <trkpt lat="47.27254" lon="4.95954">
        <ele>457.39999389648</ele>
        <time>2014-08-02T07:43:36.000Z</time>
      </trkpt>
      <trkpt lat="47.27256" lon="4.95942">
        <ele>457.79998779297</ele>
        <time>2014-08-02T07:43:42.000Z</time>
      </trkpt>
      <trkpt lat="47.27259" lon="4.95931">
        <ele>458</ele>
        <time>2014-08-02T07:43:48.000Z</time>
      </trkpt>
      <trkpt lat="47.27262" lon="4.95916">
        <ele>458.60000610352</ele>
        <time>2014-08-02T07:43:57.000Z</time>
      </trkpt>
      <trkpt lat="47.27263" lon="4.95914">
        <ele>458.60000610352</ele>
        <time>2014-08-02T07:43:58.000Z</time>
      </trkpt>
      <trkpt lat="47.27262" lon="4.95912">
        <ele>458.60000610352</ele>
        <time>2014-08-02T07:44:01.000Z</time>
      </trkpt>
      <trkpt lat="47.27265" lon="4.95902">
        <ele>459</ele>
        <time>2014-08-02T07:44:08.000Z</time>
      </trkpt>
      <trkpt lat="47.27268" lon="4.95886">
        <ele>459</ele>
        <time>2014-08-02T07:44:16.000Z</time>
      </trkpt>
      <trkpt lat="47.27271" lon="4.95873">
        <ele>458.79998779297</ele>
        <time>2014-08-02T07:44:22.000Z</time>
      </trkpt>
      <trkpt lat="47.27271" lon="4.9587">
        <ele>458.79998779297</ele>
        <time>2014-08-02T07:44:23.000Z</time>
      </trkpt>
      <trkpt lat="47.27274" lon="4.95856">
        <ele>459.39999389648</ele>
        <time>2014-08-02T07:44:30.000Z</time>
      </trkpt>
      <trkpt lat="47.27275" lon="4.95853">
        <ele>459.39999389648</ele>
        <time>2014-08-02T07:44:31.000Z</time>
      </trkpt>
      <trkpt lat="47.27276" lon="4.95848">
        <ele>459.60000610352</ele>
        <time>2014-08-02T07:44:34.000Z</time>
      </trkpt>
      <trkpt lat="47.27276" lon="4.95838">
        <ele>460</ele>
        <time>2014-08-02T07:44:40.000Z</time>
      </trkpt>
      <trkpt lat="47.27276" lon="4.95836">
        <ele>460</ele>
        <time>2014-08-02T07:44:41.000Z</time>
      </trkpt>
      <trkpt lat="47.27278" lon="4.95822">
        <ele>460.39999389648</ele>
        <time>2014-08-02T07:44:47.000Z</time>
      </trkpt>
      <trkpt lat="47.27278" lon="4.95817">
        <ele>460.60000610352</ele>
        <time>2014-08-02T07:44:51.000Z</time>
      </trkpt>
      <trkpt lat="47.27278" lon="4.95813">
        <ele>460.60000610352</ele>
        <time>2014-08-02T07:44:53.000Z</time>
      </trkpt>
      <trkpt lat="47.27279" lon="4.95804">
        <ele>460.60000610352</ele>
        <time>2014-08-02T07:44:58.000Z</time>
      </trkpt>
      <trkpt lat="47.2728" lon="4.95794">
        <ele>460.79998779297</ele>
        <time>2014-08-02T07:45:04.000Z</time>
      </trkpt>
      <trkpt lat="47.2728" lon="4.95793">
        <ele>460.79998779297</ele>
        <time>2014-08-02T07:45:05.000Z</time>
      </trkpt>
      <trkpt lat="47.2728" lon="4.95787">
        <ele>461</ele>
        <time>2014-08-02T07:45:09.000Z</time>
      </trkpt>
      <trkpt lat="47.27281" lon="4.95779">
        <ele>461.20001220703</ele>
        <time>2014-08-02T07:45:12.000Z</time>
      </trkpt>
      <trkpt lat="47.27283" lon="4.95772">
        <ele>461.39999389648</ele>
        <time>2014-08-02T07:45:16.000Z</time>
      </trkpt>
      <trkpt lat="47.27285" lon="4.95763">
        <ele>461.60000610352</ele>
        <time>2014-08-02T07:45:20.000Z</time>
      </trkpt>
      <trkpt lat="47.27286" lon="4.95754">
        <ele>461.79998779297</ele>
        <time>2014-08-02T07:45:25.000Z</time>
      </trkpt>
      <trkpt lat="47.27286" lon="4.95752">
        <ele>462</ele>
        <time>2014-08-02T07:45:27.000Z</time>
      </trkpt>
      <trkpt lat="47.27287" lon="4.95739">
        <ele>462.39999389648</ele>
        <time>2014-08-02T07:45:32.000Z</time>
      </trkpt>
      <trkpt lat="47.27288" lon="4.95729">
        <ele>462.39999389648</ele>
        <time>2014-08-02T07:45:37.000Z</time>
      </trkpt>
      <trkpt lat="47.27288" lon="4.95722">
        <ele>462.60000610352</ele>
        <time>2014-08-02T07:45:40.000Z</time>
      </trkpt>
      <trkpt lat="47.27289" lon="4.9571">
        <ele>463</ele>
        <time>2014-08-02T07:45:47.000Z</time>
      </trkpt>
      <trkpt lat="47.2729" lon="4.95693">
        <ele>463</ele>
        <time>2014-08-02T07:45:55.000Z</time>
      </trkpt>
      <trkpt lat="47.27289" lon="4.95687">
        <ele>463.20001220703</ele>
        <time>2014-08-02T07:45:58.000Z</time>
      </trkpt>
      <trkpt lat="47.27289" lon="4.95682">
        <ele>463.20001220703</ele>
        <time>2014-08-02T07:46:02.000Z</time>
      </trkpt>
      <trkpt lat="47.2729" lon="4.95672">
        <ele>463.39999389648</ele>
        <time>2014-08-02T07:46:07.000Z</time>
      </trkpt>
      <trkpt lat="47.2729" lon="4.95662">
        <ele>463.60000610352</ele>
        <time>2014-08-02T07:46:14.000Z</time>
      </trkpt>
      <trkpt lat="47.27291" lon="4.95658">
        <ele>463.60000610352</ele>
        <time>2014-08-02T07:46:16.000Z</time>
      </trkpt>
      <trkpt lat="47.27291" lon="4.95651">
        <ele>463.79998779297</ele>
        <time>2014-08-02T07:46:20.000Z</time>
      </trkpt>
      <trkpt lat="47.27291" lon="4.95646">
        <ele>463.79998779297</ele>
        <time>2014-08-02T07:46:22.000Z</time>
      </trkpt>
      <trkpt lat="47.27291" lon="4.95639">
        <ele>464</ele>
        <time>2014-08-02T07:46:26.000Z</time>
      </trkpt>
      <trkpt lat="47.27291" lon="4.95625">
        <ele>464.39999389648</ele>
        <time>2014-08-02T07:46:32.000Z</time>
      </trkpt>
      <trkpt lat="47.27292" lon="4.9562">
        <ele>464.39999389648</ele>
        <time>2014-08-02T07:46:34.000Z</time>
      </trkpt>
      <trkpt lat="47.27292" lon="4.95611">
        <ele>464.60000610352</ele>
        <time>2014-08-02T07:46:39.000Z</time>
      </trkpt>
      <trkpt lat="47.27293" lon="4.95606">
        <ele>464.60000610352</ele>
        <time>2014-08-02T07:46:40.000Z</time>
      </trkpt>
      <trkpt lat="47.27295" lon="4.95598">
        <ele>464.60000610352</ele>
        <time>2014-08-02T07:46:43.000Z</time>
      </trkpt>
      <trkpt lat="47.27296" lon="4.95586">
        <ele>464.60000610352</ele>
        <time>2014-08-02T07:46:48.000Z</time>
      </trkpt>
      <trkpt lat="47.27295" lon="4.95583">
        <ele>464.60000610352</ele>
        <time>2014-08-02T07:46:50.000Z</time>
      </trkpt>
      <trkpt lat="47.27299" lon="4.95568">
        <ele>464.20001220703</ele>
        <time>2014-08-02T07:46:56.000Z</time>
      </trkpt>
      <trkpt lat="47.27301" lon="4.9555">
        <ele>463.79998779297</ele>
        <time>2014-08-02T07:47:04.000Z</time>
      </trkpt>
      <trkpt lat="47.27301" lon="4.95548">
        <ele>463.79998779297</ele>
        <time>2014-08-02T07:47:05.000Z</time>
      </trkpt>
      <trkpt lat="47.27303" lon="4.95543">
        <ele>463.60000610352</ele>
        <time>2014-08-02T07:47:08.000Z</time>
      </trkpt>
      <trkpt lat="47.27304" lon="4.95537">
        <ele>463.60000610352</ele>
        <time>2014-08-02T07:47:12.000Z</time>
      </trkpt>
      <trkpt lat="47.27307" lon="4.95528">
        <ele>463.39999389648</ele>
        <time>2014-08-02T07:47:17.000Z</time>
      </trkpt>
      <trkpt lat="47.27308" lon="4.95519">
        <ele>463.20001220703</ele>
        <time>2014-08-02T07:47:21.000Z</time>
      </trkpt>
      <trkpt lat="47.2731" lon="4.95511">
        <ele>463.20001220703</ele>
        <time>2014-08-02T07:47:25.000Z</time>
      </trkpt>
      <trkpt lat="47.27311" lon="4.95509">
        <ele>463.20001220703</ele>
        <time>2014-08-02T07:47:27.000Z</time>
      </trkpt>
      <trkpt lat="47.27313" lon="4.955">
        <ele>463</ele>
        <time>2014-08-02T07:47:32.000Z</time>
      </trkpt>
      <trkpt lat="47.27315" lon="4.95488">
        <ele>462.79998779297</ele>
        <time>2014-08-02T07:47:38.000Z</time>
      </trkpt>
      <trkpt lat="47.27316" lon="4.95481">
        <ele>462.79998779297</ele>
        <time>2014-08-02T07:47:42.000Z</time>
      </trkpt>
      <trkpt lat="47.27321" lon="4.95468">
        <ele>462.60000610352</ele>
        <time>2014-08-02T07:47:49.000Z</time>
      </trkpt>
      <trkpt lat="47.27321" lon="4.95467">
        <ele>462.39999389648</ele>
        <time>2014-08-02T07:47:50.000Z</time>
      </trkpt>
      <trkpt lat="47.27322" lon="4.95456">
        <ele>462.39999389648</ele>
        <time>2014-08-02T07:47:56.000Z</time>
      </trkpt>
      <trkpt lat="47.27323" lon="4.95453">
        <ele>462.39999389648</ele>
        <time>2014-08-02T07:47:57.000Z</time>
      </trkpt>
      <trkpt lat="47.27323" lon="4.95441">
        <ele>462</ele>
        <time>2014-08-02T07:48:03.000Z</time>
      </trkpt>
      <trkpt lat="47.27323" lon="4.95431">
        <ele>461.60000610352</ele>
        <time>2014-08-02T07:48:07.000Z</time>
      </trkpt>
      <trkpt lat="47.27324" lon="4.95427">
        <ele>461.39999389648</ele>
        <time>2014-08-02T07:48:09.000Z</time>
      </trkpt>
      <trkpt lat="47.27326" lon="4.95421">
        <ele>461</ele>
        <time>2014-08-02T07:48:12.000Z</time>
      </trkpt>
      <trkpt lat="47.27328" lon="4.95411">
        <ele>460.39999389648</ele>
        <time>2014-08-02T07:48:17.000Z</time>
      </trkpt>
      <trkpt lat="47.2733" lon="4.95403">
        <ele>460</ele>
        <time>2014-08-02T07:48:21.000Z</time>
      </trkpt>
      <trkpt lat="47.27334" lon="4.9539">
        <ele>459.20001220703</ele>
        <time>2014-08-02T07:48:26.000Z</time>
      </trkpt>
      <trkpt lat="47.27335" lon="4.95389">
        <ele>459.20001220703</ele>
        <time>2014-08-02T07:48:27.000Z</time>
      </trkpt>
      <trkpt lat="47.27336" lon="4.95383">
        <ele>458.79998779297</ele>
        <time>2014-08-02T07:48:30.000Z</time>
      </trkpt>
      <trkpt lat="47.27336" lon="4.95378">
        <ele>458.60000610352</ele>
        <time>2014-08-02T07:48:32.000Z</time>
      </trkpt>
      <trkpt lat="47.27336" lon="4.95365">
        <ele>458.20001220703</ele>
        <time>2014-08-02T07:48:39.000Z</time>
      </trkpt>
      <trkpt lat="47.27336" lon="4.95362">
        <ele>458</ele>
        <time>2014-08-02T07:48:41.000Z</time>
      </trkpt>
      <trkpt lat="47.27333" lon="4.95353">
        <ele>458</ele>
        <time>2014-08-02T07:48:55.000Z</time>
      </trkpt>
      <trkpt lat="47.27331" lon="4.95349">
        <ele>458</ele>
        <time>2014-08-02T07:48:58.000Z</time>
      </trkpt>
      <trkpt lat="47.27326" lon="4.9534">
        <ele>458</ele>
        <time>2014-08-02T07:49:05.000Z</time>
      </trkpt>
      <trkpt lat="47.27325" lon="4.95336">
        <ele>458</ele>
        <time>2014-08-02T07:49:08.000Z</time>
      </trkpt>
      <trkpt lat="47.27322" lon="4.9533">
        <ele>458</ele>
        <time>2014-08-02T07:49:13.000Z</time>
      </trkpt>
      <trkpt lat="47.2732" lon="4.95323">
        <ele>458</ele>
        <time>2014-08-02T07:49:18.000Z</time>
      </trkpt>
      <trkpt lat="47.27319" lon="4.9532">
        <ele>458</ele>
        <time>2014-08-02T07:49:20.000Z</time>
      </trkpt>
      <trkpt lat="47.27316" lon="4.95311">
        <ele>457.79998779297</ele>
        <time>2014-08-02T07:49:26.000Z</time>
      </trkpt>
      <trkpt lat="47.27313" lon="4.95302">
        <ele>457.79998779297</ele>
        <time>2014-08-02T07:49:31.000Z</time>
      </trkpt>
      <trkpt lat="47.27309" lon="4.95295">
        <ele>457.79998779297</ele>
        <time>2014-08-02T07:49:36.000Z</time>
      </trkpt>
      <trkpt lat="47.27306" lon="4.95288">
        <ele>457.79998779297</ele>
        <time>2014-08-02T07:49:40.000Z</time>
      </trkpt>
      <trkpt lat="47.27306" lon="4.95286">
        <ele>457.79998779297</ele>
        <time>2014-08-02T07:49:41.000Z</time>
      </trkpt>
      <trkpt lat="47.27301" lon="4.95275">
        <ele>458</ele>
        <time>2014-08-02T07:49:48.000Z</time>
      </trkpt>
      <trkpt lat="47.27297" lon="4.95269">
        <ele>458.20001220703</ele>
        <time>2014-08-02T07:49:52.000Z</time>
      </trkpt>
      <trkpt lat="47.27292" lon="4.95258">
        <ele>458.39999389648</ele>
        <time>2014-08-02T07:49:57.000Z</time>
      </trkpt>
      <trkpt lat="47.27291" lon="4.95256">
        <ele>458.39999389648</ele>
        <time>2014-08-02T07:49:58.000Z</time>
      </trkpt>
      <trkpt lat="47.27287" lon="4.95249">
        <ele>458.60000610352</ele>
        <time>2014-08-02T07:50:02.000Z</time>
      </trkpt>
      <trkpt lat="47.27283" lon="4.95242">
        <ele>458.79998779297</ele>
        <time>2014-08-02T07:50:06.000Z</time>
      </trkpt>
      <trkpt lat="47.27279" lon="4.95232">
        <ele>459.39999389648</ele>
        <time>2014-08-02T07:50:11.000Z</time>
      </trkpt>
      <trkpt lat="47.27278" lon="4.95227">
        <ele>459.60000610352</ele>
        <time>2014-08-02T07:50:16.000Z</time>
      </trkpt>
      <trkpt lat="47.27277" lon="4.95232">
        <ele>459.39999389648</ele>
        <time>2014-08-02T07:50:20.000Z</time>
      </trkpt>
      <trkpt lat="47.27276" lon="4.95229">
        <ele>459.60000610352</ele>
        <time>2014-08-02T07:50:26.000Z</time>
      </trkpt>
      <trkpt lat="47.27271" lon="4.95223">
        <ele>459.79998779297</ele>
        <time>2014-08-02T07:50:30.000Z</time>
      </trkpt>
      <trkpt lat="47.2727" lon="4.95221">
        <ele>460</ele>
        <time>2014-08-02T07:50:31.000Z</time>
      </trkpt>
      <trkpt lat="47.27267" lon="4.9521">
        <ele>460.39999389648</ele>
        <time>2014-08-02T07:50:36.000Z</time>
      </trkpt>
      <trkpt lat="47.27264" lon="4.95197">
        <ele>461</ele>
        <time>2014-08-02T07:50:42.000Z</time>
      </trkpt>
      <trkpt lat="47.27262" lon="4.95189">
        <ele>461.39999389648</ele>
        <time>2014-08-02T07:50:46.000Z</time>
      </trkpt>
      <trkpt lat="47.27263" lon="4.95186">
        <ele>461.60000610352</ele>
        <time>2014-08-02T07:50:48.000Z</time>
      </trkpt>
      <trkpt lat="47.27264" lon="4.95174">
        <ele>462.20001220703</ele>
        <time>2014-08-02T07:50:53.000Z</time>
      </trkpt>
      <trkpt lat="47.27269" lon="4.95158">
        <ele>462.79998779297</ele>
        <time>2014-08-02T07:50:59.000Z</time>
      </trkpt>
      <trkpt lat="47.2727" lon="4.95155">
        <ele>463</ele>
        <time>2014-08-02T07:51:01.000Z</time>
      </trkpt>
      <trkpt lat="47.27274" lon="4.95146">
        <ele>463.20001220703</ele>
        <time>2014-08-02T07:51:06.000Z</time>
      </trkpt>
      <trkpt lat="47.27278" lon="4.95136">
        <ele>463.39999389648</ele>
        <time>2014-08-02T07:51:12.000Z</time>
      </trkpt>
      <trkpt lat="47.2728" lon="4.95131">
        <ele>463.60000610352</ele>
        <time>2014-08-02T07:51:15.000Z</time>
      </trkpt>
      <trkpt lat="47.27283" lon="4.95128">
        <ele>463.60000610352</ele>
        <time>2014-08-02T07:51:19.000Z</time>
      </trkpt>
      <trkpt lat="47.27287" lon="4.95124">
        <ele>463.60000610352</ele>
        <time>2014-08-02T07:51:24.000Z</time>
      </trkpt>
      <trkpt lat="47.27291" lon="4.95117">
        <ele>463.39999389648</ele>
        <time>2014-08-02T07:51:29.000Z</time>
      </trkpt>
      <trkpt lat="47.27296" lon="4.9511">
        <ele>463.39999389648</ele>
        <time>2014-08-02T07:51:36.000Z</time>
      </trkpt>
      <trkpt lat="47.27301" lon="4.95103">
        <ele>463.20001220703</ele>
        <time>2014-08-02T07:51:40.000Z</time>
      </trkpt>
      <trkpt lat="47.27303" lon="4.951">
        <ele>463.20001220703</ele>
        <time>2014-08-02T07:51:42.000Z</time>
      </trkpt>
      <trkpt lat="47.27312" lon="4.95089">
        <ele>463.39999389648</ele>
        <time>2014-08-02T07:51:49.000Z</time>
      </trkpt>
      <trkpt lat="47.27314" lon="4.95085">
        <ele>463.60000610352</ele>
        <time>2014-08-02T07:51:51.000Z</time>
      </trkpt>
      <trkpt lat="47.27321" lon="4.95076">
        <ele>463.79998779297</ele>
        <time>2014-08-02T07:51:58.000Z</time>
      </trkpt>
      <trkpt lat="47.27325" lon="4.95068">
        <ele>464</ele>
        <time>2014-08-02T07:52:03.000Z</time>
      </trkpt>
      <trkpt lat="47.27329" lon="4.9506">
        <ele>464.39999389648</ele>
        <time>2014-08-02T07:52:08.000Z</time>
      </trkpt>
      <trkpt lat="47.27332" lon="4.95053">
        <ele>464.60000610352</ele>
        <time>2014-08-02T07:52:11.000Z</time>
      </trkpt>
      <trkpt lat="47.27337" lon="4.95039">
        <ele>464.79998779297</ele>
        <time>2014-08-02T07:52:17.000Z</time>
      </trkpt>
      <trkpt lat="47.2734" lon="4.95032">
        <ele>464.79998779297</ele>
        <time>2014-08-02T07:52:19.000Z</time>
      </trkpt>
      <trkpt lat="47.27345" lon="4.95018">
        <ele>465</ele>
        <time>2014-08-02T07:52:25.000Z</time>
      </trkpt>
      <trkpt lat="47.27345" lon="4.95015">
        <ele>465</ele>
        <time>2014-08-02T07:52:27.000Z</time>
      </trkpt>
      <trkpt lat="47.27346" lon="4.95008">
        <ele>465.20001220703</ele>
        <time>2014-08-02T07:52:32.000Z</time>
      </trkpt>
      <trkpt lat="47.27348" lon="4.95003">
        <ele>465.20001220703</ele>
        <time>2014-08-02T07:52:35.000Z</time>
      </trkpt>
      <trkpt lat="47.27349" lon="4.94999">
        <ele>465.39999389648</ele>
        <time>2014-08-02T07:52:39.000Z</time>
      </trkpt>
      <trkpt lat="47.27349" lon="4.94996">
        <ele>465.39999389648</ele>
        <time>2014-08-02T07:52:41.000Z</time>
      </trkpt>
      <trkpt lat="47.2735" lon="4.94984">
        <ele>465.60000610352</ele>
        <time>2014-08-02T07:52:47.000Z</time>
      </trkpt>
      <trkpt lat="47.2735" lon="4.94982">
        <ele>465.60000610352</ele>
        <time>2014-08-02T07:52:48.000Z</time>
      </trkpt>
      <trkpt lat="47.2735" lon="4.94974">
        <ele>465.79998779297</ele>
        <time>2014-08-02T07:52:53.000Z</time>
      </trkpt>
      <trkpt lat="47.2735" lon="4.94972">
        <ele>465.79998779297</ele>
        <time>2014-08-02T07:52:54.000Z</time>
      </trkpt>
      <trkpt lat="47.2735" lon="4.94965">
        <ele>466</ele>
        <time>2014-08-02T07:52:57.000Z</time>
      </trkpt>
      <trkpt lat="47.27352" lon="4.94951">
        <ele>466</ele>
        <time>2014-08-02T07:53:03.000Z</time>
      </trkpt>
      <trkpt lat="47.27355" lon="4.94939">
        <ele>465.79998779297</ele>
        <time>2014-08-02T07:53:08.000Z</time>
      </trkpt>
      <trkpt lat="47.27355" lon="4.94934">
        <ele>465.79998779297</ele>
        <time>2014-08-02T07:53:10.000Z</time>
      </trkpt>
      <trkpt lat="47.27356" lon="4.94922">
        <ele>465.79998779297</ele>
        <time>2014-08-02T07:53:16.000Z</time>
      </trkpt>
      <trkpt lat="47.27358" lon="4.94906">
        <ele>465.60000610352</ele>
        <time>2014-08-02T07:53:23.000Z</time>
      </trkpt>
      <trkpt lat="47.2736" lon="4.94898">
        <ele>465.39999389648</ele>
        <time>2014-08-02T07:53:26.000Z</time>
      </trkpt>
      <trkpt lat="47.2736" lon="4.94886">
        <ele>465.20001220703</ele>
        <time>2014-08-02T07:53:31.000Z</time>
      </trkpt>
      <trkpt lat="47.27362" lon="4.94876">
        <ele>465</ele>
        <time>2014-08-02T07:53:36.000Z</time>
      </trkpt>
      <trkpt lat="47.27363" lon="4.94868">
        <ele>464.79998779297</ele>
        <time>2014-08-02T07:53:39.000Z</time>
      </trkpt>
      <trkpt lat="47.27364" lon="4.94864">
        <ele>464.79998779297</ele>
        <time>2014-08-02T07:53:42.000Z</time>
      </trkpt>
      <trkpt lat="47.27366" lon="4.94848">
        <ele>464.20001220703</ele>
        <time>2014-08-02T07:53:49.000Z</time>
      </trkpt>
      <trkpt lat="47.27366" lon="4.94842">
        <ele>464</ele>
        <time>2014-08-02T07:53:52.000Z</time>
      </trkpt>
      <trkpt lat="47.27366" lon="4.94832">
        <ele>463.79998779297</ele>
        <time>2014-08-02T07:53:57.000Z</time>
      </trkpt>
      <trkpt lat="47.27367" lon="4.94829">
        <ele>463.60000610352</ele>
        <time>2014-08-02T07:53:59.000Z</time>
      </trkpt>
      <trkpt lat="47.27368" lon="4.94824">
        <ele>463.79998779297</ele>
        <time>2014-08-02T07:54:02.000Z</time>
      </trkpt>
      <trkpt lat="47.2737" lon="4.94813">
        <ele>464</ele>
        <time>2014-08-02T07:54:09.000Z</time>
      </trkpt>
      <trkpt lat="47.27371" lon="4.94799">
        <ele>464.20001220703</ele>
        <time>2014-08-02T07:54:14.000Z</time>
      </trkpt>
      <trkpt lat="47.27371" lon="4.94793">
        <ele>464.39999389648</ele>
        <time>2014-08-02T07:54:17.000Z</time>
      </trkpt>
      <trkpt lat="47.27372" lon="4.94785">
        <ele>464.39999389648</ele>
        <time>2014-08-02T07:54:22.000Z</time>
      </trkpt>
      <trkpt lat="47.27374" lon="4.94772">
        <ele>464.39999389648</ele>
        <time>2014-08-02T07:54:29.000Z</time>
      </trkpt>
      <trkpt lat="47.27376" lon="4.9476">
        <ele>464.39999389648</ele>
        <time>2014-08-02T07:54:34.000Z</time>
      </trkpt>
      <trkpt lat="47.27376" lon="4.94759">
        <ele>464.39999389648</ele>
        <time>2014-08-02T07:54:35.000Z</time>
      </trkpt>
      <trkpt lat="47.27377" lon="4.94752">
        <ele>464.60000610352</ele>
        <time>2014-08-02T07:54:38.000Z</time>
      </trkpt>
      <trkpt lat="47.27378" lon="4.94744">
        <ele>465</ele>
        <time>2014-08-02T07:54:44.000Z</time>
      </trkpt>
      <trkpt lat="47.27378" lon="4.94743">
        <ele>465</ele>
        <time>2014-08-02T07:54:45.000Z</time>
      </trkpt>
      <trkpt lat="47.27381" lon="4.94739">
        <ele>465.39999389648</ele>
        <time>2014-08-02T07:54:53.000Z</time>
      </trkpt>
      <trkpt lat="47.27388" lon="4.94733">
        <ele>465.79998779297</ele>
        <time>2014-08-02T07:55:14.000Z</time>
      </trkpt>
      <trkpt lat="47.27389" lon="4.94732">
        <ele>466</ele>
        <time>2014-08-02T07:55:18.000Z</time>
      </trkpt>
      <trkpt lat="47.27389" lon="4.94731">
        <ele>466</ele>
        <time>2014-08-02T07:55:25.000Z</time>
      </trkpt>
      <trkpt lat="47.27387" lon="4.94733">
        <ele>465.79998779297</ele>
        <time>2014-08-02T07:55:35.000Z</time>
      </trkpt>
      <trkpt lat="47.27391" lon="4.94727">
        <ele>466.20001220703</ele>
        <time>2014-08-02T07:55:53.000Z</time>
      </trkpt>
      <trkpt lat="47.27392" lon="4.94722">
        <ele>466.60000610352</ele>
        <time>2014-08-02T07:55:57.000Z</time>
      </trkpt>
      <trkpt lat="47.27392" lon="4.9472">
        <ele>466.60000610352</ele>
        <time>2014-08-02T07:55:59.000Z</time>
      </trkpt>
      <trkpt lat="47.27394" lon="4.94717">
        <ele>466.79998779297</ele>
        <time>2014-08-02T07:56:02.000Z</time>
      </trkpt>
      <trkpt lat="47.27394" lon="4.94713">
        <ele>467</ele>
        <time>2014-08-02T07:56:05.000Z</time>
      </trkpt>
      <trkpt lat="47.27397" lon="4.94708">
        <ele>467.39999389648</ele>
        <time>2014-08-02T07:56:09.000Z</time>
      </trkpt>
      <trkpt lat="47.27398" lon="4.94705">
        <ele>467.39999389648</ele>
        <time>2014-08-02T07:56:11.000Z</time>
      </trkpt>
      <trkpt lat="47.27401" lon="4.94701">
        <ele>467.60000610352</ele>
        <time>2014-08-02T07:56:14.000Z</time>
      </trkpt>
      <trkpt lat="47.27405" lon="4.94694">
        <ele>468</ele>
        <time>2014-08-02T07:56:19.000Z</time>
      </trkpt>
      <trkpt lat="47.2741" lon="4.94686">
        <ele>468.60000610352</ele>
        <time>2014-08-02T07:56:24.000Z</time>
      </trkpt>
      <trkpt lat="47.27418" lon="4.94677">
        <ele>469</ele>
        <time>2014-08-02T07:56:30.000Z</time>
      </trkpt>
      <trkpt lat="47.27422" lon="4.94673">
        <ele>469.20001220703</ele>
        <time>2014-08-02T07:56:34.000Z</time>
      </trkpt>
      <trkpt lat="47.27424" lon="4.94672">
        <ele>469.20001220703</ele>
        <time>2014-08-02T07:56:36.000Z</time>
      </trkpt>
      <trkpt lat="47.27429" lon="4.94669">
        <ele>469.39999389648</ele>
        <time>2014-08-02T07:56:41.000Z</time>
      </trkpt>
      <trkpt lat="47.27435" lon="4.94668">
        <ele>469.39999389648</ele>
        <time>2014-08-02T07:56:45.000Z</time>
      </trkpt>
      <trkpt lat="47.27441" lon="4.94667">
        <ele>469.39999389648</ele>
        <time>2014-08-02T07:56:49.000Z</time>
      </trkpt>
      <trkpt lat="47.2745" lon="4.94667">
        <ele>469.39999389648</ele>
        <time>2014-08-02T07:56:56.000Z</time>
      </trkpt>
      <trkpt lat="47.27462" lon="4.94668">
        <ele>469.39999389648</ele>
        <time>2014-08-02T07:57:04.000Z</time>
      </trkpt>
      <trkpt lat="47.2747" lon="4.94671">
        <ele>469.39999389648</ele>
        <time>2014-08-02T07:57:10.000Z</time>
      </trkpt>
      <trkpt lat="47.27472" lon="4.94671">
        <ele>469.39999389648</ele>
        <time>2014-08-02T07:57:11.000Z</time>
      </trkpt>
      <trkpt lat="47.27476" lon="4.94671">
        <ele>469.39999389648</ele>
        <time>2014-08-02T07:57:14.000Z</time>
      </trkpt>
      <trkpt lat="47.27481" lon="4.94672">
        <ele>469.60000610352</ele>
        <time>2014-08-02T07:57:18.000Z</time>
      </trkpt>
      <trkpt lat="47.27488" lon="4.94673">
        <ele>469.60000610352</ele>
        <time>2014-08-02T07:57:23.000Z</time>
      </trkpt>
      <trkpt lat="47.27489" lon="4.94674">
        <ele>469.60000610352</ele>
        <time>2014-08-02T07:57:24.000Z</time>
      </trkpt>
      <trkpt lat="47.27494" lon="4.94675">
        <ele>469.60000610352</ele>
        <time>2014-08-02T07:57:28.000Z</time>
      </trkpt>
      <trkpt lat="47.27495" lon="4.94675">
        <ele>469.60000610352</ele>
        <time>2014-08-02T07:57:29.000Z</time>
      </trkpt>
      <trkpt lat="47.27503" lon="4.94677">
        <ele>470</ele>
        <time>2014-08-02T07:57:35.000Z</time>
      </trkpt>
      <trkpt lat="47.27505" lon="4.94677">
        <ele>470</ele>
        <time>2014-08-02T07:57:36.000Z</time>
      </trkpt>
      <trkpt lat="47.27509" lon="4.94679">
        <ele>470.20001220703</ele>
        <time>2014-08-02T07:57:39.000Z</time>
      </trkpt>
      <trkpt lat="47.27517" lon="4.94682">
        <ele>470.60000610352</ele>
        <time>2014-08-02T07:57:45.000Z</time>
      </trkpt>
      <trkpt lat="47.27519" lon="4.94681">
        <ele>471</ele>
        <time>2014-08-02T07:57:51.000Z</time>
      </trkpt>
      <trkpt lat="47.27526" lon="4.94682">
        <ele>471.39999389648</ele>
        <time>2014-08-02T07:57:56.000Z</time>
      </trkpt>
      <trkpt lat="47.27534" lon="4.94686">
        <ele>471.79998779297</ele>
        <time>2014-08-02T07:58:03.000Z</time>
      </trkpt>
      <trkpt lat="47.27535" lon="4.94687">
        <ele>471.79998779297</ele>
        <time>2014-08-02T07:58:04.000Z</time>
      </trkpt>
      <trkpt lat="47.27539" lon="4.9469">
        <ele>472</ele>
        <time>2014-08-02T07:58:07.000Z</time>
      </trkpt>
      <trkpt lat="47.27547" lon="4.94693">
        <ele>472.39999389648</ele>
        <time>2014-08-02T07:58:14.000Z</time>
      </trkpt>
      <trkpt lat="47.2755" lon="4.94693">
        <ele>472.60000610352</ele>
        <time>2014-08-02T07:58:16.000Z</time>
      </trkpt>
      <trkpt lat="47.27557" lon="4.94693">
        <ele>473</ele>
        <time>2014-08-02T07:58:21.000Z</time>
      </trkpt>
      <trkpt lat="47.27562" lon="4.94694">
        <ele>473.39999389648</ele>
        <time>2014-08-02T07:58:24.000Z</time>
      </trkpt>
      <trkpt lat="47.27567" lon="4.94694">
        <ele>473.79998779297</ele>
        <time>2014-08-02T07:58:28.000Z</time>
      </trkpt>
      <trkpt lat="47.27575" lon="4.94695">
        <ele>474</ele>
        <time>2014-08-02T07:58:34.000Z</time>
      </trkpt>
      <trkpt lat="47.27579" lon="4.94696">
        <ele>474.20001220703</ele>
        <time>2014-08-02T07:58:37.000Z</time>
      </trkpt>
      <trkpt lat="47.27581" lon="4.94697">
        <ele>474.20001220703</ele>
        <time>2014-08-02T07:58:39.000Z</time>
      </trkpt>
      <trkpt lat="47.27589" lon="4.94695">
        <ele>474.39999389648</ele>
        <time>2014-08-02T07:58:43.000Z</time>
      </trkpt>
      <trkpt lat="47.27599" lon="4.94695">
        <ele>474.60000610352</ele>
        <time>2014-08-02T07:58:49.000Z</time>
      </trkpt>
      <trkpt lat="47.27602" lon="4.94695">
        <ele>474.60000610352</ele>
        <time>2014-08-02T07:58:51.000Z</time>
      </trkpt>
      <trkpt lat="47.27603" lon="4.94694">
        <ele>474.60000610352</ele>
        <time>2014-08-02T07:58:53.000Z</time>
      </trkpt>
      <trkpt lat="47.27614" lon="4.9469">
        <ele>474.79998779297</ele>
        <time>2014-08-02T07:58:59.000Z</time>
      </trkpt>
      <trkpt lat="47.27615" lon="4.9469">
        <ele>474.79998779297</ele>
        <time>2014-08-02T07:59:00.000Z</time>
      </trkpt>
      <trkpt lat="47.27618" lon="4.9469">
        <ele>474.79998779297</ele>
        <time>2014-08-02T07:59:02.000Z</time>
      </trkpt>
      <trkpt lat="47.27623" lon="4.94691">
        <ele>475</ele>
        <time>2014-08-02T07:59:06.000Z</time>
      </trkpt>
      <trkpt lat="47.27625" lon="4.94691">
        <ele>475</ele>
        <time>2014-08-02T07:59:07.000Z</time>
      </trkpt>
      <trkpt lat="47.27626" lon="4.9469">
        <ele>475</ele>
        <time>2014-08-02T07:59:08.000Z</time>
      </trkpt>
      <trkpt lat="47.27631" lon="4.94688">
        <ele>475</ele>
        <time>2014-08-02T07:59:12.000Z</time>
      </trkpt>
      <trkpt lat="47.27636" lon="4.94685">
        <ele>475.20001220703</ele>
        <time>2014-08-02T07:59:15.000Z</time>
      </trkpt>
      <trkpt lat="47.27642" lon="4.94681">
        <ele>475.39999389648</ele>
        <time>2014-08-02T07:59:19.000Z</time>
      </trkpt>
      <trkpt lat="47.27644" lon="4.94681">
        <ele>475.39999389648</ele>
        <time>2014-08-02T07:59:20.000Z</time>
      </trkpt>
      <trkpt lat="47.27647" lon="4.94679">
        <ele>475.39999389648</ele>
        <time>2014-08-02T07:59:22.000Z</time>
      </trkpt>
      <trkpt lat="47.27651" lon="4.94679">
        <ele>475.60000610352</ele>
        <time>2014-08-02T07:59:25.000Z</time>
      </trkpt>
      <trkpt lat="47.27658" lon="4.94677">
        <ele>475.60000610352</ele>
        <time>2014-08-02T07:59:30.000Z</time>
      </trkpt>
      <trkpt lat="47.27662" lon="4.94676">
        <ele>475.79998779297</ele>
        <time>2014-08-02T07:59:33.000Z</time>
      </trkpt>
      <trkpt lat="47.27669" lon="4.94676">
        <ele>475.60000610352</ele>
        <time>2014-08-02T07:59:39.000Z</time>
      </trkpt>
      <trkpt lat="47.27682" lon="4.9467">
        <ele>475.60000610352</ele>
        <time>2014-08-02T07:59:49.000Z</time>
      </trkpt>
      <trkpt lat="47.27688" lon="4.94666">
        <ele>475.79998779297</ele>
        <time>2014-08-02T07:59:54.000Z</time>
      </trkpt>
      <trkpt lat="47.27691" lon="4.94666">
        <ele>475.60000610352</ele>
        <time>2014-08-02T07:59:56.000Z</time>
      </trkpt>
      <trkpt lat="47.27699" lon="4.94662">
        <ele>475.60000610352</ele>
        <time>2014-08-02T08:00:01.000Z</time>
      </trkpt>
      <trkpt lat="47.277" lon="4.9466">
        <ele>475.60000610352</ele>
        <time>2014-08-02T08:00:02.000Z</time>
      </trkpt>
      <trkpt lat="47.27703" lon="4.94658">
        <ele>475.79998779297</ele>
        <time>2014-08-02T08:00:04.000Z</time>
      </trkpt>
      <trkpt lat="47.27712" lon="4.94649">
        <ele>476.20001220703</ele>
        <time>2014-08-02T08:00:10.000Z</time>
      </trkpt>
      <trkpt lat="47.2772" lon="4.9464">
        <ele>476.39999389648</ele>
        <time>2014-08-02T08:00:16.000Z</time>
      </trkpt>
      <trkpt lat="47.27721" lon="4.9464">
        <ele>476.39999389648</ele>
        <time>2014-08-02T08:00:17.000Z</time>
      </trkpt>
      <trkpt lat="47.27724" lon="4.94639">
        <ele>476.39999389648</ele>
        <time>2014-08-02T08:00:19.000Z</time>
      </trkpt>
      <trkpt lat="47.27729" lon="4.94633">
        <ele>476.60000610352</ele>
        <time>2014-08-02T08:00:23.000Z</time>
      </trkpt>
      <trkpt lat="47.27739" lon="4.94623">
        <ele>477</ele>
        <time>2014-08-02T08:00:31.000Z</time>
      </trkpt>
      <trkpt lat="47.27745" lon="4.94617">
        <ele>477</ele>
        <time>2014-08-02T08:00:36.000Z</time>
      </trkpt>
      <trkpt lat="47.2775" lon="4.94613">
        <ele>476.79998779297</ele>
        <time>2014-08-02T08:00:40.000Z</time>
      </trkpt>
      <trkpt lat="47.27752" lon="4.94607">
        <ele>476.60000610352</ele>
        <time>2014-08-02T08:00:44.000Z</time>
      </trkpt>
      <trkpt lat="47.27758" lon="4.946">
        <ele>476.20001220703</ele>
        <time>2014-08-02T08:00:49.000Z</time>
      </trkpt>
      <trkpt lat="47.27758" lon="4.94599">
        <ele>476.20001220703</ele>
        <time>2014-08-02T08:00:50.000Z</time>
      </trkpt>
      <trkpt lat="47.27763" lon="4.94589">
        <ele>475.79998779297</ele>
        <time>2014-08-02T08:00:57.000Z</time>
      </trkpt>
      <trkpt lat="47.27767" lon="4.94584">
        <ele>475.60000610352</ele>
        <time>2014-08-02T08:01:00.000Z</time>
      </trkpt>
      <trkpt lat="47.27768" lon="4.94581">
        <ele>475.39999389648</ele>
        <time>2014-08-02T08:01:02.000Z</time>
      </trkpt>
      <trkpt lat="47.27771" lon="4.94576">
        <ele>475.20001220703</ele>
        <time>2014-08-02T08:01:06.000Z</time>
      </trkpt>
      <trkpt lat="47.27774" lon="4.94569">
        <ele>475</ele>
        <time>2014-08-02T08:01:10.000Z</time>
      </trkpt>
      <trkpt lat="47.27775" lon="4.94568">
        <ele>475</ele>
        <time>2014-08-02T08:01:11.000Z</time>
      </trkpt>
      <trkpt lat="47.27778" lon="4.94558">
        <ele>474.79998779297</ele>
        <time>2014-08-02T08:01:16.000Z</time>
      </trkpt>
      <trkpt lat="47.2778" lon="4.94554">
        <ele>474.79998779297</ele>
        <time>2014-08-02T08:01:18.000Z</time>
      </trkpt>
      <trkpt lat="47.27784" lon="4.94546">
        <ele>474.60000610352</ele>
        <time>2014-08-02T08:01:23.000Z</time>
      </trkpt>
      <trkpt lat="47.27785" lon="4.94544">
        <ele>474.60000610352</ele>
        <time>2014-08-02T08:01:24.000Z</time>
      </trkpt>
      <trkpt lat="47.27787" lon="4.94538">
        <ele>474.60000610352</ele>
        <time>2014-08-02T08:01:27.000Z</time>
      </trkpt>
      <trkpt lat="47.27788" lon="4.94536">
        <ele>474.60000610352</ele>
        <time>2014-08-02T08:01:28.000Z</time>
      </trkpt>
      <trkpt lat="47.27791" lon="4.94524">
        <ele>475</ele>
        <time>2014-08-02T08:01:34.000Z</time>
      </trkpt>
      <trkpt lat="47.27795" lon="4.94517">
        <ele>475.20001220703</ele>
        <time>2014-08-02T08:01:37.000Z</time>
      </trkpt>
      <trkpt lat="47.27797" lon="4.9451">
        <ele>475.20001220703</ele>
        <time>2014-08-02T08:01:41.000Z</time>
      </trkpt>
      <trkpt lat="47.27799" lon="4.94496">
        <ele>475.20001220703</ele>
        <time>2014-08-02T08:01:47.000Z</time>
      </trkpt>
      <trkpt lat="47.27801" lon="4.94491">
        <ele>475</ele>
        <time>2014-08-02T08:01:49.000Z</time>
      </trkpt>
      <trkpt lat="47.27802" lon="4.94488">
        <ele>475</ele>
        <time>2014-08-02T08:01:50.000Z</time>
      </trkpt>
      <trkpt lat="47.27808" lon="4.94473">
        <ele>474.60000610352</ele>
        <time>2014-08-02T08:01:56.000Z</time>
      </trkpt>
      <trkpt lat="47.27815" lon="4.94458">
        <ele>474</ele>
        <time>2014-08-02T08:02:02.000Z</time>
      </trkpt>
      <trkpt lat="47.27819" lon="4.94445">
        <ele>473.79998779297</ele>
        <time>2014-08-02T08:02:07.000Z</time>
      </trkpt>
      <trkpt lat="47.27826" lon="4.94428">
        <ele>473.20001220703</ele>
        <time>2014-08-02T08:02:14.000Z</time>
      </trkpt>
      <trkpt lat="47.27828" lon="4.94421">
        <ele>473.20001220703</ele>
        <time>2014-08-02T08:02:17.000Z</time>
      </trkpt>
      <trkpt lat="47.27833" lon="4.94405">
        <ele>472.79998779297</ele>
        <time>2014-08-02T08:02:24.000Z</time>
      </trkpt>
      <trkpt lat="47.27836" lon="4.9439">
        <ele>472.79998779297</ele>
        <time>2014-08-02T08:02:31.000Z</time>
      </trkpt>
      <trkpt lat="47.27836" lon="4.94387">
        <ele>472.79998779297</ele>
        <time>2014-08-02T08:02:32.000Z</time>
      </trkpt>
      <trkpt lat="47.27836" lon="4.94383">
        <ele>472.60000610352</ele>
        <time>2014-08-02T08:02:34.000Z</time>
      </trkpt>
      <trkpt lat="47.27839" lon="4.94372">
        <ele>472.39999389648</ele>
        <time>2014-08-02T08:02:40.000Z</time>
      </trkpt>
      <trkpt lat="47.27842" lon="4.94361">
        <ele>472.39999389648</ele>
        <time>2014-08-02T08:02:47.000Z</time>
      </trkpt>
      <trkpt lat="47.27843" lon="4.94349">
        <ele>472.60000610352</ele>
        <time>2014-08-02T08:02:54.000Z</time>
      </trkpt>
      <trkpt lat="47.27844" lon="4.94345">
        <ele>472.39999389648</ele>
        <time>2014-08-02T08:02:56.000Z</time>
      </trkpt>
      <trkpt lat="47.27848" lon="4.94325">
        <ele>472.39999389648</ele>
        <time>2014-08-02T08:03:05.000Z</time>
      </trkpt>
      <trkpt lat="47.27849" lon="4.94308">
        <ele>472.60000610352</ele>
        <time>2014-08-02T08:03:13.000Z</time>
      </trkpt>
      <trkpt lat="47.27849" lon="4.94296">
        <ele>472.60000610352</ele>
        <time>2014-08-02T08:03:19.000Z</time>
      </trkpt>
      <trkpt lat="47.27852" lon="4.94283">
        <ele>472.60000610352</ele>
        <time>2014-08-02T08:03:25.000Z</time>
      </trkpt>
      <trkpt lat="47.27852" lon="4.94272">
        <ele>472.79998779297</ele>
        <time>2014-08-02T08:03:31.000Z</time>
      </trkpt>
      <trkpt lat="47.27852" lon="4.94267">
        <ele>473</ele>
        <time>2014-08-02T08:03:34.000Z</time>
      </trkpt>
      <trkpt lat="47.27852" lon="4.94254">
        <ele>473.20001220703</ele>
        <time>2014-08-02T08:03:41.000Z</time>
      </trkpt>
      <trkpt lat="47.27853" lon="4.9424">
        <ele>473.60000610352</ele>
        <time>2014-08-02T08:03:48.000Z</time>
      </trkpt>
      <trkpt lat="47.27853" lon="4.94238">
        <ele>473.60000610352</ele>
        <time>2014-08-02T08:03:49.000Z</time>
      </trkpt>
      <trkpt lat="47.27853" lon="4.94233">
        <ele>473.79998779297</ele>
        <time>2014-08-02T08:03:52.000Z</time>
      </trkpt>
      <trkpt lat="47.27854" lon="4.94222">
        <ele>473.79998779297</ele>
        <time>2014-08-02T08:03:57.000Z</time>
      </trkpt>
      <trkpt lat="47.27854" lon="4.94212">
        <ele>474</ele>
        <time>2014-08-02T08:04:01.000Z</time>
      </trkpt>
      <trkpt lat="47.27853" lon="4.94202">
        <ele>474</ele>
        <time>2014-08-02T08:04:06.000Z</time>
      </trkpt>
      <trkpt lat="47.27853" lon="4.94196">
        <ele>474.20001220703</ele>
        <time>2014-08-02T08:04:09.000Z</time>
      </trkpt>
      <trkpt lat="47.27851" lon="4.94185">
        <ele>474.39999389648</ele>
        <time>2014-08-02T08:04:15.000Z</time>
      </trkpt>
      <trkpt lat="47.27851" lon="4.94183">
        <ele>474.60000610352</ele>
        <time>2014-08-02T08:04:16.000Z</time>
      </trkpt>
      <trkpt lat="47.27851" lon="4.94174">
        <ele>474.60000610352</ele>
        <time>2014-08-02T08:04:21.000Z</time>
      </trkpt>
      <trkpt lat="47.2785" lon="4.9417">
        <ele>474.79998779297</ele>
        <time>2014-08-02T08:04:23.000Z</time>
      </trkpt>
      <trkpt lat="47.27851" lon="4.94156">
        <ele>474.79998779297</ele>
        <time>2014-08-02T08:04:30.000Z</time>
      </trkpt>
      <trkpt lat="47.2785" lon="4.94141">
        <ele>475</ele>
        <time>2014-08-02T08:04:37.000Z</time>
      </trkpt>
      <trkpt lat="47.27851" lon="4.94139">
        <ele>475</ele>
        <time>2014-08-02T08:04:38.000Z</time>
      </trkpt>
      <trkpt lat="47.27852" lon="4.94128">
        <ele>474.79998779297</ele>
        <time>2014-08-02T08:04:43.000Z</time>
      </trkpt>
      <trkpt lat="47.27853" lon="4.9411">
        <ele>474.60000610352</ele>
        <time>2014-08-02T08:04:51.000Z</time>
      </trkpt>
      <trkpt lat="47.27853" lon="4.94109">
        <ele>474.60000610352</ele>
        <time>2014-08-02T08:04:52.000Z</time>
      </trkpt>
      <trkpt lat="47.27853" lon="4.94099">
        <ele>474.60000610352</ele>
        <time>2014-08-02T08:04:56.000Z</time>
      </trkpt>
      <trkpt lat="47.27851" lon="4.94079">
        <ele>474.39999389648</ele>
        <time>2014-08-02T08:05:05.000Z</time>
      </trkpt>
      <trkpt lat="47.27851" lon="4.94077">
        <ele>474.39999389648</ele>
        <time>2014-08-02T08:05:06.000Z</time>
      </trkpt>
      <trkpt lat="47.27849" lon="4.94067">
        <ele>474.39999389648</ele>
        <time>2014-08-02T08:05:11.000Z</time>
      </trkpt>
      <trkpt lat="47.27847" lon="4.94057">
        <ele>474.60000610352</ele>
        <time>2014-08-02T08:05:16.000Z</time>
      </trkpt>
      <trkpt lat="47.27846" lon="4.94053">
        <ele>474.60000610352</ele>
        <time>2014-08-02T08:05:18.000Z</time>
      </trkpt>
      <trkpt lat="47.27844" lon="4.94038">
        <ele>474.79998779297</ele>
        <time>2014-08-02T08:05:25.000Z</time>
      </trkpt>
      <trkpt lat="47.27843" lon="4.94026">
        <ele>474.39999389648</ele>
        <time>2014-08-02T08:05:30.000Z</time>
      </trkpt>
      <trkpt lat="47.27843" lon="4.94013">
        <ele>474</ele>
        <time>2014-08-02T08:05:36.000Z</time>
      </trkpt>
      <trkpt lat="47.27842" lon="4.94006">
        <ele>473.79998779297</ele>
        <time>2014-08-02T08:05:39.000Z</time>
      </trkpt>
      <trkpt lat="47.2784" lon="4.93997">
        <ele>473.60000610352</ele>
        <time>2014-08-02T08:05:43.000Z</time>
      </trkpt>
      <trkpt lat="47.27837" lon="4.93981">
        <ele>473.20001220703</ele>
        <time>2014-08-02T08:05:51.000Z</time>
      </trkpt>
      <trkpt lat="47.27837" lon="4.93971">
        <ele>472.79998779297</ele>
        <time>2014-08-02T08:05:55.000Z</time>
      </trkpt>
      <trkpt lat="47.27836" lon="4.93955">
        <ele>472.79998779297</ele>
        <time>2014-08-02T08:06:02.000Z</time>
      </trkpt>
      <trkpt lat="47.27835" lon="4.93953">
        <ele>472.79998779297</ele>
        <time>2014-08-02T08:06:03.000Z</time>
      </trkpt>
      <trkpt lat="47.27831" lon="4.93943">
        <ele>473.20001220703</ele>
        <time>2014-08-02T08:06:09.000Z</time>
      </trkpt>
      <trkpt lat="47.27831" lon="4.93941">
        <ele>473.20001220703</ele>
        <time>2014-08-02T08:06:10.000Z</time>
      </trkpt>
      <trkpt lat="47.2783" lon="4.93932">
        <ele>473.20001220703</ele>
        <time>2014-08-02T08:06:14.000Z</time>
      </trkpt>
      <trkpt lat="47.27828" lon="4.93923">
        <ele>473.60000610352</ele>
        <time>2014-08-02T08:06:19.000Z</time>
      </trkpt>
      <trkpt lat="47.27823" lon="4.93908">
        <ele>474.39999389648</ele>
        <time>2014-08-02T08:06:25.000Z</time>
      </trkpt>
      <trkpt lat="47.27822" lon="4.93906">
        <ele>474.39999389648</ele>
        <time>2014-08-02T08:06:26.000Z</time>
      </trkpt>
      <trkpt lat="47.2782" lon="4.93895">
        <ele>474.79998779297</ele>
        <time>2014-08-02T08:06:31.000Z</time>
      </trkpt>
      <trkpt lat="47.2782" lon="4.9389">
        <ele>475</ele>
        <time>2014-08-02T08:06:33.000Z</time>
      </trkpt>
      <trkpt lat="47.27815" lon="4.93874">
        <ele>475.79998779297</ele>
        <time>2014-08-02T08:06:41.000Z</time>
      </trkpt>
      <trkpt lat="47.27814" lon="4.93871">
        <ele>475.79998779297</ele>
        <time>2014-08-02T08:06:43.000Z</time>
      </trkpt>
      <trkpt lat="47.27812" lon="4.93859">
        <ele>475.79998779297</ele>
        <time>2014-08-02T08:06:49.000Z</time>
      </trkpt>
      <trkpt lat="47.27812" lon="4.93857">
        <ele>475.60000610352</ele>
        <time>2014-08-02T08:06:50.000Z</time>
      </trkpt>
      <trkpt lat="47.27811" lon="4.93855">
        <ele>475.79998779297</ele>
        <time>2014-08-02T08:06:51.000Z</time>
      </trkpt>
      <trkpt lat="47.27809" lon="4.93843">
        <ele>476.20001220703</ele>
        <time>2014-08-02T08:06:57.000Z</time>
      </trkpt>
      <trkpt lat="47.27812" lon="4.93828">
        <ele>476</ele>
        <time>2014-08-02T08:07:03.000Z</time>
      </trkpt>
      <trkpt lat="47.27812" lon="4.93826">
        <ele>476</ele>
        <time>2014-08-02T08:07:04.000Z</time>
      </trkpt>
      <trkpt lat="47.27814" lon="4.93824">
        <ele>476</ele>
        <time>2014-08-02T08:07:12.000Z</time>
      </trkpt>
      <trkpt lat="47.27813" lon="4.93827">
        <ele>476</ele>
        <time>2014-08-02T08:07:19.000Z</time>
      </trkpt>
      <trkpt lat="47.27812" lon="4.93828">
        <ele>476</ele>
        <time>2014-08-02T08:07:24.000Z</time>
      </trkpt>
      <trkpt lat="47.27813" lon="4.9383">
        <ele>476</ele>
        <time>2014-08-02T08:07:26.000Z</time>
      </trkpt>
      <trkpt lat="47.27813" lon="4.93837">
        <ele>475.79998779297</ele>
        <time>2014-08-02T08:07:31.000Z</time>
      </trkpt>
      <trkpt lat="47.27817" lon="4.93833">
        <ele>475.60000610352</ele>
        <time>2014-08-02T08:07:57.000Z</time>
      </trkpt>
      <trkpt lat="47.27822" lon="4.93822">
        <ele>475.39999389648</ele>
        <time>2014-08-02T08:08:02.000Z</time>
      </trkpt>
      <trkpt lat="47.27824" lon="4.93824">
        <ele>475</ele>
        <time>2014-08-02T08:08:06.000Z</time>
      </trkpt>
      <trkpt lat="47.27826" lon="4.93824">
        <ele>475</ele>
        <time>2014-08-02T08:08:11.000Z</time>
      </trkpt>
      <trkpt lat="47.27827" lon="4.93824">
        <ele>474.79998779297</ele>
        <time>2014-08-02T08:08:20.000Z</time>
      </trkpt>
      <trkpt lat="47.27822" lon="4.9383">
        <ele>475.20001220703</ele>
        <time>2014-08-02T08:09:03.000Z</time>
      </trkpt>
      <trkpt lat="47.27824" lon="4.93834">
        <ele>475</ele>
        <time>2014-08-02T08:09:09.000Z</time>
      </trkpt>
      <trkpt lat="47.27826" lon="4.93839">
        <ele>474.79998779297</ele>
        <time>2014-08-02T08:09:13.000Z</time>
      </trkpt>
      <trkpt lat="47.27831" lon="4.93848">
        <ele>474.39999389648</ele>
        <time>2014-08-02T08:09:20.000Z</time>
      </trkpt>
      <trkpt lat="47.27835" lon="4.93851">
        <ele>474.39999389648</ele>
        <time>2014-08-02T08:09:24.000Z</time>
      </trkpt>
      <trkpt lat="47.27839" lon="4.93855">
        <ele>474.39999389648</ele>
        <time>2014-08-02T08:09:30.000Z</time>
      </trkpt>
      <trkpt lat="47.2784" lon="4.93857">
        <ele>474.39999389648</ele>
        <time>2014-08-02T08:09:35.000Z</time>
      </trkpt>
      <trkpt lat="47.27843" lon="4.93854">
        <ele>474.39999389648</ele>
        <time>2014-08-02T08:09:43.000Z</time>
      </trkpt>
      <trkpt lat="47.27847" lon="4.93851">
        <ele>474.39999389648</ele>
        <time>2014-08-02T08:09:49.000Z</time>
      </trkpt>
      <trkpt lat="47.27852" lon="4.93851">
        <ele>474.60000610352</ele>
        <time>2014-08-02T08:09:56.000Z</time>
      </trkpt>
      <trkpt lat="47.27855" lon="4.93855">
        <ele>474.60000610352</ele>
        <time>2014-08-02T08:10:03.000Z</time>
      </trkpt>
      <trkpt lat="47.27857" lon="4.93861">
        <ele>474.39999389648</ele>
        <time>2014-08-02T08:10:10.000Z</time>
      </trkpt>
      <trkpt lat="47.27859" lon="4.93867">
        <ele>474.39999389648</ele>
        <time>2014-08-02T08:10:16.000Z</time>
      </trkpt>
      <trkpt lat="47.27862" lon="4.93868">
        <ele>474.39999389648</ele>
        <time>2014-08-02T08:10:19.000Z</time>
      </trkpt>
      <trkpt lat="47.27868" lon="4.93874">
        <ele>474.39999389648</ele>
        <time>2014-08-02T08:10:25.000Z</time>
      </trkpt>
      <trkpt lat="47.27871" lon="4.93877">
        <ele>474.39999389648</ele>
        <time>2014-08-02T08:10:28.000Z</time>
      </trkpt>
      <trkpt lat="47.27873" lon="4.93879">
        <ele>474.20001220703</ele>
        <time>2014-08-02T08:10:31.000Z</time>
      </trkpt>
      <trkpt lat="47.27879" lon="4.93887">
        <ele>473.79998779297</ele>
        <time>2014-08-02T08:10:37.000Z</time>
      </trkpt>
      <trkpt lat="47.2788" lon="4.93889">
        <ele>473.79998779297</ele>
        <time>2014-08-02T08:10:38.000Z</time>
      </trkpt>
      <trkpt lat="47.27881" lon="4.93891">
        <ele>473.60000610352</ele>
        <time>2014-08-02T08:10:40.000Z</time>
      </trkpt>
      <trkpt lat="47.27884" lon="4.93894">
        <ele>473.39999389648</ele>
        <time>2014-08-02T08:10:43.000Z</time>
      </trkpt>
      <trkpt lat="47.2789" lon="4.939">
        <ele>473.20001220703</ele>
        <time>2014-08-02T08:10:49.000Z</time>
      </trkpt>
      <trkpt lat="47.27893" lon="4.93906">
        <ele>472.79998779297</ele>
        <time>2014-08-02T08:10:52.000Z</time>
      </trkpt>
      <trkpt lat="47.27898" lon="4.93913">
        <ele>472.60000610352</ele>
        <time>2014-08-02T08:10:56.000Z</time>
      </trkpt>
      <trkpt lat="47.27905" lon="4.93916">
        <ele>472.39999389648</ele>
        <time>2014-08-02T08:11:01.000Z</time>
      </trkpt>
      <trkpt lat="47.27907" lon="4.93918">
        <ele>472.20001220703</ele>
        <time>2014-08-02T08:11:03.000Z</time>
      </trkpt>
      <trkpt lat="47.27909" lon="4.9392">
        <ele>472.20001220703</ele>
        <time>2014-08-02T08:11:05.000Z</time>
      </trkpt>
      <trkpt lat="47.27915" lon="4.93927">
        <ele>472</ele>
        <time>2014-08-02T08:11:11.000Z</time>
      </trkpt>
      <trkpt lat="47.27917" lon="4.93933">
        <ele>471.60000610352</ele>
        <time>2014-08-02T08:11:15.000Z</time>
      </trkpt>
      <trkpt lat="47.2792" lon="4.9394">
        <ele>471.20001220703</ele>
        <time>2014-08-02T08:11:19.000Z</time>
      </trkpt>
      <trkpt lat="47.27925" lon="4.93948">
        <ele>471</ele>
        <time>2014-08-02T08:11:25.000Z</time>
      </trkpt>
      <trkpt lat="47.27931" lon="4.93956">
        <ele>470.79998779297</ele>
        <time>2014-08-02T08:11:31.000Z</time>
      </trkpt>
      <trkpt lat="47.27932" lon="4.93958">
        <ele>470.60000610352</ele>
        <time>2014-08-02T08:11:32.000Z</time>
      </trkpt>
      <trkpt lat="47.27937" lon="4.93968">
        <ele>469.79998779297</ele>
        <time>2014-08-02T08:11:37.000Z</time>
      </trkpt>
      <trkpt lat="47.27939" lon="4.93973">
        <ele>469.39999389648</ele>
        <time>2014-08-02T08:11:40.000Z</time>
      </trkpt>
      <trkpt lat="47.27941" lon="4.93976">
        <ele>469.20001220703</ele>
        <time>2014-08-02T08:11:42.000Z</time>
      </trkpt>
      <trkpt lat="47.27951" lon="4.93991">
        <ele>468.20001220703</ele>
        <time>2014-08-02T08:11:51.000Z</time>
      </trkpt>
      <trkpt lat="47.27958" lon="4.93998">
        <ele>467.79998779297</ele>
        <time>2014-08-02T08:11:57.000Z</time>
      </trkpt>
      <trkpt lat="47.27963" lon="4.94006">
        <ele>467.20001220703</ele>
        <time>2014-08-02T08:12:02.000Z</time>
      </trkpt>
      <trkpt lat="47.27966" lon="4.94013">
        <ele>466.79998779297</ele>
        <time>2014-08-02T08:12:07.000Z</time>
      </trkpt>
      <trkpt lat="47.2797" lon="4.94018">
        <ele>466.60000610352</ele>
        <time>2014-08-02T08:12:12.000Z</time>
      </trkpt>
      <trkpt lat="47.27975" lon="4.94026">
        <ele>466.20001220703</ele>
        <time>2014-08-02T08:12:16.000Z</time>
      </trkpt>
      <trkpt lat="47.27975" lon="4.94031">
        <ele>466.20001220703</ele>
        <time>2014-08-02T08:12:18.000Z</time>
      </trkpt>
      <trkpt lat="47.27977" lon="4.94034">
        <ele>466</ele>
        <time>2014-08-02T08:12:20.000Z</time>
      </trkpt>
      <trkpt lat="47.27981" lon="4.94043">
        <ele>465.60000610352</ele>
        <time>2014-08-02T08:12:25.000Z</time>
      </trkpt>
      <trkpt lat="47.27983" lon="4.94052">
        <ele>465.20001220703</ele>
        <time>2014-08-02T08:12:30.000Z</time>
      </trkpt>
      <trkpt lat="47.27987" lon="4.94057">
        <ele>464.79998779297</ele>
        <time>2014-08-02T08:12:34.000Z</time>
      </trkpt>
      <trkpt lat="47.27991" lon="4.94063">
        <ele>464.39999389648</ele>
        <time>2014-08-02T08:12:38.000Z</time>
      </trkpt>
      <trkpt lat="47.27993" lon="4.94066">
        <ele>464.20001220703</ele>
        <time>2014-08-02T08:12:40.000Z</time>
      </trkpt>
      <trkpt lat="47.28002" lon="4.94084">
        <ele>463.39999389648</ele>
        <time>2014-08-02T08:12:50.000Z</time>
      </trkpt>
      <trkpt lat="47.28003" lon="4.94087">
        <ele>463.39999389648</ele>
        <time>2014-08-02T08:12:52.000Z</time>
      </trkpt>
      <trkpt lat="47.28008" lon="4.94097">
        <ele>463.20001220703</ele>
        <time>2014-08-02T08:12:57.000Z</time>
      </trkpt>
      <trkpt lat="47.28009" lon="4.941">
        <ele>463</ele>
        <time>2014-08-02T08:12:58.000Z</time>
      </trkpt>
      <trkpt lat="47.28014" lon="4.94107">
        <ele>462.79998779297</ele>
        <time>2014-08-02T08:13:03.000Z</time>
      </trkpt>
      <trkpt lat="47.28018" lon="4.94113">
        <ele>462.60000610352</ele>
        <time>2014-08-02T08:13:07.000Z</time>
      </trkpt>
      <trkpt lat="47.28025" lon="4.94125">
        <ele>462.39999389648</ele>
        <time>2014-08-02T08:13:13.000Z</time>
      </trkpt>
      <trkpt lat="47.28026" lon="4.94126">
        <ele>462.39999389648</ele>
        <time>2014-08-02T08:13:14.000Z</time>
      </trkpt>
      <trkpt lat="47.28031" lon="4.94133">
        <ele>462.39999389648</ele>
        <time>2014-08-02T08:13:19.000Z</time>
      </trkpt>
      <trkpt lat="47.28032" lon="4.94135">
        <ele>462.20001220703</ele>
        <time>2014-08-02T08:13:21.000Z</time>
      </trkpt>
      <trkpt lat="47.28034" lon="4.94139">
        <ele>462.20001220703</ele>
        <time>2014-08-02T08:13:24.000Z</time>
      </trkpt>
      <trkpt lat="47.28038" lon="4.94151">
        <ele>462.20001220703</ele>
        <time>2014-08-02T08:13:30.000Z</time>
      </trkpt>
      <trkpt lat="47.28038" lon="4.94153">
        <ele>462.20001220703</ele>
        <time>2014-08-02T08:13:31.000Z</time>
      </trkpt>
      <trkpt lat="47.28046" lon="4.94161">
        <ele>462.20001220703</ele>
        <time>2014-08-02T08:13:36.000Z</time>
      </trkpt>
      <trkpt lat="47.28052" lon="4.9417">
        <ele>462.20001220703</ele>
        <time>2014-08-02T08:13:41.000Z</time>
      </trkpt>
      <trkpt lat="47.28054" lon="4.94179">
        <ele>462</ele>
        <time>2014-08-02T08:13:45.000Z</time>
      </trkpt>
      <trkpt lat="47.28054" lon="4.9418">
        <ele>462</ele>
        <time>2014-08-02T08:13:46.000Z</time>
      </trkpt>
      <trkpt lat="47.28054" lon="4.94182">
        <ele>462</ele>
        <time>2014-08-02T08:13:47.000Z</time>
      </trkpt>
      <trkpt lat="47.28062" lon="4.94204">
        <ele>462.20001220703</ele>
        <time>2014-08-02T08:14:01.000Z</time>
      </trkpt>
      <trkpt lat="47.28063" lon="4.94206">
        <ele>462.20001220703</ele>
        <time>2014-08-02T08:14:02.000Z</time>
      </trkpt>
      <trkpt lat="47.28065" lon="4.9421">
        <ele>462</ele>
        <time>2014-08-02T08:14:05.000Z</time>
      </trkpt>
      <trkpt lat="47.28068" lon="4.94218">
        <ele>461.60000610352</ele>
        <time>2014-08-02T08:14:10.000Z</time>
      </trkpt>
      <trkpt lat="47.28073" lon="4.94228">
        <ele>461</ele>
        <time>2014-08-02T08:14:16.000Z</time>
      </trkpt>
      <trkpt lat="47.28076" lon="4.94238">
        <ele>460.60000610352</ele>
        <time>2014-08-02T08:14:21.000Z</time>
      </trkpt>
      <trkpt lat="47.28076" lon="4.9424">
        <ele>460.39999389648</ele>
        <time>2014-08-02T08:14:22.000Z</time>
      </trkpt>
      <trkpt lat="47.28077" lon="4.94243">
        <ele>460.39999389648</ele>
        <time>2014-08-02T08:14:24.000Z</time>
      </trkpt>
      <trkpt lat="47.28077" lon="4.94251">
        <ele>460</ele>
        <time>2014-08-02T08:14:29.000Z</time>
      </trkpt>
      <trkpt lat="47.28078" lon="4.94255">
        <ele>459.79998779297</ele>
        <time>2014-08-02T08:14:31.000Z</time>
      </trkpt>
      <trkpt lat="47.28082" lon="4.94267">
        <ele>459.20001220703</ele>
        <time>2014-08-02T08:14:37.000Z</time>
      </trkpt>
      <trkpt lat="47.28086" lon="4.94275">
        <ele>459</ele>
        <time>2014-08-02T08:14:41.000Z</time>
      </trkpt>
      <trkpt lat="47.28086" lon="4.94279">
        <ele>458.79998779297</ele>
        <time>2014-08-02T08:14:43.000Z</time>
      </trkpt>
      <trkpt lat="47.28086" lon="4.94285">
        <ele>458.60000610352</ele>
        <time>2014-08-02T08:14:46.000Z</time>
      </trkpt>
      <trkpt lat="47.28085" lon="4.94296">
        <ele>457.79998779297</ele>
        <time>2014-08-02T08:14:52.000Z</time>
      </trkpt>
      <trkpt lat="47.28085" lon="4.94305">
        <ele>457.39999389648</ele>
        <time>2014-08-02T08:14:56.000Z</time>
      </trkpt>
      <trkpt lat="47.2809" lon="4.94312">
        <ele>457.20001220703</ele>
        <time>2014-08-02T08:15:00.000Z</time>
      </trkpt>
      <trkpt lat="47.28094" lon="4.94325">
        <ele>456.79998779297</ele>
        <time>2014-08-02T08:15:07.000Z</time>
      </trkpt>
      <trkpt lat="47.28097" lon="4.9433">
        <ele>456.60000610352</ele>
        <time>2014-08-02T08:15:12.000Z</time>
      </trkpt>
      <trkpt lat="47.281" lon="4.94335">
        <ele>456.39999389648</ele>
        <time>2014-08-02T08:15:17.000Z</time>
      </trkpt>
      <trkpt lat="47.28101" lon="4.94339">
        <ele>456.20001220703</ele>
        <time>2014-08-02T08:15:21.000Z</time>
      </trkpt>
      <trkpt lat="47.28104" lon="4.9435">
        <ele>455.79998779297</ele>
        <time>2014-08-02T08:15:28.000Z</time>
      </trkpt>
      <trkpt lat="47.28104" lon="4.94351">
        <ele>455.60000610352</ele>
        <time>2014-08-02T08:15:29.000Z</time>
      </trkpt>
      <trkpt lat="47.28104" lon="4.94353">
        <ele>455.60000610352</ele>
        <time>2014-08-02T08:15:30.000Z</time>
      </trkpt>
      <trkpt lat="47.28109" lon="4.94359">
        <ele>455.39999389648</ele>
        <time>2014-08-02T08:15:34.000Z</time>
      </trkpt>
      <trkpt lat="47.28114" lon="4.94364">
        <ele>455.39999389648</ele>
        <time>2014-08-02T08:15:38.000Z</time>
      </trkpt>
      <trkpt lat="47.28115" lon="4.94365">
        <ele>455.20001220703</ele>
        <time>2014-08-02T08:15:39.000Z</time>
      </trkpt>
      <trkpt lat="47.28116" lon="4.94367">
        <ele>455.20001220703</ele>
        <time>2014-08-02T08:15:41.000Z</time>
      </trkpt>
      <trkpt lat="47.28118" lon="4.9437">
        <ele>455.20001220703</ele>
        <time>2014-08-02T08:15:44.000Z</time>
      </trkpt>
      <trkpt lat="47.28118" lon="4.94377">
        <ele>454.60000610352</ele>
        <time>2014-08-02T08:15:47.000Z</time>
      </trkpt>
      <trkpt lat="47.28122" lon="4.94383">
        <ele>454.20001220703</ele>
        <time>2014-08-02T08:15:51.000Z</time>
      </trkpt>
      <trkpt lat="47.28123" lon="4.9439">
        <ele>453.60000610352</ele>
        <time>2014-08-02T08:15:56.000Z</time>
      </trkpt>
      <trkpt lat="47.28124" lon="4.94393">
        <ele>453.39999389648</ele>
        <time>2014-08-02T08:15:57.000Z</time>
      </trkpt>
      <trkpt lat="47.28123" lon="4.94394">
        <ele>453.39999389648</ele>
        <time>2014-08-02T08:15:58.000Z</time>
      </trkpt>
      <trkpt lat="47.28125" lon="4.94404">
        <ele>452.60000610352</ele>
        <time>2014-08-02T08:16:03.000Z</time>
      </trkpt>
      <trkpt lat="47.28127" lon="4.94407">
        <ele>452.39999389648</ele>
        <time>2014-08-02T08:16:07.000Z</time>
      </trkpt>
      <trkpt lat="47.28128" lon="4.94409">
        <ele>452.20001220703</ele>
        <time>2014-08-02T08:16:09.000Z</time>
      </trkpt>
      <trkpt lat="47.2813" lon="4.94414">
        <ele>451.79998779297</ele>
        <time>2014-08-02T08:16:15.000Z</time>
      </trkpt>
      <trkpt lat="47.28133" lon="4.94418">
        <ele>451.60000610352</ele>
        <time>2014-08-02T08:16:21.000Z</time>
      </trkpt>
      <trkpt lat="47.28131" lon="4.94422">
        <ele>451.20001220703</ele>
        <time>2014-08-02T08:16:24.000Z</time>
      </trkpt>
      <trkpt lat="47.2813" lon="4.94424">
        <ele>451</ele>
        <time>2014-08-02T08:16:25.000Z</time>
      </trkpt>
      <trkpt lat="47.28129" lon="4.94431">
        <ele>451</ele>
        <time>2014-08-02T08:16:31.000Z</time>
      </trkpt>
      <trkpt lat="47.28129" lon="4.94432">
        <ele>451</ele>
        <time>2014-08-02T08:16:32.000Z</time>
      </trkpt>
      <trkpt lat="47.2813" lon="4.94433">
        <ele>450.79998779297</ele>
        <time>2014-08-02T08:16:34.000Z</time>
      </trkpt>
      <trkpt lat="47.28131" lon="4.94437">
        <ele>450.79998779297</ele>
        <time>2014-08-02T08:16:37.000Z</time>
      </trkpt>
      <trkpt lat="47.28136" lon="4.94438">
        <ele>450.60000610352</ele>
        <time>2014-08-02T08:16:44.000Z</time>
      </trkpt>
      <trkpt lat="47.28131" lon="4.94441">
        <ele>450.79998779297</ele>
        <time>2014-08-02T08:16:50.000Z</time>
      </trkpt>
      <trkpt lat="47.28128" lon="4.94442">
        <ele>450.79998779297</ele>
        <time>2014-08-02T08:16:52.000Z</time>
      </trkpt>
      <trkpt lat="47.28124" lon="4.94447">
        <ele>451</ele>
        <time>2014-08-02T08:16:56.000Z</time>
      </trkpt>
      <trkpt lat="47.28122" lon="4.94452">
        <ele>451</ele>
        <time>2014-08-02T08:17:02.000Z</time>
      </trkpt>
      <trkpt lat="47.28122" lon="4.94453">
        <ele>451</ele>
        <time>2014-08-02T08:17:03.000Z</time>
      </trkpt>
      <trkpt lat="47.28124" lon="4.94454">
        <ele>451</ele>
        <time>2014-08-02T08:17:06.000Z</time>
      </trkpt>
      <trkpt lat="47.28132" lon="4.94453">
        <ele>450.60000610352</ele>
        <time>2014-08-02T08:17:13.000Z</time>
      </trkpt>
      <trkpt lat="47.28132" lon="4.94454">
        <ele>450.60000610352</ele>
        <time>2014-08-02T08:17:14.000Z</time>
      </trkpt>
      <trkpt lat="47.28136" lon="4.94456">
        <ele>450.39999389648</ele>
        <time>2014-08-02T08:17:17.000Z</time>
      </trkpt>
      <trkpt lat="47.28138" lon="4.94457">
        <ele>450.20001220703</ele>
        <time>2014-08-02T08:17:20.000Z</time>
      </trkpt>
      <trkpt lat="47.28138" lon="4.94464">
        <ele>449.60000610352</ele>
        <time>2014-08-02T08:17:27.000Z</time>
      </trkpt>
      <trkpt lat="47.28136" lon="4.94469">
        <ele>449.20001220703</ele>
        <time>2014-08-02T08:17:31.000Z</time>
      </trkpt>
      <trkpt lat="47.28137" lon="4.9447">
        <ele>449.20001220703</ele>
        <time>2014-08-02T08:17:32.000Z</time>
      </trkpt>
      <trkpt lat="47.28139" lon="4.94479">
        <ele>448.39999389648</ele>
        <time>2014-08-02T08:17:38.000Z</time>
      </trkpt>
      <trkpt lat="47.2814" lon="4.9448">
        <ele>448.20001220703</ele>
        <time>2014-08-02T08:17:39.000Z</time>
      </trkpt>
      <trkpt lat="47.28145" lon="4.94483">
        <ele>447.79998779297</ele>
        <time>2014-08-02T08:17:43.000Z</time>
      </trkpt>
      <trkpt lat="47.28149" lon="4.94489">
        <ele>447</ele>
        <time>2014-08-02T08:17:48.000Z</time>
      </trkpt>
      <trkpt lat="47.28149" lon="4.94489">
        <ele>447</ele>
        <time>2014-08-02T08:17:49.000Z</time>
      </trkpt>
      <trkpt lat="47.28149" lon="4.94497">
        <ele>446.39999389648</ele>
        <time>2014-08-02T08:17:54.000Z</time>
      </trkpt>
      <trkpt lat="47.28152" lon="4.94502">
        <ele>445.79998779297</ele>
        <time>2014-08-02T08:17:57.000Z</time>
      </trkpt>
      <trkpt lat="47.28152" lon="4.94506">
        <ele>445.39999389648</ele>
        <time>2014-08-02T08:17:59.000Z</time>
      </trkpt>
      <trkpt lat="47.28155" lon="4.94514">
        <ele>444.60000610352</ele>
        <time>2014-08-02T08:18:04.000Z</time>
      </trkpt>
      <trkpt lat="47.28155" lon="4.94518">
        <ele>444.20001220703</ele>
        <time>2014-08-02T08:18:06.000Z</time>
      </trkpt>
      <trkpt lat="47.28156" lon="4.94525">
        <ele>443.79998779297</ele>
        <time>2014-08-02T08:18:10.000Z</time>
      </trkpt>
      <trkpt lat="47.28158" lon="4.9453">
        <ele>443.20001220703</ele>
        <time>2014-08-02T08:18:16.000Z</time>
      </trkpt>
      <trkpt lat="47.28158" lon="4.94531">
        <ele>443</ele>
        <time>2014-08-02T08:18:17.000Z</time>
      </trkpt>
      <trkpt lat="47.28158" lon="4.94532">
        <ele>443</ele>
        <time>2014-08-02T08:18:18.000Z</time>
      </trkpt>
      <trkpt lat="47.28157" lon="4.94537">
        <ele>442.79998779297</ele>
        <time>2014-08-02T08:18:21.000Z</time>
      </trkpt>
      <trkpt lat="47.28154" lon="4.94543">
        <ele>443</ele>
        <time>2014-08-02T08:18:26.000Z</time>
      </trkpt>
      <trkpt lat="47.28153" lon="4.94545">
        <ele>442.79998779297</ele>
        <time>2014-08-02T08:18:31.000Z</time>
      </trkpt>
      <trkpt lat="47.28155" lon="4.94548">
        <ele>442.20001220703</ele>
        <time>2014-08-02T08:18:37.000Z</time>
      </trkpt>
      <trkpt lat="47.28158" lon="4.94551">
        <ele>441.39999389648</ele>
        <time>2014-08-02T08:18:42.000Z</time>
      </trkpt>
      <trkpt lat="47.28161" lon="4.94556">
        <ele>440.60000610352</ele>
        <time>2014-08-02T08:18:47.000Z</time>
      </trkpt>
      <trkpt lat="47.2816" lon="4.94563">
        <ele>439.79998779297</ele>
        <time>2014-08-02T08:18:53.000Z</time>
      </trkpt>
      <trkpt lat="47.28161" lon="4.94566">
        <ele>439.20001220703</ele>
        <time>2014-08-02T08:18:54.000Z</time>
      </trkpt>
      <trkpt lat="47.28158" lon="4.94574">
        <ele>438.79998779297</ele>
        <time>2014-08-02T08:18:59.000Z</time>
      </trkpt>
      <trkpt lat="47.28154" lon="4.9458">
        <ele>438.39999389648</ele>
        <time>2014-08-02T08:19:02.000Z</time>
      </trkpt>
      <trkpt lat="47.28153" lon="4.94586">
        <ele>437.79998779297</ele>
        <time>2014-08-02T08:19:07.000Z</time>
      </trkpt>
      <trkpt lat="47.28156" lon="4.94592">
        <ele>436.79998779297</ele>
        <time>2014-08-02T08:19:11.000Z</time>
      </trkpt>
      <trkpt lat="47.28156" lon="4.94595">
        <ele>436.39999389648</ele>
        <time>2014-08-02T08:19:13.000Z</time>
      </trkpt>
      <trkpt lat="47.28157" lon="4.94598">
        <ele>436</ele>
        <time>2014-08-02T08:19:16.000Z</time>
      </trkpt>
      <trkpt lat="47.28169" lon="4.94598">
        <ele>436.39999389648</ele>
        <time>2014-08-02T08:19:22.000Z</time>
      </trkpt>
      <trkpt lat="47.2817" lon="4.94598">
        <ele>436.79998779297</ele>
        <time>2014-08-02T08:19:23.000Z</time>
      </trkpt>
      <trkpt lat="47.28169" lon="4.94599">
        <ele>436.39999389648</ele>
        <time>2014-08-02T08:19:25.000Z</time>
      </trkpt>
      <trkpt lat="47.28159" lon="4.94606">
        <ele>434.60000610352</ele>
        <time>2014-08-02T08:19:30.000Z</time>
      </trkpt>
      <trkpt lat="47.28152" lon="4.94613">
        <ele>434.79998779297</ele>
        <time>2014-08-02T08:19:35.000Z</time>
      </trkpt>
      <trkpt lat="47.28152" lon="4.94615">
        <ele>434.79998779297</ele>
        <time>2014-08-02T08:19:36.000Z</time>
      </trkpt>
      <trkpt lat="47.28152" lon="4.94619">
        <ele>434.60000610352</ele>
        <time>2014-08-02T08:19:39.000Z</time>
      </trkpt>
      <trkpt lat="47.28146" lon="4.94627">
        <ele>435.79998779297</ele>
        <time>2014-08-02T08:19:44.000Z</time>
      </trkpt>
      <trkpt lat="47.28146" lon="4.94633">
        <ele>435</ele>
        <time>2014-08-02T08:19:48.000Z</time>
      </trkpt>
      <trkpt lat="47.28147" lon="4.94634">
        <ele>434.60000610352</ele>
        <time>2014-08-02T08:19:49.000Z</time>
      </trkpt>
      <trkpt lat="47.28152" lon="4.94638">
        <ele>433</ele>
        <time>2014-08-02T08:19:53.000Z</time>
      </trkpt>
      <trkpt lat="47.28152" lon="4.94647">
        <ele>432</ele>
        <time>2014-08-02T08:19:59.000Z</time>
      </trkpt>
      <trkpt lat="47.28151" lon="4.94651">
        <ele>431.60000610352</ele>
        <time>2014-08-02T08:20:01.000Z</time>
      </trkpt>
      <trkpt lat="47.28152" lon="4.94654">
        <ele>431</ele>
        <time>2014-08-02T08:20:03.000Z</time>
      </trkpt>
      <trkpt lat="47.28154" lon="4.94662">
        <ele>429.60000610352</ele>
        <time>2014-08-02T08:20:07.000Z</time>
      </trkpt>
      <trkpt lat="47.28154" lon="4.94666">
        <ele>429.20001220703</ele>
        <time>2014-08-02T08:20:09.000Z</time>
      </trkpt>
      <trkpt lat="47.28155" lon="4.94668">
        <ele>428.60000610352</ele>
        <time>2014-08-02T08:20:11.000Z</time>
      </trkpt>
      <trkpt lat="47.28153" lon="4.94673">
        <ele>428.60000610352</ele>
        <time>2014-08-02T08:20:14.000Z</time>
      </trkpt>
      <trkpt lat="47.28153" lon="4.94677">
        <ele>428</ele>
        <time>2014-08-02T08:20:18.000Z</time>
      </trkpt>
      <trkpt lat="47.28154" lon="4.94679">
        <ele>427.39999389648</ele>
        <time>2014-08-02T08:20:19.000Z</time>
      </trkpt>
      <trkpt lat="47.28156" lon="4.94681">
        <ele>427</ele>
        <time>2014-08-02T08:20:20.000Z</time>
      </trkpt>
      <trkpt lat="47.28162" lon="4.94686">
        <ele>424.79998779297</ele>
        <time>2014-08-02T08:20:24.000Z</time>
      </trkpt>
      <trkpt lat="47.28163" lon="4.94694">
        <ele>423.79998779297</ele>
        <time>2014-08-02T08:20:29.000Z</time>
      </trkpt>
      <trkpt lat="47.28161" lon="4.94696">
        <ele>424</ele>
        <time>2014-08-02T08:20:31.000Z</time>
      </trkpt>
      <trkpt lat="47.28147" lon="4.94708">
        <ele>427.39999389648</ele>
        <time>2014-08-02T08:20:37.000Z</time>
      </trkpt>
      <trkpt lat="47.28129" lon="4.94717">
        <ele>432.39999389648</ele>
        <time>2014-08-02T08:20:41.000Z</time>
      </trkpt>
      <trkpt lat="47.28113" lon="4.94726">
        <ele>437.20001220703</ele>
        <time>2014-08-02T08:20:45.000Z</time>
      </trkpt>
      <trkpt lat="47.28111" lon="4.94729">
        <ele>437.60000610352</ele>
        <time>2014-08-02T08:20:46.000Z</time>
      </trkpt>
      <trkpt lat="47.28112" lon="4.94734">
        <ele>437</ele>
        <time>2014-08-02T08:20:49.000Z</time>
      </trkpt>
      <trkpt lat="47.28128" lon="4.94746">
        <ele>430.39999389648</ele>
        <time>2014-08-02T08:20:55.000Z</time>
      </trkpt>
      <trkpt lat="47.28131" lon="4.94747">
        <ele>429.39999389648</ele>
        <time>2014-08-02T08:20:56.000Z</time>
      </trkpt>
      <trkpt lat="47.28148" lon="4.94749">
        <ele>423.60000610352</ele>
        <time>2014-08-02T08:21:01.000Z</time>
      </trkpt>
      <trkpt lat="47.28156" lon="4.94752">
        <ele>420.79998779297</ele>
        <time>2014-08-02T08:21:05.000Z</time>
      </trkpt>
      <trkpt lat="47.28156" lon="4.94759">
        <ele>420</ele>
        <time>2014-08-02T08:21:09.000Z</time>
      </trkpt>
      <trkpt lat="47.28148" lon="4.94773">
        <ele>421.60000610352</ele>
        <time>2014-08-02T08:21:14.000Z</time>
      </trkpt>
      <trkpt lat="47.28144" lon="4.94782">
        <ele>422.79998779297</ele>
        <time>2014-08-02T08:21:18.000Z</time>
      </trkpt>
      <trkpt lat="47.28136" lon="4.94789">
        <ele>426.39999389648</ele>
        <time>2014-08-02T08:21:21.000Z</time>
      </trkpt>
      <trkpt lat="47.28136" lon="4.94791">
        <ele>426.60000610352</ele>
        <time>2014-08-02T08:21:22.000Z</time>
      </trkpt>
      <trkpt lat="47.28132" lon="4.94799">
        <ele>427.20001220703</ele>
        <time>2014-08-02T08:21:26.000Z</time>
      </trkpt>
      <trkpt lat="47.28128" lon="4.9481">
        <ele>427.79998779297</ele>
        <time>2014-08-02T08:21:31.000Z</time>
      </trkpt>
      <trkpt lat="47.28128" lon="4.94812">
        <ele>427.39999389648</ele>
        <time>2014-08-02T08:21:32.000Z</time>
      </trkpt>
      <trkpt lat="47.28122" lon="4.94822">
        <ele>428.79998779297</ele>
        <time>2014-08-02T08:21:37.000Z</time>
      </trkpt>
      <trkpt lat="47.28117" lon="4.94832">
        <ele>430.20001220703</ele>
        <time>2014-08-02T08:21:42.000Z</time>
      </trkpt>
      <trkpt lat="47.28127" lon="4.94836">
        <ele>425.39999389648</ele>
        <time>2014-08-02T08:21:46.000Z</time>
      </trkpt>
      <trkpt lat="47.28139" lon="4.94836">
        <ele>420.20001220703</ele>
        <time>2014-08-02T08:21:47.000Z</time>
      </trkpt>
      <trkpt lat="47.28146" lon="4.94837">
        <ele>417</ele>
        <time>2014-08-02T08:21:48.000Z</time>
      </trkpt>
      <trkpt lat="47.28159" lon="4.9484">
        <ele>411.39999389648</ele>
        <time>2014-08-02T08:21:52.000Z</time>
      </trkpt>
      <trkpt lat="47.28173" lon="4.94848">
        <ele>411.79998779297</ele>
        <time>2014-08-02T08:21:57.000Z</time>
      </trkpt>
      <trkpt lat="47.28174" lon="4.94851">
        <ele>412</ele>
        <time>2014-08-02T08:21:59.000Z</time>
      </trkpt>
      <trkpt lat="47.28175" lon="4.9486">
        <ele>411.20001220703</ele>
        <time>2014-08-02T08:22:04.000Z</time>
      </trkpt>
      <trkpt lat="47.28174" lon="4.94864">
        <ele>410.60000610352</ele>
        <time>2014-08-02T08:22:07.000Z</time>
      </trkpt>
      <trkpt lat="47.28177" lon="4.94878">
        <ele>410.60000610352</ele>
        <time>2014-08-02T08:22:13.000Z</time>
      </trkpt>
      <trkpt lat="47.2818" lon="4.94882">
        <ele>411.39999389648</ele>
        <time>2014-08-02T08:22:15.000Z</time>
      </trkpt>
      <trkpt lat="47.28178" lon="4.94886">
        <ele>410.79998779297</ele>
        <time>2014-08-02T08:22:17.000Z</time>
      </trkpt>
      <trkpt lat="47.2818" lon="4.94896">
        <ele>410.79998779297</ele>
        <time>2014-08-02T08:22:21.000Z</time>
      </trkpt>
      <trkpt lat="47.28182" lon="4.94901">
        <ele>411.20001220703</ele>
        <time>2014-08-02T08:22:23.000Z</time>
      </trkpt>
      <trkpt lat="47.28181" lon="4.94905">
        <ele>410.39999389648</ele>
        <time>2014-08-02T08:22:25.000Z</time>
      </trkpt>
      <trkpt lat="47.28181" lon="4.94912">
        <ele>409.20001220703</ele>
        <time>2014-08-02T08:22:29.000Z</time>
      </trkpt>
      <trkpt lat="47.28181" lon="4.94914">
        <ele>409.20001220703</ele>
        <time>2014-08-02T08:22:31.000Z</time>
      </trkpt>
      <trkpt lat="47.28179" lon="4.94918">
        <ele>408</ele>
        <time>2014-08-02T08:22:33.000Z</time>
      </trkpt>
      <trkpt lat="47.28179" lon="4.94932">
        <ele>406</ele>
        <time>2014-08-02T08:22:40.000Z</time>
      </trkpt>
      <trkpt lat="47.28179" lon="4.94942">
        <ele>404.79998779297</ele>
        <time>2014-08-02T08:22:46.000Z</time>
      </trkpt>
      <trkpt lat="47.28179" lon="4.94948">
        <ele>404</ele>
        <time>2014-08-02T08:22:49.000Z</time>
      </trkpt>
      <trkpt lat="47.28179" lon="4.94951">
        <ele>403.79998779297</ele>
        <time>2014-08-02T08:22:51.000Z</time>
      </trkpt>
      <trkpt lat="47.28181" lon="4.94963">
        <ele>404</ele>
        <time>2014-08-02T08:22:57.000Z</time>
      </trkpt>
      <trkpt lat="47.28181" lon="4.94965">
        <ele>403.60000610352</ele>
        <time>2014-08-02T08:22:58.000Z</time>
      </trkpt>
      <trkpt lat="47.28179" lon="4.94967">
        <ele>403.20001220703</ele>
        <time>2014-08-02T08:22:59.000Z</time>
      </trkpt>
      <trkpt lat="47.28174" lon="4.94977">
        <ele>400.20001220703</ele>
        <time>2014-08-02T08:23:05.000Z</time>
      </trkpt>
      <trkpt lat="47.28173" lon="4.94978">
        <ele>399.79998779297</ele>
        <time>2014-08-02T08:23:06.000Z</time>
      </trkpt>
      <trkpt lat="47.28172" lon="4.94988">
        <ele>399.20001220703</ele>
        <time>2014-08-02T08:23:11.000Z</time>
      </trkpt>
      <trkpt lat="47.28172" lon="4.9499">
        <ele>399</ele>
        <time>2014-08-02T08:23:12.000Z</time>
      </trkpt>
      <trkpt lat="47.28172" lon="4.94992">
        <ele>398.79998779297</ele>
        <time>2014-08-02T08:23:14.000Z</time>
      </trkpt>
      <trkpt lat="47.28171" lon="4.95003">
        <ele>398</ele>
        <time>2014-08-02T08:23:19.000Z</time>
      </trkpt>
      <trkpt lat="47.28169" lon="4.95011">
        <ele>396.79998779297</ele>
        <time>2014-08-02T08:23:24.000Z</time>
      </trkpt>
      <trkpt lat="47.28174" lon="4.95021">
        <ele>398.60000610352</ele>
        <time>2014-08-02T08:23:29.000Z</time>
      </trkpt>
      <trkpt lat="47.28173" lon="4.95025">
        <ele>398</ele>
        <time>2014-08-02T08:23:31.000Z</time>
      </trkpt>
      <trkpt lat="47.2817" lon="4.95028">
        <ele>396.60000610352</ele>
        <time>2014-08-02T08:23:33.000Z</time>
      </trkpt>
      <trkpt lat="47.28166" lon="4.95033">
        <ele>394.39999389648</ele>
        <time>2014-08-02T08:23:36.000Z</time>
      </trkpt>
      <trkpt lat="47.28163" lon="4.95041">
        <ele>393</ele>
        <time>2014-08-02T08:23:40.000Z</time>
      </trkpt>
      <trkpt lat="47.2816" lon="4.9505">
        <ele>393.79998779297</ele>
        <time>2014-08-02T08:23:45.000Z</time>
      </trkpt>
      <trkpt lat="47.2816" lon="4.95052">
        <ele>393.79998779297</ele>
        <time>2014-08-02T08:23:46.000Z</time>
      </trkpt>
      <trkpt lat="47.2816" lon="4.95062">
        <ele>393.79998779297</ele>
        <time>2014-08-02T08:23:50.000Z</time>
      </trkpt>
      <trkpt lat="47.28161" lon="4.95066">
        <ele>393.39999389648</ele>
        <time>2014-08-02T08:23:52.000Z</time>
      </trkpt>
      <trkpt lat="47.28157" lon="4.95074">
        <ele>394.60000610352</ele>
        <time>2014-08-02T08:23:56.000Z</time>
      </trkpt>
      <trkpt lat="47.28157" lon="4.95076">
        <ele>394.60000610352</ele>
        <time>2014-08-02T08:23:57.000Z</time>
      </trkpt>
      <trkpt lat="47.28158" lon="4.95078">
        <ele>394.39999389648</ele>
        <time>2014-08-02T08:23:58.000Z</time>
      </trkpt>
      <trkpt lat="47.28159" lon="4.95089">
        <ele>393.79998779297</ele>
        <time>2014-08-02T08:24:04.000Z</time>
      </trkpt>
      <trkpt lat="47.28159" lon="4.95091">
        <ele>394</ele>
        <time>2014-08-02T08:24:05.000Z</time>
      </trkpt>
      <trkpt lat="47.28153" lon="4.95104">
        <ele>395.79998779297</ele>
        <time>2014-08-02T08:24:11.000Z</time>
      </trkpt>
      <trkpt lat="47.28152" lon="4.95105">
        <ele>395.79998779297</ele>
        <time>2014-08-02T08:24:12.000Z</time>
      </trkpt>
      <trkpt lat="47.28151" lon="4.95109">
        <ele>396.20001220703</ele>
        <time>2014-08-02T08:24:14.000Z</time>
      </trkpt>
      <trkpt lat="47.28147" lon="4.95119">
        <ele>395.79998779297</ele>
        <time>2014-08-02T08:24:19.000Z</time>
      </trkpt>
      <trkpt lat="47.28145" lon="4.9513">
        <ele>395.60000610352</ele>
        <time>2014-08-02T08:24:23.000Z</time>
      </trkpt>
      <trkpt lat="47.28145" lon="4.95134">
        <ele>395.79998779297</ele>
        <time>2014-08-02T08:24:25.000Z</time>
      </trkpt>
      <trkpt lat="47.28146" lon="4.95141">
        <ele>395.79998779297</ele>
        <time>2014-08-02T08:24:28.000Z</time>
      </trkpt>
      <trkpt lat="47.28146" lon="4.95146">
        <ele>395.79998779297</ele>
        <time>2014-08-02T08:24:30.000Z</time>
      </trkpt>
      <trkpt lat="47.28145" lon="4.95156">
        <ele>396.39999389648</ele>
        <time>2014-08-02T08:24:35.000Z</time>
      </trkpt>
      <trkpt lat="47.28148" lon="4.95168">
        <ele>396</ele>
        <time>2014-08-02T08:24:41.000Z</time>
      </trkpt>
      <trkpt lat="47.28148" lon="4.9517">
        <ele>396</ele>
        <time>2014-08-02T08:24:42.000Z</time>
      </trkpt>
      <trkpt lat="47.28148" lon="4.95176">
        <ele>396</ele>
        <time>2014-08-02T08:24:45.000Z</time>
      </trkpt>
      <trkpt lat="47.28145" lon="4.95185">
        <ele>396.79998779297</ele>
        <time>2014-08-02T08:24:50.000Z</time>
      </trkpt>
      <trkpt lat="47.28148" lon="4.95195">
        <ele>396.39999389648</ele>
        <time>2014-08-02T08:24:55.000Z</time>
      </trkpt>
      <trkpt lat="47.28148" lon="4.952">
        <ele>396</ele>
        <time>2014-08-02T08:24:58.000Z</time>
      </trkpt>
      <trkpt lat="47.28148" lon="4.95205">
        <ele>395.60000610352</ele>
        <time>2014-08-02T08:25:00.000Z</time>
      </trkpt>
      <trkpt lat="47.28148" lon="4.95208">
        <ele>395.39999389648</ele>
        <time>2014-08-02T08:25:02.000Z</time>
      </trkpt>
      <trkpt lat="47.28145" lon="4.95221">
        <ele>394.60000610352</ele>
        <time>2014-08-02T08:25:09.000Z</time>
      </trkpt>
      <trkpt lat="47.28146" lon="4.95223">
        <ele>394.39999389648</ele>
        <time>2014-08-02T08:25:10.000Z</time>
      </trkpt>
      <trkpt lat="47.28146" lon="4.95226">
        <ele>394</ele>
        <time>2014-08-02T08:25:12.000Z</time>
      </trkpt>
      <trkpt lat="47.28147" lon="4.95239">
        <ele>392.79998779297</ele>
        <time>2014-08-02T08:25:18.000Z</time>
      </trkpt>
      <trkpt lat="47.28145" lon="4.95246">
        <ele>392.60000610352</ele>
        <time>2014-08-02T08:25:21.000Z</time>
      </trkpt>
      <trkpt lat="47.28143" lon="4.95254">
        <ele>392</ele>
        <time>2014-08-02T08:25:25.000Z</time>
      </trkpt>
      <trkpt lat="47.28144" lon="4.95258">
        <ele>391.60000610352</ele>
        <time>2014-08-02T08:25:28.000Z</time>
      </trkpt>
      <trkpt lat="47.28145" lon="4.95262">
        <ele>391.20001220703</ele>
        <time>2014-08-02T08:25:31.000Z</time>
      </trkpt>
      <trkpt lat="47.28144" lon="4.95266">
        <ele>391</ele>
        <time>2014-08-02T08:25:33.000Z</time>
      </trkpt>
      <trkpt lat="47.28143" lon="4.95269">
        <ele>390.60000610352</ele>
        <time>2014-08-02T08:25:35.000Z</time>
      </trkpt>
      <trkpt lat="47.28146" lon="4.9528">
        <ele>389.79998779297</ele>
        <time>2014-08-02T08:25:41.000Z</time>
      </trkpt>
      <trkpt lat="47.28146" lon="4.95285">
        <ele>389.79998779297</ele>
        <time>2014-08-02T08:25:43.000Z</time>
      </trkpt>
      <trkpt lat="47.28146" lon="4.95292">
        <ele>389.60000610352</ele>
        <time>2014-08-02T08:25:46.000Z</time>
      </trkpt>
      <trkpt lat="47.28146" lon="4.95307">
        <ele>388.60000610352</ele>
        <time>2014-08-02T08:25:53.000Z</time>
      </trkpt>
      <trkpt lat="47.28147" lon="4.95308">
        <ele>388.39999389648</ele>
        <time>2014-08-02T08:25:54.000Z</time>
      </trkpt>
      <trkpt lat="47.28149" lon="4.95314">
        <ele>387.79998779297</ele>
        <time>2014-08-02T08:25:57.000Z</time>
      </trkpt>
      <trkpt lat="47.28154" lon="4.95328">
        <ele>386.20001220703</ele>
        <time>2014-08-02T08:26:04.000Z</time>
      </trkpt>
      <trkpt lat="47.28153" lon="4.95336">
        <ele>385.79998779297</ele>
        <time>2014-08-02T08:26:08.000Z</time>
      </trkpt>
      <trkpt lat="47.28155" lon="4.95346">
        <ele>385</ele>
        <time>2014-08-02T08:26:13.000Z</time>
      </trkpt>
      <trkpt lat="47.28157" lon="4.95351">
        <ele>384.39999389648</ele>
        <time>2014-08-02T08:26:16.000Z</time>
      </trkpt>
      <trkpt lat="47.28158" lon="4.95358">
        <ele>383.79998779297</ele>
        <time>2014-08-02T08:26:20.000Z</time>
      </trkpt>
      <trkpt lat="47.28162" lon="4.95367">
        <ele>382.60000610352</ele>
        <time>2014-08-02T08:26:26.000Z</time>
      </trkpt>
      <trkpt lat="47.28161" lon="4.95378">
        <ele>382.39999389648</ele>
        <time>2014-08-02T08:26:31.000Z</time>
      </trkpt>
      <trkpt lat="47.28161" lon="4.9539">
        <ele>382.39999389648</ele>
        <time>2014-08-02T08:26:36.000Z</time>
      </trkpt>
      <trkpt lat="47.28161" lon="4.95392">
        <ele>382.20001220703</ele>
        <time>2014-08-02T08:26:37.000Z</time>
      </trkpt>
      <trkpt lat="47.28161" lon="4.95395">
        <ele>382.39999389648</ele>
        <time>2014-08-02T08:26:38.000Z</time>
      </trkpt>
      <trkpt lat="47.28162" lon="4.95398">
        <ele>382</ele>
        <time>2014-08-02T08:26:40.000Z</time>
      </trkpt>
      <trkpt lat="47.28168" lon="4.95407">
        <ele>382.20001220703</ele>
        <time>2014-08-02T08:26:46.000Z</time>
      </trkpt>
      <trkpt lat="47.28168" lon="4.95411">
        <ele>382.20001220703</ele>
        <time>2014-08-02T08:26:48.000Z</time>
      </trkpt>
      <trkpt lat="47.28174" lon="4.9542">
        <ele>382.60000610352</ele>
        <time>2014-08-02T08:26:53.000Z</time>
      </trkpt>
      <trkpt lat="47.28174" lon="4.95421">
        <ele>382.60000610352</ele>
        <time>2014-08-02T08:26:54.000Z</time>
      </trkpt>
      <trkpt lat="47.28175" lon="4.95424">
        <ele>382.79998779297</ele>
        <time>2014-08-02T08:26:55.000Z</time>
      </trkpt>
      <trkpt lat="47.28176" lon="4.95434">
        <ele>382.60000610352</ele>
        <time>2014-08-02T08:27:00.000Z</time>
      </trkpt>
      <trkpt lat="47.28177" lon="4.95439">
        <ele>382.79998779297</ele>
        <time>2014-08-02T08:27:03.000Z</time>
      </trkpt>
      <trkpt lat="47.2818" lon="4.9545">
        <ele>383</ele>
        <time>2014-08-02T08:27:09.000Z</time>
      </trkpt>
      <trkpt lat="47.28181" lon="4.95452">
        <ele>383</ele>
        <time>2014-08-02T08:27:10.000Z</time>
      </trkpt>
      <trkpt lat="47.28186" lon="4.95463">
        <ele>382.79998779297</ele>
        <time>2014-08-02T08:27:16.000Z</time>
      </trkpt>
      <trkpt lat="47.28188" lon="4.95467">
        <ele>382.60000610352</ele>
        <time>2014-08-02T08:27:18.000Z</time>
      </trkpt>
      <trkpt lat="47.28194" lon="4.95474">
        <ele>382.39999389648</ele>
        <time>2014-08-02T08:27:23.000Z</time>
      </trkpt>
      <trkpt lat="47.28196" lon="4.95478">
        <ele>382.20001220703</ele>
        <time>2014-08-02T08:27:26.000Z</time>
      </trkpt>
      <trkpt lat="47.28198" lon="4.9548">
        <ele>382.20001220703</ele>
        <time>2014-08-02T08:27:28.000Z</time>
      </trkpt>
      <trkpt lat="47.28203" lon="4.95488">
        <ele>381.60000610352</ele>
        <time>2014-08-02T08:27:34.000Z</time>
      </trkpt>
      <trkpt lat="47.28207" lon="4.95491">
        <ele>381.79998779297</ele>
        <time>2014-08-02T08:27:38.000Z</time>
      </trkpt>
      <trkpt lat="47.28209" lon="4.95493">
        <ele>381.60000610352</ele>
        <time>2014-08-02T08:27:39.000Z</time>
      </trkpt>
      <trkpt lat="47.28211" lon="4.95501">
        <ele>381</ele>
        <time>2014-08-02T08:27:44.000Z</time>
      </trkpt>
      <trkpt lat="47.28211" lon="4.95502">
        <ele>380.79998779297</ele>
        <time>2014-08-02T08:27:45.000Z</time>
      </trkpt>
      <trkpt lat="47.28214" lon="4.95507">
        <ele>380.60000610352</ele>
        <time>2014-08-02T08:27:49.000Z</time>
      </trkpt>
      <trkpt lat="47.28216" lon="4.95508">
        <ele>380.60000610352</ele>
        <time>2014-08-02T08:27:50.000Z</time>
      </trkpt>
      <trkpt lat="47.28221" lon="4.95513">
        <ele>380.60000610352</ele>
        <time>2014-08-02T08:27:54.000Z</time>
      </trkpt>
      <trkpt lat="47.28222" lon="4.95518">
        <ele>380.39999389648</ele>
        <time>2014-08-02T08:27:57.000Z</time>
      </trkpt>
      <trkpt lat="47.28227" lon="4.95525">
        <ele>380.60000610352</ele>
        <time>2014-08-02T08:28:02.000Z</time>
      </trkpt>
      <trkpt lat="47.28228" lon="4.95526">
        <ele>380.60000610352</ele>
        <time>2014-08-02T08:28:03.000Z</time>
      </trkpt>
      <trkpt lat="47.28227" lon="4.95535">
        <ele>381.60000610352</ele>
        <time>2014-08-02T08:28:08.000Z</time>
      </trkpt>
      <trkpt lat="47.28228" lon="4.95541">
        <ele>382.20001220703</ele>
        <time>2014-08-02T08:28:11.000Z</time>
      </trkpt>
      <trkpt lat="47.2823" lon="4.95546">
        <ele>381.60000610352</ele>
        <time>2014-08-02T08:28:14.000Z</time>
      </trkpt>
      <trkpt lat="47.28233" lon="4.9555">
        <ele>381</ele>
        <time>2014-08-02T08:28:18.000Z</time>
      </trkpt>
      <trkpt lat="47.28241" lon="4.95558">
        <ele>379.20001220703</ele>
        <time>2014-08-02T08:28:24.000Z</time>
      </trkpt>
      <trkpt lat="47.28243" lon="4.95559">
        <ele>379</ele>
        <time>2014-08-02T08:28:25.000Z</time>
      </trkpt>
      <trkpt lat="47.28245" lon="4.95562">
        <ele>378.39999389648</ele>
        <time>2014-08-02T08:28:29.000Z</time>
      </trkpt>
      <trkpt lat="47.2825" lon="4.9557">
        <ele>378</ele>
        <time>2014-08-02T08:28:34.000Z</time>
      </trkpt>
      <trkpt lat="47.2825" lon="4.95575">
        <ele>377.60000610352</ele>
        <time>2014-08-02T08:28:36.000Z</time>
      </trkpt>
      <trkpt lat="47.28257" lon="4.95585">
        <ele>377.79998779297</ele>
        <time>2014-08-02T08:28:42.000Z</time>
      </trkpt>
      <trkpt lat="47.2826" lon="4.95587">
        <ele>378</ele>
        <time>2014-08-02T08:28:43.000Z</time>
      </trkpt>
      <trkpt lat="47.28262" lon="4.95592">
        <ele>378</ele>
        <time>2014-08-02T08:28:46.000Z</time>
      </trkpt>
      <trkpt lat="47.28266" lon="4.95597">
        <ele>378.20001220703</ele>
        <time>2014-08-02T08:28:49.000Z</time>
      </trkpt>
      <trkpt lat="47.2827" lon="4.95602">
        <ele>378.20001220703</ele>
        <time>2014-08-02T08:28:53.000Z</time>
      </trkpt>
      <trkpt lat="47.28271" lon="4.95603">
        <ele>378.39999389648</ele>
        <time>2014-08-02T08:28:54.000Z</time>
      </trkpt>
      <trkpt lat="47.28273" lon="4.9561">
        <ele>378</ele>
        <time>2014-08-02T08:28:57.000Z</time>
      </trkpt>
      <trkpt lat="47.28278" lon="4.95615">
        <ele>378.39999389648</ele>
        <time>2014-08-02T08:29:01.000Z</time>
      </trkpt>
      <trkpt lat="47.28282" lon="4.95618">
        <ele>378.60000610352</ele>
        <time>2014-08-02T08:29:04.000Z</time>
      </trkpt>
      <trkpt lat="47.28284" lon="4.95623">
        <ele>378.60000610352</ele>
        <time>2014-08-02T08:29:07.000Z</time>
      </trkpt>
      <trkpt lat="47.28288" lon="4.95636">
        <ele>377.20001220703</ele>
        <time>2014-08-02T08:29:13.000Z</time>
      </trkpt>
      <trkpt lat="47.28289" lon="4.95638">
        <ele>377</ele>
        <time>2014-08-02T08:29:14.000Z</time>
      </trkpt>
      <trkpt lat="47.2829" lon="4.95642">
        <ele>376.60000610352</ele>
        <time>2014-08-02T08:29:16.000Z</time>
      </trkpt>
      <trkpt lat="47.28293" lon="4.95645">
        <ele>376.39999389648</ele>
        <time>2014-08-02T08:29:18.000Z</time>
      </trkpt>
      <trkpt lat="47.28297" lon="4.95654">
        <ele>375.60000610352</ele>
        <time>2014-08-02T08:29:23.000Z</time>
      </trkpt>
      <trkpt lat="47.28301" lon="4.95659">
        <ele>375.39999389648</ele>
        <time>2014-08-02T08:29:27.000Z</time>
      </trkpt>
      <trkpt lat="47.28302" lon="4.95663">
        <ele>375</ele>
        <time>2014-08-02T08:29:29.000Z</time>
      </trkpt>
      <trkpt lat="47.28306" lon="4.9567">
        <ele>374.60000610352</ele>
        <time>2014-08-02T08:29:33.000Z</time>
      </trkpt>
      <trkpt lat="47.2831" lon="4.95674">
        <ele>374.39999389648</ele>
        <time>2014-08-02T08:29:36.000Z</time>
      </trkpt>
      <trkpt lat="47.28312" lon="4.95682">
        <ele>373.39999389648</ele>
        <time>2014-08-02T08:29:40.000Z</time>
      </trkpt>
      <trkpt lat="47.28313" lon="4.95685">
        <ele>373</ele>
        <time>2014-08-02T08:29:42.000Z</time>
      </trkpt>
      <trkpt lat="47.28312" lon="4.95693">
        <ele>372.39999389648</ele>
        <time>2014-08-02T08:29:45.000Z</time>
      </trkpt>
      <trkpt lat="47.28311" lon="4.95698">
        <ele>373</ele>
        <time>2014-08-02T08:29:47.000Z</time>
      </trkpt>
      <trkpt lat="47.28316" lon="4.95708">
        <ele>373.20001220703</ele>
        <time>2014-08-02T08:29:52.000Z</time>
      </trkpt>
      <trkpt lat="47.28319" lon="4.95711">
        <ele>372.79998779297</ele>
        <time>2014-08-02T08:29:54.000Z</time>
      </trkpt>
      <trkpt lat="47.28325" lon="4.95717">
        <ele>372</ele>
        <time>2014-08-02T08:29:59.000Z</time>
      </trkpt>
      <trkpt lat="47.28326" lon="4.95722">
        <ele>371.60000610352</ele>
        <time>2014-08-02T08:30:02.000Z</time>
      </trkpt>
      <trkpt lat="47.28327" lon="4.95725">
        <ele>371.39999389648</ele>
        <time>2014-08-02T08:30:04.000Z</time>
      </trkpt>
      <trkpt lat="47.28331" lon="4.95733">
        <ele>371</ele>
        <time>2014-08-02T08:30:09.000Z</time>
      </trkpt>
      <trkpt lat="47.28332" lon="4.95735">
        <ele>371</ele>
        <time>2014-08-02T08:30:10.000Z</time>
      </trkpt>
      <trkpt lat="47.28336" lon="4.95742">
        <ele>371</ele>
        <time>2014-08-02T08:30:15.000Z</time>
      </trkpt>
      <trkpt lat="47.28336" lon="4.95744">
        <ele>371</ele>
        <time>2014-08-02T08:30:16.000Z</time>
      </trkpt>
      <trkpt lat="47.28338" lon="4.95749">
        <ele>371</ele>
        <time>2014-08-02T08:30:19.000Z</time>
      </trkpt>
      <trkpt lat="47.28339" lon="4.95752">
        <ele>370.79998779297</ele>
        <time>2014-08-02T08:30:21.000Z</time>
      </trkpt>
      <trkpt lat="47.28343" lon="4.95757">
        <ele>371</ele>
        <time>2014-08-02T08:30:25.000Z</time>
      </trkpt>
      <trkpt lat="47.28343" lon="4.95766">
        <ele>370.60000610352</ele>
        <time>2014-08-02T08:30:36.000Z</time>
      </trkpt>
      <trkpt lat="47.28345" lon="4.95774">
        <ele>370.60000610352</ele>
        <time>2014-08-02T08:30:40.000Z</time>
      </trkpt>
      <trkpt lat="47.2835" lon="4.95779">
        <ele>370.79998779297</ele>
        <time>2014-08-02T08:30:44.000Z</time>
      </trkpt>
      <trkpt lat="47.28352" lon="4.95785">
        <ele>370.60000610352</ele>
        <time>2014-08-02T08:30:48.000Z</time>
      </trkpt>
      <trkpt lat="47.28353" lon="4.95789">
        <ele>370.60000610352</ele>
        <time>2014-08-02T08:30:51.000Z</time>
      </trkpt>
      <trkpt lat="47.28356" lon="4.95797">
        <ele>370</ele>
        <time>2014-08-02T08:30:56.000Z</time>
      </trkpt>
      <trkpt lat="47.28357" lon="4.95801">
        <ele>369.39999389648</ele>
        <time>2014-08-02T08:30:59.000Z</time>
      </trkpt>
      <trkpt lat="47.28359" lon="4.95809">
        <ele>368.39999389648</ele>
        <time>2014-08-02T08:31:03.000Z</time>
      </trkpt>
      <trkpt lat="47.2836" lon="4.95812">
        <ele>368</ele>
        <time>2014-08-02T08:31:05.000Z</time>
      </trkpt>
      <trkpt lat="47.28363" lon="4.95819">
        <ele>367.20001220703</ele>
        <time>2014-08-02T08:31:09.000Z</time>
      </trkpt>
      <trkpt lat="47.28366" lon="4.95824">
        <ele>366.79998779297</ele>
        <time>2014-08-02T08:31:13.000Z</time>
      </trkpt>
      <trkpt lat="47.28369" lon="4.9583">
        <ele>366.20001220703</ele>
        <time>2014-08-02T08:31:17.000Z</time>
      </trkpt>
      <trkpt lat="47.28374" lon="4.9584">
        <ele>366</ele>
        <time>2014-08-02T08:31:23.000Z</time>
      </trkpt>
      <trkpt lat="47.28376" lon="4.95843">
        <ele>366</ele>
        <time>2014-08-02T08:31:25.000Z</time>
      </trkpt>
      <trkpt lat="47.28375" lon="4.95845">
        <ele>366.20001220703</ele>
        <time>2014-08-02T08:31:27.000Z</time>
      </trkpt>
      <trkpt lat="47.28374" lon="4.9585">
        <ele>366.39999389648</ele>
        <time>2014-08-02T08:31:34.000Z</time>
      </trkpt>
      <trkpt lat="47.28377" lon="4.95856">
        <ele>366.39999389648</ele>
        <time>2014-08-02T08:31:39.000Z</time>
      </trkpt>
      <trkpt lat="47.28383" lon="4.95863">
        <ele>366.20001220703</ele>
        <time>2014-08-02T08:31:43.000Z</time>
      </trkpt>
      <trkpt lat="47.28384" lon="4.95867">
        <ele>366.20001220703</ele>
        <time>2014-08-02T08:31:46.000Z</time>
      </trkpt>
      <trkpt lat="47.28388" lon="4.95878">
        <ele>366</ele>
        <time>2014-08-02T08:31:52.000Z</time>
      </trkpt>
      <trkpt lat="47.28389" lon="4.95879">
        <ele>365.79998779297</ele>
        <time>2014-08-02T08:31:53.000Z</time>
      </trkpt>
      <trkpt lat="47.28391" lon="4.95886">
        <ele>365.39999389648</ele>
        <time>2014-08-02T08:31:57.000Z</time>
      </trkpt>
      <trkpt lat="47.28393" lon="4.95891">
        <ele>365</ele>
        <time>2014-08-02T08:32:00.000Z</time>
      </trkpt>
      <trkpt lat="47.28396" lon="4.95896">
        <ele>364.39999389648</ele>
        <time>2014-08-02T08:32:04.000Z</time>
      </trkpt>
      <trkpt lat="47.28401" lon="4.95904">
        <ele>363.60000610352</ele>
        <time>2014-08-02T08:32:10.000Z</time>
      </trkpt>
      <trkpt lat="47.28402" lon="4.95911">
        <ele>363.20001220703</ele>
        <time>2014-08-02T08:32:14.000Z</time>
      </trkpt>
      <trkpt lat="47.284" lon="4.95918">
        <ele>363</ele>
        <time>2014-08-02T08:32:18.000Z</time>
      </trkpt>
      <trkpt lat="47.28404" lon="4.95926">
        <ele>362.39999389648</ele>
        <time>2014-08-02T08:32:23.000Z</time>
      </trkpt>
      <trkpt lat="47.28408" lon="4.95931">
        <ele>361.60000610352</ele>
        <time>2014-08-02T08:32:27.000Z</time>
      </trkpt>
      <trkpt lat="47.28413" lon="4.95936">
        <ele>361</ele>
        <time>2014-08-02T08:32:31.000Z</time>
      </trkpt>
      <trkpt lat="47.28413" lon="4.95938">
        <ele>361</ele>
        <time>2014-08-02T08:32:32.000Z</time>
      </trkpt>
      <trkpt lat="47.28413" lon="4.95939">
        <ele>361</ele>
        <time>2014-08-02T08:32:33.000Z</time>
      </trkpt>
      <trkpt lat="47.28416" lon="4.95944">
        <ele>361.39999389648</ele>
        <time>2014-08-02T08:32:36.000Z</time>
      </trkpt>
      <trkpt lat="47.28418" lon="4.95952">
        <ele>361.60000610352</ele>
        <time>2014-08-02T08:32:40.000Z</time>
      </trkpt>
      <trkpt lat="47.28418" lon="4.95954">
        <ele>361.39999389648</ele>
        <time>2014-08-02T08:32:41.000Z</time>
      </trkpt>
      <trkpt lat="47.28418" lon="4.95956">
        <ele>361.60000610352</ele>
        <time>2014-08-02T08:32:43.000Z</time>
      </trkpt>
      <trkpt lat="47.2842" lon="4.95958">
        <ele>361.79998779297</ele>
        <time>2014-08-02T08:32:45.000Z</time>
      </trkpt>
      <trkpt lat="47.28421" lon="4.95962">
        <ele>361.79998779297</ele>
        <time>2014-08-02T08:32:48.000Z</time>
      </trkpt>
      <trkpt lat="47.28425" lon="4.95968">
        <ele>362.39999389648</ele>
        <time>2014-08-02T08:32:53.000Z</time>
      </trkpt>
      <trkpt lat="47.28426" lon="4.9597">
        <ele>362.39999389648</ele>
        <time>2014-08-02T08:32:54.000Z</time>
      </trkpt>
      <trkpt lat="47.28428" lon="4.95973">
        <ele>362.60000610352</ele>
        <time>2014-08-02T08:32:56.000Z</time>
      </trkpt>
      <trkpt lat="47.28428" lon="4.95982">
        <ele>363</ele>
        <time>2014-08-02T08:33:00.000Z</time>
      </trkpt>
      <trkpt lat="47.2843" lon="4.95986">
        <ele>363.20001220703</ele>
        <time>2014-08-02T08:33:02.000Z</time>
      </trkpt>
      <trkpt lat="47.28433" lon="4.95994">
        <ele>364</ele>
        <time>2014-08-02T08:33:06.000Z</time>
      </trkpt>
      <trkpt lat="47.28434" lon="4.96007">
        <ele>364.39999389648</ele>
        <time>2014-08-02T08:33:11.000Z</time>
      </trkpt>
      <trkpt lat="47.28434" lon="4.9601">
        <ele>364.39999389648</ele>
        <time>2014-08-02T08:33:12.000Z</time>
      </trkpt>
      <trkpt lat="47.28434" lon="4.96013">
        <ele>364.60000610352</ele>
        <time>2014-08-02T08:33:14.000Z</time>
      </trkpt>
      <trkpt lat="47.28434" lon="4.96021">
        <ele>364.79998779297</ele>
        <time>2014-08-02T08:33:18.000Z</time>
      </trkpt>
      <trkpt lat="47.28435" lon="4.9603">
        <ele>365</ele>
        <time>2014-08-02T08:33:23.000Z</time>
      </trkpt>
      <trkpt lat="47.28434" lon="4.96034">
        <ele>365</ele>
        <time>2014-08-02T08:33:25.000Z</time>
      </trkpt>
      <trkpt lat="47.28434" lon="4.96041">
        <ele>365.20001220703</ele>
        <time>2014-08-02T08:33:28.000Z</time>
      </trkpt>
      <trkpt lat="47.28435" lon="4.96053">
        <ele>365</ele>
        <time>2014-08-02T08:33:33.000Z</time>
      </trkpt>
      <trkpt lat="47.28441" lon="4.96065">
        <ele>365.39999389648</ele>
        <time>2014-08-02T08:33:37.000Z</time>
      </trkpt>
      <trkpt lat="47.28442" lon="4.96068">
        <ele>365.60000610352</ele>
        <time>2014-08-02T08:33:38.000Z</time>
      </trkpt>
      <trkpt lat="47.28447" lon="4.96075">
        <ele>366</ele>
        <time>2014-08-02T08:33:42.000Z</time>
      </trkpt>
      <trkpt lat="47.28446" lon="4.96078">
        <ele>365.79998779297</ele>
        <time>2014-08-02T08:33:44.000Z</time>
      </trkpt>
      <trkpt lat="47.28446" lon="4.96082">
        <ele>365.60000610352</ele>
        <time>2014-08-02T08:33:46.000Z</time>
      </trkpt>
      <trkpt lat="47.28441" lon="4.96089">
        <ele>364.39999389648</ele>
        <time>2014-08-02T08:33:50.000Z</time>
      </trkpt>
      <trkpt lat="47.28441" lon="4.96101">
        <ele>363.79998779297</ele>
        <time>2014-08-02T08:33:56.000Z</time>
      </trkpt>
      <trkpt lat="47.28439" lon="4.96108">
        <ele>363</ele>
        <time>2014-08-02T08:34:00.000Z</time>
      </trkpt>
      <trkpt lat="47.28438" lon="4.9611">
        <ele>362.79998779297</ele>
        <time>2014-08-02T08:34:01.000Z</time>
      </trkpt>
      <trkpt lat="47.28437" lon="4.96117">
        <ele>362.39999389648</ele>
        <time>2014-08-02T08:34:05.000Z</time>
      </trkpt>
      <trkpt lat="47.28438" lon="4.96123">
        <ele>362.20001220703</ele>
        <time>2014-08-02T08:34:09.000Z</time>
      </trkpt>
      <trkpt lat="47.28438" lon="4.96125">
        <ele>362.20001220703</ele>
        <time>2014-08-02T08:34:11.000Z</time>
      </trkpt>
      <trkpt lat="47.28437" lon="4.96129">
        <ele>362.20001220703</ele>
        <time>2014-08-02T08:34:14.000Z</time>
      </trkpt>
      <trkpt lat="47.2844" lon="4.96141">
        <ele>363.60000610352</ele>
        <time>2014-08-02T08:34:19.000Z</time>
      </trkpt>
      <trkpt lat="47.28441" lon="4.96145">
        <ele>364</ele>
        <time>2014-08-02T08:34:21.000Z</time>
      </trkpt>
      <trkpt lat="47.28441" lon="4.96153">
        <ele>364.39999389648</ele>
        <time>2014-08-02T08:34:26.000Z</time>
      </trkpt>
      <trkpt lat="47.28441" lon="4.96157">
        <ele>364.20001220703</ele>
        <time>2014-08-02T08:34:28.000Z</time>
      </trkpt>
      <trkpt lat="47.28437" lon="4.96164">
        <ele>363</ele>
        <time>2014-08-02T08:34:33.000Z</time>
      </trkpt>
      <trkpt lat="47.28434" lon="4.96172">
        <ele>362.20001220703</ele>
        <time>2014-08-02T08:34:37.000Z</time>
      </trkpt>
      <trkpt lat="47.28435" lon="4.96181">
        <ele>362.20001220703</ele>
        <time>2014-08-02T08:34:41.000Z</time>
      </trkpt>
      <trkpt lat="47.28436" lon="4.96183">
        <ele>362.39999389648</ele>
        <time>2014-08-02T08:34:42.000Z</time>
      </trkpt>
      <trkpt lat="47.28438" lon="4.96199">
        <ele>362.39999389648</ele>
        <time>2014-08-02T08:34:48.000Z</time>
      </trkpt>
      <trkpt lat="47.28436" lon="4.96203">
        <ele>362</ele>
        <time>2014-08-02T08:34:50.000Z</time>
      </trkpt>
      <trkpt lat="47.28436" lon="4.96208">
        <ele>361.79998779297</ele>
        <time>2014-08-02T08:34:52.000Z</time>
      </trkpt>
      <trkpt lat="47.28433" lon="4.96219">
        <ele>361.60000610352</ele>
        <time>2014-08-02T08:34:57.000Z</time>
      </trkpt>
      <trkpt lat="47.28431" lon="4.96222">
        <ele>361.20001220703</ele>
        <time>2014-08-02T08:34:59.000Z</time>
      </trkpt>
      <trkpt lat="47.28427" lon="4.96229">
        <ele>360</ele>
        <time>2014-08-02T08:35:03.000Z</time>
      </trkpt>
      <trkpt lat="47.28423" lon="4.96235">
        <ele>358.39999389648</ele>
        <time>2014-08-02T08:35:07.000Z</time>
      </trkpt>
      <trkpt lat="47.28419" lon="4.96243">
        <ele>356.60000610352</ele>
        <time>2014-08-02T08:35:12.000Z</time>
      </trkpt>
      <trkpt lat="47.28416" lon="4.96252">
        <ele>355.39999389648</ele>
        <time>2014-08-02T08:35:18.000Z</time>
      </trkpt>
      <trkpt lat="47.28415" lon="4.96256">
        <ele>354.79998779297</ele>
        <time>2014-08-02T08:35:20.000Z</time>
      </trkpt>
      <trkpt lat="47.28411" lon="4.96268">
        <ele>354</ele>
        <time>2014-08-02T08:35:26.000Z</time>
      </trkpt>
      <trkpt lat="47.2841" lon="4.96279">
        <ele>354</ele>
        <time>2014-08-02T08:35:32.000Z</time>
      </trkpt>
      <trkpt lat="47.28409" lon="4.96282">
        <ele>354</ele>
        <time>2014-08-02T08:35:33.000Z</time>
      </trkpt>
      <trkpt lat="47.28409" lon="4.96287">
        <ele>353.79998779297</ele>
        <time>2014-08-02T08:35:36.000Z</time>
      </trkpt>
      <trkpt lat="47.28409" lon="4.963">
        <ele>352.79998779297</ele>
        <time>2014-08-02T08:35:42.000Z</time>
      </trkpt>
      <trkpt lat="47.28409" lon="4.96301">
        <ele>352.79998779297</ele>
        <time>2014-08-02T08:35:43.000Z</time>
      </trkpt>
      <trkpt lat="47.28409" lon="4.96303">
        <ele>352.60000610352</ele>
        <time>2014-08-02T08:35:44.000Z</time>
      </trkpt>
      <trkpt lat="47.28407" lon="4.9631">
        <ele>352.39999389648</ele>
        <time>2014-08-02T08:35:48.000Z</time>
      </trkpt>
      <trkpt lat="47.28406" lon="4.96313">
        <ele>352.20001220703</ele>
        <time>2014-08-02T08:35:50.000Z</time>
      </trkpt>
      <trkpt lat="47.28405" lon="4.96316">
        <ele>352.20001220703</ele>
        <time>2014-08-02T08:35:52.000Z</time>
      </trkpt>
      <trkpt lat="47.28404" lon="4.96328">
        <ele>351.60000610352</ele>
        <time>2014-08-02T08:35:57.000Z</time>
      </trkpt>
      <trkpt lat="47.28402" lon="4.96336">
        <ele>351.39999389648</ele>
        <time>2014-08-02T08:36:01.000Z</time>
      </trkpt>
      <trkpt lat="47.28402" lon="4.96351">
        <ele>350.60000610352</ele>
        <time>2014-08-02T08:36:07.000Z</time>
      </trkpt>
      <trkpt lat="47.28401" lon="4.96357">
        <ele>350.39999389648</ele>
        <time>2014-08-02T08:36:10.000Z</time>
      </trkpt>
      <trkpt lat="47.284" lon="4.96359">
        <ele>350.39999389648</ele>
        <time>2014-08-02T08:36:12.000Z</time>
      </trkpt>
      <trkpt lat="47.28398" lon="4.96366">
        <ele>349.60000610352</ele>
        <time>2014-08-02T08:36:15.000Z</time>
      </trkpt>
      <trkpt lat="47.28397" lon="4.96377">
        <ele>348.60000610352</ele>
        <time>2014-08-02T08:36:22.000Z</time>
      </trkpt>
      <trkpt lat="47.28398" lon="4.96387">
        <ele>348.20001220703</ele>
        <time>2014-08-02T08:36:28.000Z</time>
      </trkpt>
      <trkpt lat="47.28397" lon="4.96388">
        <ele>348.20001220703</ele>
        <time>2014-08-02T08:36:29.000Z</time>
      </trkpt>
      <trkpt lat="47.28396" lon="4.9639">
        <ele>348</ele>
        <time>2014-08-02T08:36:30.000Z</time>
      </trkpt>
      <trkpt lat="47.28395" lon="4.96397">
        <ele>347.79998779297</ele>
        <time>2014-08-02T08:36:34.000Z</time>
      </trkpt>
      <trkpt lat="47.28396" lon="4.96404">
        <ele>347.60000610352</ele>
        <time>2014-08-02T08:36:39.000Z</time>
      </trkpt>
      <trkpt lat="47.28397" lon="4.96409">
        <ele>347.39999389648</ele>
        <time>2014-08-02T08:36:42.000Z</time>
      </trkpt>
      <trkpt lat="47.28397" lon="4.96411">
        <ele>347.20001220703</ele>
        <time>2014-08-02T08:36:44.000Z</time>
      </trkpt>
      <trkpt lat="47.28397" lon="4.96422">
        <ele>346.79998779297</ele>
        <time>2014-08-02T08:36:51.000Z</time>
      </trkpt>
      <trkpt lat="47.28396" lon="4.96424">
        <ele>346.79998779297</ele>
        <time>2014-08-02T08:36:52.000Z</time>
      </trkpt>
      <trkpt lat="47.28396" lon="4.96432">
        <ele>346.60000610352</ele>
        <time>2014-08-02T08:36:57.000Z</time>
      </trkpt>
      <trkpt lat="47.28397" lon="4.96435">
        <ele>346.39999389648</ele>
        <time>2014-08-02T08:36:59.000Z</time>
      </trkpt>
      <trkpt lat="47.28398" lon="4.9644">
        <ele>346.20001220703</ele>
        <time>2014-08-02T08:37:01.000Z</time>
      </trkpt>
      <trkpt lat="47.28397" lon="4.96448">
        <ele>345.79998779297</ele>
        <time>2014-08-02T08:37:05.000Z</time>
      </trkpt>
      <trkpt lat="47.28397" lon="4.9645">
        <ele>345.60000610352</ele>
        <time>2014-08-02T08:37:06.000Z</time>
      </trkpt>
      <trkpt lat="47.28397" lon="4.96454">
        <ele>345.39999389648</ele>
        <time>2014-08-02T08:37:08.000Z</time>
      </trkpt>
      <trkpt lat="47.28396" lon="4.96464">
        <ele>345</ele>
        <time>2014-08-02T08:37:13.000Z</time>
      </trkpt>
      <trkpt lat="47.28397" lon="4.96466">
        <ele>345</ele>
        <time>2014-08-02T08:37:14.000Z</time>
      </trkpt>
      <trkpt lat="47.28397" lon="4.96468">
        <ele>344.79998779297</ele>
        <time>2014-08-02T08:37:15.000Z</time>
      </trkpt>
      <trkpt lat="47.28398" lon="4.96476">
        <ele>344.60000610352</ele>
        <time>2014-08-02T08:37:19.000Z</time>
      </trkpt>
      <trkpt lat="47.28399" lon="4.96481">
        <ele>344.39999389648</ele>
        <time>2014-08-02T08:37:21.000Z</time>
      </trkpt>
      <trkpt lat="47.284" lon="4.96493">
        <ele>344</ele>
        <time>2014-08-02T08:37:26.000Z</time>
      </trkpt>
      <trkpt lat="47.284" lon="4.96504">
        <ele>343.79998779297</ele>
        <time>2014-08-02T08:37:31.000Z</time>
      </trkpt>
      <trkpt lat="47.284" lon="4.96509">
        <ele>343.60000610352</ele>
        <time>2014-08-02T08:37:33.000Z</time>
      </trkpt>
      <trkpt lat="47.284" lon="4.96518">
        <ele>343.20001220703</ele>
        <time>2014-08-02T08:37:37.000Z</time>
      </trkpt>
      <trkpt lat="47.284" lon="4.96527">
        <ele>342.79998779297</ele>
        <time>2014-08-02T08:37:41.000Z</time>
      </trkpt>
      <trkpt lat="47.284" lon="4.96531">
        <ele>342.79998779297</ele>
        <time>2014-08-02T08:37:43.000Z</time>
      </trkpt>
      <trkpt lat="47.28396" lon="4.96538">
        <ele>342.60000610352</ele>
        <time>2014-08-02T08:37:48.000Z</time>
      </trkpt>
      <trkpt lat="47.28395" lon="4.9654">
        <ele>342.60000610352</ele>
        <time>2014-08-02T08:37:49.000Z</time>
      </trkpt>
      <trkpt lat="47.28395" lon="4.96542">
        <ele>342.60000610352</ele>
        <time>2014-08-02T08:37:50.000Z</time>
      </trkpt>
      <trkpt lat="47.28395" lon="4.96549">
        <ele>342.39999389648</ele>
        <time>2014-08-02T08:37:53.000Z</time>
      </trkpt>
      <trkpt lat="47.28398" lon="4.96564">
        <ele>342</ele>
        <time>2014-08-02T08:38:00.000Z</time>
      </trkpt>
      <trkpt lat="47.28398" lon="4.96575">
        <ele>341.79998779297</ele>
        <time>2014-08-02T08:38:05.000Z</time>
      </trkpt>
      <trkpt lat="47.28396" lon="4.96583">
        <ele>341.60000610352</ele>
        <time>2014-08-02T08:38:09.000Z</time>
      </trkpt>
      <trkpt lat="47.28395" lon="4.96586">
        <ele>341.39999389648</ele>
        <time>2014-08-02T08:38:11.000Z</time>
      </trkpt>
      <trkpt lat="47.28393" lon="4.96594">
        <ele>341.20001220703</ele>
        <time>2014-08-02T08:38:15.000Z</time>
      </trkpt>
      <trkpt lat="47.28392" lon="4.96596">
        <ele>341.20001220703</ele>
        <time>2014-08-02T08:38:16.000Z</time>
      </trkpt>
      <trkpt lat="47.28391" lon="4.96598">
        <ele>341.20001220703</ele>
        <time>2014-08-02T08:38:17.000Z</time>
      </trkpt>
      <trkpt lat="47.28387" lon="4.96609">
        <ele>340.79998779297</ele>
        <time>2014-08-02T08:38:22.000Z</time>
      </trkpt>
      <trkpt lat="47.28385" lon="4.96612">
        <ele>340.60000610352</ele>
        <time>2014-08-02T08:38:24.000Z</time>
      </trkpt>
      <trkpt lat="47.28384" lon="4.96616">
        <ele>340.60000610352</ele>
        <time>2014-08-02T08:38:26.000Z</time>
      </trkpt>
      <trkpt lat="47.28381" lon="4.96624">
        <ele>340.20001220703</ele>
        <time>2014-08-02T08:38:30.000Z</time>
      </trkpt>
      <trkpt lat="47.2838" lon="4.96628">
        <ele>340.60000610352</ele>
        <time>2014-08-02T08:38:32.000Z</time>
      </trkpt>
      <trkpt lat="47.28379" lon="4.96633">
        <ele>341.20001220703</ele>
        <time>2014-08-02T08:38:34.000Z</time>
      </trkpt>
      <trkpt lat="47.28379" lon="4.96641">
        <ele>342.20001220703</ele>
        <time>2014-08-02T08:38:38.000Z</time>
      </trkpt>
      <trkpt lat="47.28377" lon="4.9665">
        <ele>343.20001220703</ele>
        <time>2014-08-02T08:38:43.000Z</time>
      </trkpt>
      <trkpt lat="47.28373" lon="4.9666">
        <ele>344.39999389648</ele>
        <time>2014-08-02T08:38:48.000Z</time>
      </trkpt>
      <trkpt lat="47.28373" lon="4.96665">
        <ele>345</ele>
        <time>2014-08-02T08:38:50.000Z</time>
      </trkpt>
      <trkpt lat="47.28372" lon="4.96668">
        <ele>345</ele>
        <time>2014-08-02T08:38:52.000Z</time>
      </trkpt>
      <trkpt lat="47.28371" lon="4.96671">
        <ele>344.39999389648</ele>
        <time>2014-08-02T08:38:54.000Z</time>
      </trkpt>
      <trkpt lat="47.28364" lon="4.9668">
        <ele>342.39999389648</ele>
        <time>2014-08-02T08:39:00.000Z</time>
      </trkpt>
      <trkpt lat="47.28362" lon="4.96682">
        <ele>341.79998779297</ele>
        <time>2014-08-02T08:39:02.000Z</time>
      </trkpt>
      <trkpt lat="47.2836" lon="4.96689">
        <ele>341</ele>
        <time>2014-08-02T08:39:05.000Z</time>
      </trkpt>
      <trkpt lat="47.28359" lon="4.96692">
        <ele>340.39999389648</ele>
        <time>2014-08-02T08:39:07.000Z</time>
      </trkpt>
      <trkpt lat="47.28357" lon="4.96699">
        <ele>339.60000610352</ele>
        <time>2014-08-02T08:39:10.000Z</time>
      </trkpt>
      <trkpt lat="47.28353" lon="4.96705">
        <ele>338.39999389648</ele>
        <time>2014-08-02T08:39:14.000Z</time>
      </trkpt>
      <trkpt lat="47.28353" lon="4.96713">
        <ele>339.20001220703</ele>
        <time>2014-08-02T08:39:18.000Z</time>
      </trkpt>
      <trkpt lat="47.28348" lon="4.96721">
        <ele>339.79998779297</ele>
        <time>2014-08-02T08:39:23.000Z</time>
      </trkpt>
      <trkpt lat="47.28347" lon="4.96726">
        <ele>340.20001220703</ele>
        <time>2014-08-02T08:39:25.000Z</time>
      </trkpt>
      <trkpt lat="47.28346" lon="4.96733">
        <ele>340.20001220703</ele>
        <time>2014-08-02T08:39:28.000Z</time>
      </trkpt>
      <trkpt lat="47.2834" lon="4.96737">
        <ele>338</ele>
        <time>2014-08-02T08:39:32.000Z</time>
      </trkpt>
      <trkpt lat="47.28337" lon="4.96739">
        <ele>337</ele>
        <time>2014-08-02T08:39:34.000Z</time>
      </trkpt>
      <trkpt lat="47.28332" lon="4.96744">
        <ele>335</ele>
        <time>2014-08-02T08:39:38.000Z</time>
      </trkpt>
      <trkpt lat="47.28326" lon="4.96752">
        <ele>335.20001220703</ele>
        <time>2014-08-02T08:39:43.000Z</time>
      </trkpt>
      <trkpt lat="47.28318" lon="4.9676">
        <ele>336.60000610352</ele>
        <time>2014-08-02T08:39:50.000Z</time>
      </trkpt>
      <trkpt lat="47.28314" lon="4.96763">
        <ele>337.39999389648</ele>
        <time>2014-08-02T08:39:53.000Z</time>
      </trkpt>
      <trkpt lat="47.28306" lon="4.96767">
        <ele>338.79998779297</ele>
        <time>2014-08-02T08:39:58.000Z</time>
      </trkpt>
      <trkpt lat="47.28305" lon="4.96769">
        <ele>338.79998779297</ele>
        <time>2014-08-02T08:39:59.000Z</time>
      </trkpt>
      <trkpt lat="47.28304" lon="4.96772">
        <ele>338.60000610352</ele>
        <time>2014-08-02T08:40:01.000Z</time>
      </trkpt>
      <trkpt lat="47.28303" lon="4.96783">
        <ele>338.20001220703</ele>
        <time>2014-08-02T08:40:07.000Z</time>
      </trkpt>
      <trkpt lat="47.28301" lon="4.9679">
        <ele>337.79998779297</ele>
        <time>2014-08-02T08:40:11.000Z</time>
      </trkpt>
      <trkpt lat="47.28301" lon="4.96798">
        <ele>338.20001220703</ele>
        <time>2014-08-02T08:40:15.000Z</time>
      </trkpt>
      <trkpt lat="47.28301" lon="4.96802">
        <ele>338.39999389648</ele>
        <time>2014-08-02T08:40:17.000Z</time>
      </trkpt>
      <trkpt lat="47.283" lon="4.96807">
        <ele>338.79998779297</ele>
        <time>2014-08-02T08:40:19.000Z</time>
      </trkpt>
      <trkpt lat="47.28298" lon="4.96816">
        <ele>339.39999389648</ele>
        <time>2014-08-02T08:40:23.000Z</time>
      </trkpt>
      <trkpt lat="47.28297" lon="4.96828">
        <ele>340.20001220703</ele>
        <time>2014-08-02T08:40:29.000Z</time>
      </trkpt>
      <trkpt lat="47.28297" lon="4.9683">
        <ele>340.39999389648</ele>
        <time>2014-08-02T08:40:30.000Z</time>
      </trkpt>
      <trkpt lat="47.28296" lon="4.96832">
        <ele>340.39999389648</ele>
        <time>2014-08-02T08:40:31.000Z</time>
      </trkpt>
      <trkpt lat="47.28294" lon="4.96843">
        <ele>340.60000610352</ele>
        <time>2014-08-02T08:40:36.000Z</time>
      </trkpt>
      <trkpt lat="47.28294" lon="4.96847">
        <ele>340.20001220703</ele>
        <time>2014-08-02T08:40:38.000Z</time>
      </trkpt>
      <trkpt lat="47.28292" lon="4.9685">
        <ele>339.60000610352</ele>
        <time>2014-08-02T08:40:40.000Z</time>
      </trkpt>
      <trkpt lat="47.28287" lon="4.96861">
        <ele>338.20001220703</ele>
        <time>2014-08-02T08:40:46.000Z</time>
      </trkpt>
      <trkpt lat="47.28287" lon="4.96863">
        <ele>338</ele>
        <time>2014-08-02T08:40:47.000Z</time>
      </trkpt>
      <trkpt lat="47.28287" lon="4.96866">
        <ele>337.79998779297</ele>
        <time>2014-08-02T08:40:48.000Z</time>
      </trkpt>
      <trkpt lat="47.28285" lon="4.96872">
        <ele>337</ele>
        <time>2014-08-02T08:40:51.000Z</time>
      </trkpt>
      <trkpt lat="47.28281" lon="4.9688">
        <ele>336.60000610352</ele>
        <time>2014-08-02T08:40:56.000Z</time>
      </trkpt>
      <trkpt lat="47.2828" lon="4.96886">
        <ele>336.79998779297</ele>
        <time>2014-08-02T08:40:59.000Z</time>
      </trkpt>
      <trkpt lat="47.28279" lon="4.9689">
        <ele>337</ele>
        <time>2014-08-02T08:41:01.000Z</time>
      </trkpt>
      <trkpt lat="47.28276" lon="4.96898">
        <ele>337.20001220703</ele>
        <time>2014-08-02T08:41:05.000Z</time>
      </trkpt>
      <trkpt lat="47.28275" lon="4.96901">
        <ele>337.39999389648</ele>
        <time>2014-08-02T08:41:07.000Z</time>
      </trkpt>
      <trkpt lat="47.28269" lon="4.96908">
        <ele>336</ele>
        <time>2014-08-02T08:41:12.000Z</time>
      </trkpt>
      <trkpt lat="47.28268" lon="4.9691">
        <ele>335.79998779297</ele>
        <time>2014-08-02T08:41:13.000Z</time>
      </trkpt>
      <trkpt lat="47.28266" lon="4.9692">
        <ele>335</ele>
        <time>2014-08-02T08:41:18.000Z</time>
      </trkpt>
      <trkpt lat="47.28266" lon="4.96924">
        <ele>334.79998779297</ele>
        <time>2014-08-02T08:41:20.000Z</time>
      </trkpt>
      <trkpt lat="47.28267" lon="4.96943">
        <ele>334.39999389648</ele>
        <time>2014-08-02T08:41:28.000Z</time>
      </trkpt>
      <trkpt lat="47.28267" lon="4.96945">
        <ele>334.39999389648</ele>
        <time>2014-08-02T08:41:29.000Z</time>
      </trkpt>
      <trkpt lat="47.28263" lon="4.96952">
        <ele>333.39999389648</ele>
        <time>2014-08-02T08:41:33.000Z</time>
      </trkpt>
      <trkpt lat="47.28261" lon="4.96953">
        <ele>333</ele>
        <time>2014-08-02T08:41:34.000Z</time>
      </trkpt>
      <trkpt lat="47.2826" lon="4.96963">
        <ele>332.79998779297</ele>
        <time>2014-08-02T08:41:39.000Z</time>
      </trkpt>
      <trkpt lat="47.28258" lon="4.96975">
        <ele>332.60000610352</ele>
        <time>2014-08-02T08:41:45.000Z</time>
      </trkpt>
      <trkpt lat="47.28258" lon="4.96985">
        <ele>332.39999389648</ele>
        <time>2014-08-02T08:41:50.000Z</time>
      </trkpt>
      <trkpt lat="47.28257" lon="4.96993">
        <ele>332.20001220703</ele>
        <time>2014-08-02T08:41:54.000Z</time>
      </trkpt>
      <trkpt lat="47.28257" lon="4.96996">
        <ele>332</ele>
        <time>2014-08-02T08:41:56.000Z</time>
      </trkpt>
      <trkpt lat="47.28256" lon="4.97004">
        <ele>331.79998779297</ele>
        <time>2014-08-02T08:42:01.000Z</time>
      </trkpt>
      <trkpt lat="47.28255" lon="4.97015">
        <ele>331.39999389648</ele>
        <time>2014-08-02T08:42:06.000Z</time>
      </trkpt>
      <trkpt lat="47.28255" lon="4.97024">
        <ele>331.20001220703</ele>
        <time>2014-08-02T08:42:11.000Z</time>
      </trkpt>
      <trkpt lat="47.28255" lon="4.97026">
        <ele>331.20001220703</ele>
        <time>2014-08-02T08:42:12.000Z</time>
      </trkpt>
      <trkpt lat="47.28254" lon="4.97029">
        <ele>331</ele>
        <time>2014-08-02T08:42:14.000Z</time>
      </trkpt>
      <trkpt lat="47.28254" lon="4.97035">
        <ele>330.79998779297</ele>
        <time>2014-08-02T08:42:17.000Z</time>
      </trkpt>
      <trkpt lat="47.28255" lon="4.97045">
        <ele>331</ele>
        <time>2014-08-02T08:42:22.000Z</time>
      </trkpt>
      <trkpt lat="47.28255" lon="4.97052">
        <ele>331</ele>
        <time>2014-08-02T08:42:25.000Z</time>
      </trkpt>
      <trkpt lat="47.28255" lon="4.97057">
        <ele>331</ele>
        <time>2014-08-02T08:42:27.000Z</time>
      </trkpt>
      <trkpt lat="47.2826" lon="4.97071">
        <ele>332</ele>
        <time>2014-08-02T08:42:32.000Z</time>
      </trkpt>
      <trkpt lat="47.28261" lon="4.97083">
        <ele>332</ele>
        <time>2014-08-02T08:42:37.000Z</time>
      </trkpt>
      <trkpt lat="47.2826" lon="4.97092">
        <ele>331.60000610352</ele>
        <time>2014-08-02T08:42:42.000Z</time>
      </trkpt>
      <trkpt lat="47.28258" lon="4.97096">
        <ele>330.79998779297</ele>
        <time>2014-08-02T08:42:45.000Z</time>
      </trkpt>
      <trkpt lat="47.28258" lon="4.97103">
        <ele>330.60000610352</ele>
        <time>2014-08-02T08:42:49.000Z</time>
      </trkpt>
      <trkpt lat="47.28257" lon="4.97107">
        <ele>330.39999389648</ele>
        <time>2014-08-02T08:42:51.000Z</time>
      </trkpt>
      <trkpt lat="47.28258" lon="4.97117">
        <ele>330.20001220703</ele>
        <time>2014-08-02T08:42:56.000Z</time>
      </trkpt>
      <trkpt lat="47.28255" lon="4.97128">
        <ele>329.39999389648</ele>
        <time>2014-08-02T08:43:02.000Z</time>
      </trkpt>
      <trkpt lat="47.28255" lon="4.9714">
        <ele>329.60000610352</ele>
        <time>2014-08-02T08:43:08.000Z</time>
      </trkpt>
      <trkpt lat="47.28252" lon="4.9715">
        <ele>328.60000610352</ele>
        <time>2014-08-02T08:43:13.000Z</time>
      </trkpt>
      <trkpt lat="47.2825" lon="4.97153">
        <ele>328</ele>
        <time>2014-08-02T08:43:15.000Z</time>
      </trkpt>
      <trkpt lat="47.28246" lon="4.97162">
        <ele>327.20001220703</ele>
        <time>2014-08-02T08:43:21.000Z</time>
      </trkpt>
      <trkpt lat="47.28245" lon="4.97167">
        <ele>327.20001220703</ele>
        <time>2014-08-02T08:43:23.000Z</time>
      </trkpt>
      <trkpt lat="47.28246" lon="4.97174">
        <ele>327</ele>
        <time>2014-08-02T08:43:26.000Z</time>
      </trkpt>
      <trkpt lat="47.2824" lon="4.97184">
        <ele>327.79998779297</ele>
        <time>2014-08-02T08:43:32.000Z</time>
      </trkpt>
      <trkpt lat="47.28237" lon="4.97191">
        <ele>328.20001220703</ele>
        <time>2014-08-02T08:43:36.000Z</time>
      </trkpt>
      <trkpt lat="47.28236" lon="4.97196">
        <ele>328.39999389648</ele>
        <time>2014-08-02T08:43:38.000Z</time>
      </trkpt>
      <trkpt lat="47.28234" lon="4.97202">
        <ele>328.20001220703</ele>
        <time>2014-08-02T08:43:42.000Z</time>
      </trkpt>
      <trkpt lat="47.28231" lon="4.97205">
        <ele>328.20001220703</ele>
        <time>2014-08-02T08:43:44.000Z</time>
      </trkpt>
      <trkpt lat="47.2823" lon="4.97207">
        <ele>328.20001220703</ele>
        <time>2014-08-02T08:43:45.000Z</time>
      </trkpt>
      <trkpt lat="47.28231" lon="4.97219">
        <ele>328.39999389648</ele>
        <time>2014-08-02T08:43:50.000Z</time>
      </trkpt>
      <trkpt lat="47.28231" lon="4.97224">
        <ele>328.39999389648</ele>
        <time>2014-08-02T08:43:52.000Z</time>
      </trkpt>
      <trkpt lat="47.28231" lon="4.97232">
        <ele>328.79998779297</ele>
        <time>2014-08-02T08:43:55.000Z</time>
      </trkpt>
      <trkpt lat="47.28228" lon="4.97246">
        <ele>329.20001220703</ele>
        <time>2014-08-02T08:44:01.000Z</time>
      </trkpt>
      <trkpt lat="47.28228" lon="4.97248">
        <ele>329.39999389648</ele>
        <time>2014-08-02T08:44:02.000Z</time>
      </trkpt>
      <trkpt lat="47.28228" lon="4.9725">
        <ele>329.39999389648</ele>
        <time>2014-08-02T08:44:03.000Z</time>
      </trkpt>
      <trkpt lat="47.28225" lon="4.97263">
        <ele>329.79998779297</ele>
        <time>2014-08-02T08:44:09.000Z</time>
      </trkpt>
    </trkseg>
  </trk>
</gpx>